GFSGL_500_spd_000.txt.gz
Wind_Speed
52 51 52 50 48 51 56 61 63 63 64 64 66 68 69 69 69 70 72 74 72 70 74 78 86 82 83 81 86 88 92 96 105 101 97 88 94 95 94 95 101 107 111
52 54 51 52 55 59 60 64 64 64 66 69 70 71 71 71 70 70 71 70 73 74 74 77 83 84 82 84 86 85 90 99 110 113 99 92 85 93 100 104 91 79 70
54 51 53 55 59 61 66 71 70 67 67 69 70 71 72 71 71 69 69 67 67 72 77 80 80 83 84 84 83 88 97 103 107 108 101 94 96 99 84 67 59 58 62
54 55 53 58 63 65 68 71 71 69 71 71 69 70 70 71 72 70 72 77 79 78 76 77 81 82 81 85 87 94 100 102 101 99 99 104 96 62 53 52 49 58 59
57 58 64 69 72 70 69 69 70 72 69 66 66 68 68 71 72 74 78 77 73 74 76 80 81 82 82 88 93 96 100 103 102 98 101 96 60 43 44 47 48 55 55
62 67 68 70 72 73 71 65 60 63 62 62 64 66 70 74 78 73 72 70 72 74 75 77 79 81 87 89 92 92 99 98 96 105 98 61 43 43 46 46 47 48 46
67 67 67 69 70 66 61 62 63 62 65 69 73 74 73 77 78 72 72 73 73 75 75 74 80 86 88 87 89 93 94 93 101 98 71 49 42 48 51 51 50 46 42
65 62 61 61 66 66 64 59 57 59 65 68 67 71 74 75 76 77 74 73 74 76 75 77 82 83 84 85 92 94 94 96 102 77 61 53 56 59 59 57 53 49 41
67 65 59 55 58 54 55 61 66 61 66 64 67 68 72 75 77 76 74 75 75 74 74 79 79 79 80 86 90 95 94 96 85 63 63 64 62 64 62 61 54 52 41
62 63 67 67 61 56 53 59 65 66 63 68 65 68 67 74 76 75 73 70 71 72 72 72 74 77 80 86 91 94 93 91 67 59 57 56 55 51 51 55 54 48 44
59 61 58 61 61 64 66 67 66 65 67 64 69 71 66 66 70 68 67 67 67 67 67 68 72 76 81 85 90 92 95 81 57 57 53 50 49 44 44 48 51 48 45
61 56 57 56 57 60 64 63 65 64 63 64 66 68 66 63 63 65 65 68 70 69 66 69 70 76 80 84 88 89 87 64 57 53 47 43 43 40 39 43 45 45 45
64 53 49 52 63 69 72 73 72 72 62 61 63 64 61 61 63 65 67 67 69 65 65 70 73 76 80 83 88 87 74 54 54 50 43 41 40 37 34 33 38 39 45
65 65 64 67 68 74 78 80 78 75 68 72 64 61 61 61 61 63 64 64 63 65 67 70 73 76 82 84 87 74 58 52 50 46 41 39 38 36 33 31 30 38 45
81 79 82 84 83 86 82 87 88 77 71 75 64 63 66 65 62 61 62 59 61 65 68 71 74 77 79 83 83 61 51 49 48 44 39 38 38 40 36 32 32 35 43
82 86 90 93 97 98 95 86 85 84 72 74 62 67 65 64 62 58 57 57 59 64 69 72 76 78 81 82 76 50 47 44 43 41 42 40 38 37 35 34 37 37 42
93 85 88 94 101 102 93 90 85 79 67 62 69 71 64 60 54 54 53 53 57 64 69 73 77 76 80 76 61 49 44 39 38 40 41 39 37 35 30 31 37 41 43
94 96 96 104 109 101 87 85 76 72 65 66 72 64 56 52 50 48 47 49 56 63 68 73 73 75 74 61 49 49 43 36 35 39 40 38 36 33 27 25 31 38 44
108 112 116 113 101 87 79 75 70 75 65 65 60 52 51 50 44 41 42 47 55 61 67 72 74 71 65 52 44 47 41 35 34 35 35 35 32 28 25 21 26 37 43
110 105 97 87 78 72 64 62 68 60 57 53 47 47 47 43 38 39 43 50 56 62 66 71 71 64 51 44 41 44 39 34 32 32 31 33 30 21 20 17 23 32 40
55 50 53 54 54 57 56 54 51 52 48 42 42 43 41 33 38 38 44 49 57 62 67 69 66 53 43 40 39 40 36 34 29 27 28 28 27 18 15 14 22 27 32
40 41 41 48 52 54 59 59 48 41 39 39 41 37 30 32 36 39 44 50 57 63 65 66 57 47 39 39 36 35 30 28 26 23 23 24 22 11 11 15 23 28 31
41 45 43 48 49 51 51 45 36 36 37 40 35 26 27 34 39 40 44 51 58 63 63 56 47 40 36 38 35 35 29 25 21 19 16 21 14 12 15 17 21 26 27
36 36 37 33 36 37 33 34 35 37 37 31 26 25 30 37 39 41 45 52 57 61 58 47 42 37 32 35 32 31 30 27 21 16 14 18 17 19 16 18 21 25 26
35 33 28 30 31 28 31 35 37 35 29 25 24 28 34 39 41 43 47 53 56 57 51 43 38 36 30 32 30 27 28 25 21 16 13 17 19 13 12 15 21 27 34
31 24 25 25 25 29 34 35 32 29 25 25 28 33 38 40 41 45 48 53 54 53 47 40 36 36 29 28 30 27 25 24 20 18 14 13 20 9 10 18 23 32 37

GFSGL_500_spd_003.txt.gz
Wind_Speed
55 56 54 54 52 47 48 51 53 54 51 52 56 60 61 63 68 69 70 70 70 69 69 67 67 66 68 74 76 79 83 83 79 69 78 77 79 85 91 98 102 101 106
60 56 54 55 52 52 53 54 55 53 53 61 63 65 66 68 68 70 70 68 67 67 68 69 69 71 72 77 79 75 77 80 81 78 72 77 85 94 99 104 103 109 117
57 53 50 50 48 49 51 51 50 58 63 62 63 68 68 69 69 71 69 64 61 61 64 70 70 70 73 73 73 74 77 82 84 82 77 86 90 91 101 101 107 115 109
48 49 46 46 52 53 54 58 61 62 62 65 68 68 66 66 66 64 60 58 60 63 67 70 74 72 71 71 74 76 76 81 85 87 88 87 91 93 97 103 109 112 91
52 53 53 56 60 59 60 62 64 65 65 59 56 57 56 59 59 60 61 64 66 70 73 72 72 73 72 72 75 77 79 83 87 89 90 91 94 96 101 106 111 87 61
60 61 58 59 62 61 63 62 61 60 61 62 65 67 62 62 59 59 60 61 63 65 69 70 72 74 76 76 76 80 82 85 87 89 90 93 93 101 102 109 91 65 50
68 67 60 60 62 63 63 62 62 64 63 61 57 56 57 61 64 66 67 68 65 65 68 71 74 77 77 76 76 77 81 83 85 89 89 90 94 96 104 97 65 62 55
71 66 62 63 61 64 66 59 64 56 54 53 54 57 61 65 65 65 65 62 64 66 68 70 70 72 74 73 70 75 78 80 82 85 89 90 91 98 97 74 67 65 58
68 67 67 68 67 65 58 59 57 54 52 54 59 63 64 63 60 63 63 61 63 65 68 67 67 66 66 70 73 77 79 79 81 84 88 91 93 96 75 69 64 63 56
73 73 73 70 72 65 65 63 58 56 51 50 52 58 61 63 67 64 61 59 64 64 64 65 65 65 67 72 75 77 76 75 78 81 84 89 95 86 64 67 61 59 57
73 76 76 74 71 67 69 69 59 53 45 48 53 56 65 66 69 71 71 70 69 64 59 63 66 66 69 71 73 72 73 76 77 81 86 91 93 70 61 62 62 60 55
66 67 70 68 67 69 71 70 67 68 58 59 66 70 71 71 74 75 71 73 68 63 65 63 65 68 70 70 71 73 74 78 80 83 88 91 76 61 60 58 58 58 55
74 68 63 68 74 76 74 75 73 74 75 80 80 78 78 80 81 80 75 73 65 64 68 68 70 70 69 71 71 73 76 79 82 88 89 81 62 57 55 55 56 58 55
76 63 58 62 71 77 78 77 77 81 79 78 75 76 77 79 82 81 75 73 62 65 70 72 70 66 68 71 71 73 76 79 86 89 85 66 56 53 50 51 53 55 54
69 64 72 69 66 75 82 81 80 81 88 90 86 70 68 73 81 76 77 71 65 65 69 67 61 61 65 69 71 74 77 83 87 86 69 58 52 50 50 51 51 50 50
72 70 73 79 82 74 79 80 86 87 86 87 81 72 75 79 72 74 74 73 68 65 62 58 53 58 66 69 70 72 78 84 85 73 59 52 47 48 49 50 49 46 44
86 87 79 76 67 77 72 77 73 91 93 92 87 90 83 77 72 74 74 70 64 60 51 49 49 59 65 70 72 74 77 81 74 62 54 47 45 47 50 47 42 41 42
92 92 90 84 85 85 83 88 93 95 103 112 104 93 74 73 71 69 68 60 56 46 44 44 50 59 66 70 71 72 76 73 63 54 53 47 46 46 47 44 42 43 40
94 95 94 98 98 101 106 113 111 93 94 89 90 76 66 65 61 64 59 53 43 39 42 45 52 59 64 65 68 72 72 61 53 50 50 46 46 46 44 42 42 40 36
108 108 113 118 110 109 108 100 99 74 65 58 61 68 62 55 57 55 51 46 38 36 42 46 52 58 62 64 68 68 60 53 46 47 46 46 45 44 42 36 38 31 29
98 104 110 106 86 72 68 68 57 56 50 44 43 46 49 50 52 48 44 39 33 39 42 46 52 58 64 66 68 60 53 48 43 43 42 43 42 39 36 32 26 21 22
61 55 43 42 46 49 48 38 41 41 49 51 47 45 44 46 46 43 39 31 34 38 42 47 51 57 62 65 65 55 47 43 40 40 39 37 37 35 32 23 23 19 19
45 39 37 42 41 40 40 41 44 54 50 47 42 41 44 44 42 39 28 31 34 39 43 48 52 58 62 65 58 51 45 42 38 38 35 31 28 30 29 27 26 19 17
38 36 34 36 37 41 39 41 45 41 40 39 40 42 43 39 38 30 30 33 37 41 46 48 53 57 61 62 55 48 46 42 39 36 35 31 25 25 27 29 24 16 14
30 35 37 37 34 35 37 35 31 31 32 35 39 41 39 35 32 32 34 37 41 45 49 50 53 58 62 59 55 49 44 39 38 35 33 30 27 22 22 26 14 13 16
26 20 23 33 33 31 24 23 24 27 30 33 38 39 33 33 34 35 39 41 45 47 50 51 54 59 63 58 52 45 41 37 36 33 32 29 26 20 15 20 11 11 15

GFSGL_500_spd_006.txt.gz
Wind_Speed
57 54 56 58 59 59 60 62 60 55 51 53 56 56 57 56 55 56 59 58 62 65 67 69 71 72 72 71 68 67 66 66 62 59 66 69 71 71 71 72 74 76 78
62 58 57 57 57 59 60 56 55 54 55 54 53 54 55 51 58 59 63 63 65 68 70 71 72 73 65 62 59 61 62 67 71 65 62 65 69 72 73 75 73 77 82
63 64 63 62 56 52 54 55 52 50 48 50 52 54 57 63 65 65 66 68 69 66 68 67 69 69 67 64 62 66 70 69 70 67 58 64 68 71 73 76 75 78 82
67 64 65 62 48 48 50 51 51 55 56 55 58 61 63 65 67 66 62 62 63 63 67 68 71 71 72 72 70 72 73 72 70 70 67 65 69 75 77 77 74 76 83
63 67 67 60 45 47 50 53 55 57 57 59 61 61 62 63 62 64 64 66 64 60 60 63 66 69 72 71 70 72 73 75 76 77 74 70 70 73 75 75 79 82 82
60 62 63 67 58 54 57 57 56 59 60 60 59 59 61 64 66 65 60 58 58 60 62 66 70 72 70 71 71 73 74 74 75 76 71 69 66 72 76 80 79 84 88
67 65 65 63 64 67 64 60 60 60 63 61 55 59 60 60 56 51 53 55 58 60 59 60 63 64 64 65 65 68 69 70 71 70 68 69 70 78 79 80 84 88 88
77 78 73 73 70 70 61 59 61 64 64 61 55 54 58 54 50 48 49 49 49 52 52 57 63 67 69 68 71 69 63 63 66 67 69 73 76 79 83 85 86 91 90
80 82 86 84 77 73 69 59 64 68 66 70 57 57 60 59 50 52 52 49 47 60 59 60 63 66 68 72 75 69 67 66 68 71 74 79 80 82 86 88 90 95 96
80 85 85 79 75 68 61 62 65 66 70 68 68 64 61 60 52 51 52 54 68 66 62 66 68 70 73 72 73 71 71 70 69 73 76 76 81 81 81 89 93 97 101
85 85 77 67 67 67 64 63 65 64 66 65 65 65 65 67 65 66 69 73 69 67 72 70 72 76 78 74 76 74 73 73 71 73 75 78 80 78 82 86 93 101 101
86 83 76 73 77 76 73 68 65 65 64 63 63 67 70 73 74 75 78 79 74 73 77 78 75 78 77 78 74 71 73 73 74 73 74 74 75 79 83 88 94 96 85
77 74 81 79 75 72 73 69 68 69 70 66 66 71 74 77 81 84 81 80 82 83 83 77 74 83 76 81 76 69 77 78 76 76 74 75 77 81 84 89 92 81 66
73 75 75 74 73 75 72 71 72 74 74 71 74 78 78 77 79 91 79 78 77 76 83 78 85 84 73 76 74 72 75 77 76 74 74 77 79 82 89 89 80 66 60
77 75 80 80 80 79 78 73 72 71 73 74 80 81 80 70 76 76 75 73 78 80 76 74 78 72 71 70 71 68 68 70 71 74 78 79 82 87 88 79 65 57 54
81 83 88 90 84 85 80 81 75 68 74 75 74 77 82 85 82 79 72 72 76 71 77 79 74 71 69 64 60 56 57 62 68 74 77 80 83 87 81 66 58 53 51
76 83 87 91 85 79 83 86 89 80 82 84 89 85 76 72 74 75 80 80 70 75 71 63 68 67 63 52 47 49 55 62 68 73 75 79 84 79 69 61 54 50 49
82 86 88 89 86 86 89 93 81 75 76 88 88 85 80 79 83 76 70 76 65 68 61 59 61 61 51 41 43 50 56 61 65 69 72 77 76 69 61 59 53 50 47
117 116 115 116 106 102 96 100 97 97 89 87 90 95 92 91 91 81 70 68 67 63 55 57 58 55 42 38 46 51 54 59 64 66 70 72 69 62 59 56 53 50 47
116 115 117 114 112 110 111 114 124 120 117 116 110 100 105 99 70 57 64 65 64 54 54 57 53 47 35 41 47 50 53 58 61 65 69 68 63 58 57 53 52 47 45
77 80 80 80 81 81 82 83 87 91 96 95 79 74 74 77 78 66 59 52 51 54 57 54 51 39 37 43 47 49 52 58 61 64 67 65 61 53 54 51 47 46 45
49 48 51 51 56 57 56 57 56 50 48 48 50 49 54 54 48 43 42 47 52 54 53 51 42 35 39 45 50 51 53 59 63 65 66 64 58 48 49 46 41 42 41
40 42 42 45 49 50 45 38 37 40 43 47 49 41 53 48 50 47 48 48 47 49 50 44 38 38 42 47 52 53 55 59 63 67 66 60 55 46 43 40 36 37 39
31 32 34 37 38 37 36 33 36 35 39 42 43 45 46 46 46 46 44 43 47 49 47 41 39 42 45 50 54 56 58 61 64 69 68 59 53 44 40 37 33 32 36
26 28 25 25 27 29 40 37 41 37 37 40 44 45 43 41 39 37 38 44 48 47 44 42 43 45 49 52 55 58 59 63 67 72 67 57 52 44 38 35 32 28 30
20 25 27 27 30 39 43 40 32 34 37 36 32 29 29 30 32 36 41 46 45 44 43 44 46 49 52 55 58 60 61 64 69 72 63 53 50 42 36 33 29 25 25

GFSGL_500_spd_009.txt.gz
Wind_Speed
50 53 56 59 61 64 63 60 60 59 60 61 61 61 59 59 58 57 57 59 60 60 61 61 65 64 67 69 69 73 76 76 77 77 77 76 75 75 76 78 80 78 76
54 57 55 58 63 63 60 61 60 61 61 61 60 61 59 57 56 57 57 58 58 59 61 63 65 67 69 71 75 76 76 75 74 68 68 69 71 72 77 79 82 82 82
62 60 62 62 63 66 63 63 63 65 65 64 62 61 60 57 54 55 56 56 58 62 65 67 71 70 72 73 70 69 71 69 70 67 66 67 72 73 75 75 76 78 79
65 66 66 68 69 71 69 70 69 64 63 61 59 59 58 57 58 60 60 62 64 68 69 70 68 67 69 67 64 65 64 66 67 66 66 65 66 70 75 75 72 76 81
62 64 64 70 69 69 71 68 67 64 59 59 61 65 60 58 61 63 64 65 65 65 64 60 63 64 58 59 62 62 61 62 64 67 68 66 70 71 72 70 70 70 69
81 63 57 59 62 66 64 61 65 63 55 58 61 60 58 59 63 63 63 66 65 66 61 59 61 59 56 54 51 53 54 56 57 56 61 66 70 75 75 73 73 70 70
77 72 73 73 78 73 75 67 69 65 65 67 67 62 61 63 62 63 65 63 66 66 62 58 55 54 55 51 57 53 58 62 61 67 68 67 69 73 75 76 76 79 82
83 80 80 81 79 75 74 71 74 73 69 68 66 62 62 64 62 65 63 66 67 65 64 57 56 59 58 53 61 61 64 65 66 68 71 73 81 82 83 82 81 81 79
92 88 86 85 85 85 82 74 79 78 76 76 67 66 64 63 63 64 66 66 66 67 62 62 58 61 61 65 67 68 70 73 75 75 77 83 88 93 88 83 78 75 76
88 92 91 92 87 80 77 71 75 73 67 70 69 65 59 61 64 65 60 60 63 62 66 64 61 66 68 72 71 69 73 77 74 77 81 85 86 85 81 81 83 85 84
80 77 59 58 59 61 64 68 72 75 76 73 67 62 56 59 61 59 59 57 61 70 67 64 70 74 76 76 74 72 73 74 76 81 84 85 80 76 78 81 81 84 85
80 76 63 67 67 66 69 71 74 74 67 65 64 59 60 58 60 59 66 60 66 67 70 71 77 76 74 76 71 70 73 79 82 83 81 80 79 76 77 79 78 81 84
85 80 74 64 66 71 69 74 68 65 63 63 59 56 58 61 66 54 63 69 67 75 70 75 79 79 71 74 79 75 75 82 80 81 79 76 77 76 78 76 77 80 82
75 77 71 66 65 69 74 71 73 67 65 68 64 66 66 60 62 64 69 73 70 73 77 81 80 85 81 80 82 83 79 79 82 77 77 74 75 73 73 76 78 80 82
81 80 69 80 69 76 78 82 84 74 71 71 68 70 61 64 72 66 69 71 69 67 75 77 81 85 86 86 81 81 77 78 78 75 73 69 68 66 68 75 78 79 82
82 85 79 81 79 77 82 88 82 77 76 76 78 75 74 75 74 72 75 75 75 72 74 74 82 81 77 73 72 71 73 78 72 70 67 68 65 65 68 74 77 79 80
111 100 94 83 81 84 90 86 87 83 82 85 80 79 78 80 81 82 86 88 78 72 74 72 73 79 80 71 73 71 74 64 63 63 61 63 62 66 70 72 74 78 78
103 95 88 83 85 82 96 99 82 83 89 85 79 82 78 64 71 71 80 77 72 72 83 83 92 88 73 70 73 69 55 55 57 58 58 59 62 65 68 71 75 78 78
94 97 92 95 90 88 101 102 88 84 80 72 79 82 77 79 84 85 80 72 86 88 89 84 84 67 68 70 66 52 52 53 54 55 57 59 61 64 68 73 77 79 77
73 80 92 101 102 100 94 105 102 102 93 90 88 87 87 87 89 80 85 93 92 73 62 62 65 68 66 66 56 53 51 51 54 56 56 58 62 64 67 73 79 81 74
52 56 55 53 55 64 68 78 83 81 87 92 97 85 85 81 81 75 69 69 68 66 64 63 61 56 50 49 51 47 48 52 55 56 56 59 62 64 69 75 79 80 70
32 31 30 30 34 40 43 46 51 53 55 56 60 57 59 61 58 57 55 56 57 54 54 54 46 46 47 46 44 46 49 54 55 54 56 60 63 66 70 75 79 77 64
30 29 29 29 29 31 33 33 35 38 36 35 40 43 39 38 40 44 45 45 54 59 54 46 44 42 41 42 44 48 52 54 53 54 58 62 65 68 72 76 78 72 59
26 26 27 29 31 33 33 34 34 33 32 33 28 27 35 40 41 45 48 48 49 44 50 50 44 39 41 44 48 51 53 53 55 57 61 65 67 70 74 77 75 62 55
29 27 27 25 24 25 26 26 29 31 29 28 27 33 37 38 44 47 44 47 49 44 40 37 36 40 45 48 50 52 54 56 58 60 64 68 68 72 75 75 70 52 51
16 15 17 18 20 22 26 26 23 24 29 32 32 38 35 37 40 47 46 40 35 30 31 35 40 44 46 48 50 52 56 58 60 64 68 69 72 74 75 70 60 47 47

GFSGL_500_spd_012.txt.gz
Wind_Speed
58 63 63 62 59 56 55 58 62 64 67 69 65 62 58 53 52 51 52 57 59 59 59 58 59 60 61 61 62 63 64 64 64 66 65 66 66 65 63 62 64 66 67
61 65 63 63 60 65 68 67 65 68 70 67 66 64 61 57 56 55 56 58 59 61 60 60 61 63 64 65 65 66 68 68 67 67 67 67 68 69 66 63 64 68 66
62 68 69 71 70 70 70 72 74 73 70 69 69 71 67 61 60 61 60 60 60 63 63 61 64 62 63 64 67 70 70 71 69 70 70 67 62 66 66 67 67 64 63
67 65 61 67 75 79 80 78 75 78 78 72 71 72 73 69 67 67 66 60 58 57 61 62 64 63 65 67 67 71 72 71 71 69 63 62 63 64 64 60 57 57 56
81 83 78 72 70 70 72 78 76 70 79 82 80 78 77 76 73 73 66 65 62 61 63 66 67 67 67 67 67 66 67 66 60 59 60 60 63 58 54 56 59 60 63
88 93 89 78 80 76 73 74 79 74 68 81 87 84 80 77 74 73 72 70 69 68 66 66 69 68 67 66 68 69 66 62 60 59 62 59 58 60 62 59 62 67 68
82 88 89 82 78 76 79 80 82 79 79 74 77 81 75 73 76 72 72 74 73 73 69 70 70 66 67 65 67 70 65 60 62 63 64 65 66 68 70 72 70 71 72
86 79 79 78 84 83 82 85 86 85 82 81 78 74 76 75 75 80 79 76 76 75 72 71 69 67 76 72 75 72 60 64 64 66 71 70 70 73 75 78 72 75 75
78 87 83 79 78 77 78 84 91 93 89 89 87 76 77 76 81 83 76 71 67 72 69 69 67 75 71 77 70 63 69 69 66 68 71 74 75 76 78 73 80 82 83
91 91 90 84 90 86 89 92 76 89 99 96 83 75 78 76 71 75 83 62 60 67 63 69 73 81 70 63 65 66 68 71 70 65 71 74 73 78 78 81 84 93 89
94 93 89 88 92 91 89 80 71 72 76 78 81 80 69 73 74 66 64 67 64 65 60 53 58 65 65 65 63 63 71 75 75 73 75 76 79 83 84 84 89 95 97
96 94 102 93 79 83 79 79 71 69 70 66 69 64 64 65 65 66 66 52 62 64 57 61 65 68 69 72 64 65 69 78 81 74 80 80 83 83 85 85 87 88 87
91 90 91 87 84 78 73 69 69 66 68 75 76 76 63 59 56 58 65 62 61 61 57 62 65 67 68 68 71 79 75 78 79 82 84 85 84 85 83 80 84 87 86
98 93 88 78 75 72 66 69 67 66 70 78 69 72 65 62 56 54 60 63 51 54 62 54 68 63 66 79 71 80 73 78 80 81 84 84 80 77 75 80 79 82 80
103 102 101 98 94 88 81 79 72 74 77 71 67 65 66 72 73 63 61 60 58 60 57 59 70 64 65 74 82 79 68 74 78 73 71 72 70 70 75 79 81 78 73
94 98 104 113 112 111 100 96 88 82 77 76 64 62 64 71 77 85 75 77 60 69 63 69 66 70 67 66 75 66 75 75 74 76 76 75 72 71 75 76 73 69 67
83 87 93 98 106 103 107 101 91 85 82 90 64 66 59 78 80 71 73 81 65 79 69 70 74 81 82 78 79 72 69 74 75 79 76 71 72 71 71 66 63 63 64
73 74 75 79 82 87 86 87 88 86 90 97 74 69 72 76 83 89 81 79 82 84 79 81 76 67 63 66 70 75 76 73 74 70 71 71 62 61 59 58 59 63 65
63 62 63 66 67 69 76 78 79 88 97 98 99 84 77 74 76 78 74 70 68 80 79 70 72 66 69 77 82 80 82 82 71 70 69 64 59 59 55 56 59 64 67
51 50 54 54 54 56 59 59 60 65 71 87 89 79 79 82 85 86 87 81 75 74 79 67 69 68 69 73 76 76 71 68 68 69 64 58 56 56 55 57 62 64 68
37 39 39 39 40 44 45 45 44 44 46 53 65 75 76 81 85 87 85 91 91 84 90 82 64 66 68 69 69 67 66 63 63 56 51 54 54 54 55 60 63 66 69
23 22 21 26 30 27 28 32 35 37 40 45 49 53 57 63 64 65 67 66 67 63 66 61 61 60 58 54 54 57 58 56 50 48 48 49 50 53 58 62 65 68 70
14 14 17 16 18 17 19 21 22 22 24 29 32 35 37 40 44 48 50 49 49 45 46 46 48 50 49 47 49 49 48 48 46 44 45 48 51 55 61 64 67 70 72
12 15 18 19 21 25 25 23 26 28 28 27 27 28 26 27 29 32 34 34 37 41 44 42 42 41 42 43 46 47 46 44 43 44 46 49 54 59 62 65 68 71 75
12 15 18 21 23 20 22 22 25 28 25 26 27 28 32 32 31 30 31 34 37 38 37 39 41 43 42 41 42 42 40 40 43 45 48 53 58 61 65 67 70 73 78
6 7 9 10 10 11 13 15 17 18 19 22 25 27 25 28 29 30 30 33 34 35 37 40 40 39 38 36 34 34 36 41 45 49 53 56 60 63 66 69 73 77 81

GFSGL_500_spd_015.txt.gz
Wind_Speed
52 57 61 65 64 63 64 69 72 70 65 64 61 60 57 61 62 61 59 60 57 55 55 54 55 54 51 50 52 53 54 55 56 56 57 57 60 60 59 56 58 60 64
62 60 61 63 65 68 70 69 68 66 61 59 63 63 61 65 67 71 72 67 63 58 56 54 54 57 58 56 56 57 58 58 59 59 56 57 58 57 59 60 61 65 59
70 71 71 71 74 75 75 71 72 70 68 67 70 70 69 70 69 70 70 69 65 59 59 57 57 58 60 63 62 61 59 60 58 56 55 56 57 61 62 57 58 56 54
78 72 71 73 76 75 73 71 71 72 69 69 73 74 75 75 76 75 74 71 70 64 63 65 61 63 64 65 65 65 66 64 63 60 58 61 60 60 59 58 55 53 53
82 78 76 75 73 72 72 73 74 75 78 79 80 79 77 77 76 80 83 78 75 73 69 71 72 71 70 68 68 68 69 67 68 70 61 59 60 60 62 61 58 56 58
81 84 91 91 86 82 78 81 83 88 88 84 81 81 82 83 84 83 86 88 81 79 77 75 75 73 78 74 72 72 71 69 68 66 64 60 57 58 60 61 59 58 61
82 84 89 92 95 97 100 104 93 81 86 91 87 83 89 90 93 93 85 76 73 74 76 80 83 77 76 80 78 78 76 72 68 69 67 63 63 63 63 61 61 61 64
91 90 88 90 88 88 89 86 82 82 80 87 91 90 94 94 88 88 80 76 77 74 70 74 75 77 82 85 84 81 72 69 69 68 70 70 72 70 65 59 61 59 63
100 96 97 100 88 81 86 87 82 77 78 83 89 90 93 84 81 82 80 82 86 84 76 72 77 78 86 88 79 76 71 69 67 71 75 75 63 65 65 67 61 64 67
102 104 104 105 100 93 85 83 86 85 81 82 84 83 80 69 67 71 79 89 91 89 85 73 75 78 83 77 71 68 69 65 65 69 74 65 62 65 67 65 70 69 67
94 100 108 114 106 103 101 93 90 89 90 87 82 89 87 81 77 75 81 86 89 88 94 76 65 71 76 65 61 59 61 65 66 74 73 70 67 68 66 67 67 70 74
89 90 93 100 109 110 108 106 100 99 95 92 90 92 93 82 78 79 84 80 69 71 64 66 71 58 59 60 62 65 61 61 64 71 68 68 70 69 69 69 72 73 76
91 92 93 94 95 99 106 106 100 95 103 108 101 105 99 85 78 79 81 74 62 61 64 57 58 62 65 58 62 64 65 66 64 67 70 70 68 76 79 76 77 79 83
87 88 90 93 95 96 97 95 95 92 91 91 94 101 85 81 85 82 80 77 71 66 56 57 61 65 61 66 65 63 68 69 71 73 70 70 75 79 80 80 83 84 84
82 82 83 86 88 90 92 94 92 89 89 88 81 80 80 65 66 71 86 83 69 74 65 59 59 58 56 57 57 60 69 59 70 71 79 70 73 86 83 78 81 85 79
76 75 76 78 79 81 82 84 86 88 86 88 84 79 79 62 59 63 60 67 66 73 75 59 62 61 61 69 64 67 63 61 67 69 69 69 73 76 77 79 85 83 78
64 64 66 69 70 71 73 74 73 71 80 83 88 92 82 77 71 68 64 67 71 71 71 70 66 72 70 69 83 81 74 70 72 69 67 68 71 76 83 82 78 75 77
57 56 55 56 59 61 63 63 62 62 64 69 75 87 90 95 86 78 71 70 71 65 68 66 67 71 76 78 67 65 70 68 70 73 82 82 77 71 73 76 78 80 83
50 53 54 53 51 52 51 51 52 52 52 55 61 68 77 79 82 77 73 73 73 63 59 63 62 56 54 53 55 57 57 59 62 67 79 76 75 77 75 75 76 77 77
44 43 40 38 39 40 40 41 41 41 42 44 50 56 63 67 71 74 76 78 78 73 70 67 66 67 66 65 65 66 65 68 65 63 68 69 71 72 74 74 74 74 71
28 26 24 22 21 21 24 26 28 28 28 29 35 42 50 58 62 67 74 77 82 82 73 71 75 77 79 76 72 72 73 77 74 67 64 68 71 71 72 71 68 66 63
19 15 11 6 4 6 9 12 14 16 18 22 29 37 44 50 55 59 62 64 65 66 67 71 71 68 72 67 69 71 65 64 64 61 60 61 62 61 61 61 60 59 61
22 16 10 9 9 8 8 7 9 10 10 14 20 24 29 30 34 44 54 61 64 66 66 62 60 59 59 61 60 60 57 53 51 52 53 53 53 53 55 56 56 58 60
15 16 14 11 10 12 12 14 16 14 12 11 10 12 15 19 22 25 32 40 46 51 48 51 53 52 50 50 50 47 51 52 51 50 52 54 54 53 53 54 55 56 57
19 16 12 12 13 14 15 12 10 13 13 11 13 15 19 20 20 20 20 22 26 29 34 37 39 40 41 42 44 43 44 44 43 44 45 46 48 50 51 51 51 54 58
28 22 17 14 12 9 7 6 7 7 8 11 15 15 19 20 21 23 25 24 26 25 26 27 29 33 37 40 42 43 45 44 43 42 42 42 42 43 45 49 53 58 62

GFSGL_500_spd_021.txt.gz
Wind_Speed
70 70 74 73 69 71 73 74 74 77 78 77 78 77 75 75 79 80 82 81 78 74 75 72 72 77 75 76 74 72 73 70 68 66 59 57 58 58 59 60 57 55 54
73 74 76 73 70 76 79 78 77 76 77 79 84 84 83 81 79 79 77 79 81 77 76 72 69 75 77 74 74 74 73 71 67 62 58 56 56 58 59 61 60 57 55
80 80 79 78 75 76 79 83 74 72 72 80 83 86 87 85 85 84 84 82 79 77 74 71 68 73 75 74 74 75 73 69 67 63 61 59 62 62 64 63 62 60 56
87 86 86 85 84 84 82 83 85 87 82 78 80 85 86 86 86 86 88 89 87 82 75 72 70 73 74 73 76 77 77 74 70 72 65 57 58 60 60 58 57 56 55
89 90 91 90 89 87 86 87 89 92 91 86 84 89 92 91 90 93 92 92 92 90 87 80 76 79 79 79 81 79 81 78 76 71 66 59 55 55 62 63 60 57 53
93 92 92 93 92 92 92 91 91 90 91 87 88 88 86 99 96 95 94 93 95 95 92 88 83 85 88 88 85 83 85 83 80 74 67 68 66 62 62 65 66 62 57
98 100 101 99 98 98 99 98 99 98 96 94 92 93 96 90 94 103 101 99 95 93 92 94 88 88 92 96 94 88 83 81 82 76 75 74 73 67 65 67 67 68 65
101 103 105 107 107 106 107 106 107 107 105 102 100 98 97 99 98 98 103 106 105 102 101 98 98 92 91 85 83 87 82 80 79 79 78 78 74 75 73 67 67 69 66
97 100 102 102 104 105 106 106 106 108 108 110 110 105 104 101 102 104 104 106 107 106 103 105 102 98 97 97 91 91 89 85 85 83 82 79 78 79 79 78 69 68 66
88 89 89 91 93 94 96 97 98 100 102 104 104 106 107 105 102 101 107 109 109 104 103 97 97 102 104 103 101 100 100 98 87 82 77 77 81 72 78 73 69 70 70
83 84 86 88 90 91 92 92 94 95 95 95 97 98 99 98 99 99 99 107 112 112 107 100 94 93 96 97 88 80 80 83 86 84 80 86 81 81 74 68 70 68 68
85 86 87 89 91 92 93 92 94 95 96 95 96 95 94 92 91 92 94 94 100 110 111 104 97 95 95 92 89 83 90 86 84 80 79 78 81 75 69 65 67 70 70
83 83 84 85 86 87 88 88 90 91 93 93 94 95 92 93 94 90 88 90 91 94 98 104 100 96 97 93 91 87 88 86 81 81 78 73 77 71 75 76 71 72 74
80 79 77 78 77 77 76 76 76 76 77 78 82 86 87 89 89 90 91 90 89 90 87 88 94 99 98 94 91 91 87 80 77 74 71 74 72 69 61 65 73 76 75
71 70 67 63 61 62 65 67 67 67 67 65 66 68 70 73 75 82 87 87 85 86 87 86 86 88 93 94 96 93 89 86 82 78 77 74 69 66 66 70 73 74 73
63 64 62 60 57 59 58 55 58 60 59 59 59 58 57 58 62 67 72 76 78 79 85 84 81 81 83 87 95 96 93 83 82 81 79 75 70 68 67 72 76 71 72
42 40 42 44 46 49 50 53 53 57 62 64 61 58 55 51 53 55 58 62 65 70 78 78 78 75 76 79 82 82 90 92 76 80 78 75 75 72 74 74 76 75 72
36 40 44 43 45 48 51 49 47 44 42 44 47 48 49 48 47 49 49 52 56 62 66 69 71 70 71 77 76 77 78 80 79 79 83 84 81 78 78 76 76 80 79
39 41 38 38 43 36 29 27 29 30 30 29 31 34 33 35 38 40 42 44 46 51 55 60 64 68 70 74 75 70 73 73 78 80 84 87 83 83 83 79 82 82 87
39 37 37 35 33 28 24 24 26 27 28 26 24 24 24 24 26 28 32 35 39 45 50 55 60 65 69 70 70 66 67 62 62 61 66 76 80 80 78 82 83 83 86
34 34 34 34 31 29 25 23 24 28 28 25 22 21 20 20 19 21 25 28 33 38 44 49 53 59 64 66 65 66 64 60 52 52 54 61 65 70 73 78 77 76 70
31 34 34 30 27 28 27 25 25 25 26 21 21 20 16 14 14 15 17 21 25 32 37 41 46 52 58 63 64 64 59 57 56 55 54 55 54 53 55 56 56 56 56
29 31 34 36 35 28 25 23 23 22 22 18 16 17 19 14 12 11 11 14 17 21 23 27 32 40 50 61 64 60 55 55 55 56 57 55 54 56 57 56 56 56 58
26 29 32 35 35 34 36 32 23 21 20 19 16 15 14 14 13 10 6 7 8 11 14 18 22 30 38 47 58 57 53 54 50 50 53 54 55 54 55 55 55 56 58
27 29 31 33 35 35 34 33 33 32 20 16 15 14 13 7 7 6 5 5 3 1 5 13 19 19 18 22 35 53 51 43 38 40 43 44 44 45 46 47 48 49 52
28 30 32 34 35 35 35 34 33 32 30 27 16 13 12 9 5 4 2 1 1 0 2 6 11 20 25 27 30 33 39 39 38 39 39 39 39 40 42 44 46 49 52

GFSGL_500_spd_027.txt.gz
Wind_Speed
65 66 71 74 76 79 83 85 86 84 86 83 82 86 91 79 77 81 81 79 82 84 86 85 84 83 83 82 82 83 83 83 83 80 75 71 69 67 65 64 65 66 66
83 84 86 83 83 87 82 86 85 89 90 91 92 92 90 83 84 83 81 82 83 82 83 85 88 90 89 90 88 85 85 83 84 84 80 76 73 71 70 70 70 69 68
78 77 79 86 80 82 85 88 90 92 96 90 87 91 96 91 89 91 88 86 85 80 80 84 86 87 89 91 88 91 88 86 86 87 85 82 76 74 73 72 73 73 72
91 91 95 90 92 101 95 102 96 100 104 102 100 93 96 93 90 88 89 90 88 88 86 83 83 88 89 87 91 90 85 85 86 85 87 86 83 76 74 77 77 76 75
98 101 105 107 107 107 108 106 108 109 112 109 107 106 105 104 102 103 102 97 97 95 93 92 91 89 89 91 90 85 86 85 86 86 83 83 84 80 75 73 77 78 77
90 91 92 91 92 96 98 99 100 103 105 105 107 109 112 108 106 108 106 105 102 105 101 97 97 98 93 96 96 95 91 86 83 82 83 84 79 80 78 75 77 80 79
79 79 80 81 81 82 83 86 89 95 102 106 105 103 103 106 106 109 110 112 111 106 106 107 105 102 100 98 100 99 95 94 92 85 81 78 80 78 76 78 79 78 80
70 71 72 74 75 76 77 78 80 83 86 89 92 97 100 101 100 102 105 108 109 111 112 110 108 109 105 102 102 102 100 97 90 90 88 84 81 83 80 79 81 82 83
67 70 72 74 75 77 78 78 79 81 80 81 82 84 87 86 89 93 98 102 105 107 106 108 113 114 111 109 109 107 105 102 97 96 92 89 93 85 81 84 81 82 85
69 70 72 74 76 78 78 79 80 80 80 81 81 83 84 84 85 89 93 96 97 98 98 100 101 105 107 108 110 111 111 103 105 102 100 94 91 92 94 78 84 80 81
68 71 74 76 78 78 78 76 75 75 74 75 75 75 77 79 81 85 89 94 97 97 95 92 91 91 95 101 103 107 108 105 108 109 106 101 97 93 96 87 81 82 74
70 73 74 75 73 73 73 71 69 66 60 54 50 51 55 61 65 68 71 77 83 89 92 92 91 91 91 92 95 97 99 102 105 107 109 106 102 99 97 95 95 83 85
69 68 69 68 68 66 62 57 51 44 42 47 51 52 54 59 62 64 64 67 69 69 69 73 80 87 90 90 92 94 95 96 98 101 104 104 104 103 102 99 96 102 91
63 65 65 62 56 56 55 50 42 45 48 49 49 49 55 49 49 56 63 67 67 67 67 67 68 69 71 78 85 89 95 97 95 91 92 94 100 103 104 103 97 99 97
61 61 55 50 48 46 48 48 47 50 46 46 47 46 43 39 43 49 50 53 60 67 70 70 68 67 69 69 70 76 83 91 95 92 89 86 89 95 99 100 98 97 98
56 50 44 40 36 35 39 42 45 40 43 44 45 45 44 44 47 48 51 48 47 51 54 59 63 61 58 60 62 61 66 76 85 88 87 86 87 86 89 91 93 94 94
49 39 36 33 34 32 34 37 34 36 38 41 40 41 43 43 43 45 50 44 42 42 42 44 48 56 55 52 51 53 55 62 72 80 82 82 85 85 84 84 84 85 87
39 35 31 32 31 30 33 34 34 34 35 38 40 39 40 37 38 43 48 39 36 36 35 34 36 40 46 48 47 45 45 53 61 68 73 76 78 82 83 79 76 80 83
34 32 32 31 31 31 31 33 34 35 37 38 38 38 39 39 39 42 46 36 32 31 28 27 27 30 34 37 39 44 46 49 54 59 63 67 71 74 78 79 76 78 81
32 31 31 30 31 30 31 32 32 34 35 36 38 37 35 35 35 38 43 38 31 29 27 23 21 24 27 32 37 39 41 42 45 50 54 59 64 67 71 75 75 75 74
30 30 29 29 30 30 31 33 34 35 35 35 36 37 37 33 33 32 34 36 32 27 25 22 18 15 17 24 31 35 37 38 38 41 45 49 55 58 62 68 70 72 70
28 28 27 27 28 30 32 34 37 38 37 37 37 38 36 35 31 30 29 30 30 30 25 22 20 16 14 14 17 20 23 26 29 32 35 39 44 47 53 58 62 63 63
24 25 25 26 27 29 32 35 38 40 41 40 40 38 37 34 32 28 26 26 26 26 27 23 19 17 15 14 15 17 18 19 21 24 27 29 33 38 43 48 51 56 60
22 22 23 25 27 29 32 35 38 40 41 42 43 41 38 35 31 29 24 22 22 22 23 21 19 16 14 12 11 11 12 15 18 21 21 20 22 28 35 39 44 50 51
19 20 22 24 27 30 33 36 39 40 42 42 41 40 37 33 30 28 24 21 20 19 19 20 19 15 10 8 9 9 9 13 14 18 20 23 26 30 32 34 36 40 45
17 18 20 23 26 29 32 35 37 39 40 38 36 33 31 31 29 28 26 20 18 18 18 19 18 16 12 7 8 8 6 7 14 21 19 19 26 28 30 31 32 33 35

GFSGL_500_spd_030.txt.gz
Wind_Speed
74 75 78 81 77 77 76 78 78 81 82 85 91 94 89 86 85 85 84 79 81 78 79 82 84 86 87 85 85 84 84 84 85 80 77 75 74 72 72 71 70 67 68
81 82 84 83 82 86 87 90 90 89 91 91 90 90 92 96 98 94 88 87 90 84 81 82 81 86 85 88 86 86 89 87 88 90 85 81 78 76 75 76 75 74 73
83 85 87 88 88 88 89 90 90 90 89 94 94 96 100 95 94 93 97 95 94 94 91 86 85 87 88 84 84 86 86 89 93 94 92 89 83 80 78 77 77 77 75
88 88 89 90 91 92 94 95 96 97 99 101 101 99 96 97 99 104 103 102 100 103 101 97 89 87 91 94 90 87 85 84 86 92 96 97 93 85 83 82 80 77 75
90 90 90 91 92 92 93 94 95 96 98 101 104 108 110 110 110 116 117 115 113 113 110 108 108 102 95 96 93 91 93 91 88 87 88 94 96 93 84 82 80 77 75
85 84 82 81 80 79 79 80 82 85 87 90 93 96 99 101 104 109 117 122 123 121 118 115 112 110 108 103 101 100 98 96 95 93 91 89 87 92 87 84 84 82 79
77 73 70 68 68 67 68 68 69 70 72 73 75 79 82 85 88 92 98 104 110 117 121 122 118 112 110 110 105 107 107 106 105 101 97 94 94 92 91 87 87 86 85
68 67 66 65 66 67 69 71 73 73 74 74 75 77 78 78 82 84 87 90 92 96 101 108 117 117 110 108 112 114 113 113 107 105 106 101 102 101 100 96 92 91 91
63 63 65 67 70 72 74 74 75 74 74 74 75 75 76 76 79 81 83 84 84 85 86 90 96 104 109 107 108 112 113 110 109 109 107 105 102 102 99 98 95 96 92
63 64 66 69 71 72 74 74 73 73 71 70 69 70 71 71 73 74 74 75 76 78 81 85 88 89 90 95 101 104 108 109 108 108 108 108 106 105 102 101 95 96 91
63 65 67 68 69 70 71 71 69 67 68 66 62 58 54 51 48 49 52 56 60 64 69 74 80 86 90 92 95 97 96 96 101 104 106 107 108 108 106 104 100 98 96
62 63 65 67 70 69 68 66 65 61 57 52 48 43 38 42 47 49 53 56 59 64 68 72 74 76 78 82 88 93 93 95 95 96 98 101 104 105 104 105 105 104 101
60 62 64 67 66 64 64 60 50 47 46 48 44 40 43 47 47 51 51 52 52 54 54 57 62 69 77 78 78 77 82 90 93 96 94 93 91 92 97 102 104 106 106
60 62 64 62 60 62 56 46 41 43 42 42 42 39 37 39 40 43 46 49 51 53 55 58 59 62 62 69 76 75 73 71 75 84 90 90 93 90 89 90 96 100 103
61 60 59 57 57 55 42 41 42 41 39 35 34 35 33 35 36 38 41 44 46 49 52 55 53 53 56 61 62 73 71 72 68 66 70 81 88 91 90 88 87 91 98
57 55 55 52 52 44 37 36 41 39 39 37 35 33 33 36 40 42 42 43 45 49 54 52 49 50 49 51 54 58 65 72 70 68 69 68 69 78 85 88 89 90 90
52 54 51 50 47 39 36 36 33 36 39 38 37 37 37 38 38 38 40 43 45 46 52 49 48 47 44 45 46 47 51 57 63 63 61 62 62 65 72 78 84 88 89
54 50 50 46 42 36 35 34 33 32 30 34 38 38 40 42 43 42 40 39 40 45 48 48 43 41 38 36 36 35 37 45 50 52 52 54 58 61 65 67 73 78 82
50 51 51 44 40 34 33 33 32 32 32 32 35 39 40 42 43 42 40 38 38 39 43 46 42 38 34 30 29 28 27 32 42 45 47 50 55 59 59 60 63 68 74
54 56 54 42 36 31 32 31 31 33 32 33 36 37 38 40 42 42 41 40 37 36 37 39 41 35 31 28 26 25 24 25 30 36 40 43 47 51 52 52 55 59 65
58 57 52 39 32 29 29 30 30 31 33 36 38 39 39 40 41 41 41 39 36 34 33 35 35 36 29 25 24 21 22 26 29 32 36 39 40 41 43 45 48 52 57
56 53 45 33 27 27 27 28 29 30 33 37 40 41 43 43 42 42 41 40 35 30 29 29 30 32 32 26 22 20 19 18 21 25 29 32 34 36 37 38 41 45 49
48 43 33 26 23 24 25 25 27 29 33 36 39 41 41 42 41 39 38 36 32 28 26 25 26 28 28 26 22 19 17 18 17 17 19 21 24 27 29 32 35 38 40
39 30 25 21 21 21 22 23 25 28 32 35 37 38 40 38 37 37 36 33 30 24 23 23 23 24 23 23 19 19 18 16 14 15 15 19 23 24 26 28 30 33 35
28 23 21 19 18 18 20 22 23 26 30 33 35 36 36 34 35 34 30 29 28 24 20 20 21 20 20 18 17 17 17 14 15 15 17 17 17 18 21 24 25 27 28
25 23 20 17 15 17 19 20 21 25 28 31 32 33 32 31 31 30 26 24 25 25 23 18 17 18 17 16 14 15 14 14 14 11 14 14 14 19 21 23 25 27 29

GFSGL_500_spd_033.txt.gz
Wind_Speed
75 76 77 77 77 78 79 80 81 81 83 87 91 92 88 93 90 89 90 90 90 91 89 85 86 87 85 81 79 85 88 87 84 78 76 76 75 74 75 75 75 75 74
79 80 80 81 82 83 84 84 83 83 85 89 93 97 98 97 98 97 97 100 102 98 95 96 89 89 90 89 89 87 81 83 89 91 81 80 80 78 78 79 79 80 80
82 82 82 84 85 86 87 88 88 88 88 89 90 91 93 97 101 103 107 104 102 101 102 102 100 103 100 97 92 89 91 90 85 90 90 88 86 81 81 81 80 82 81
83 84 86 87 87 88 89 90 91 91 92 92 92 93 94 97 99 102 104 104 105 106 105 103 103 103 102 102 96 93 92 92 94 90 90 88 88 84 84 82 81 80 79
84 85 86 88 89 90 90 89 89 88 88 88 89 89 90 92 96 99 101 103 105 107 108 111 111 110 109 107 105 105 102 101 96 98 95 94 93 88 85 82 82 79 80
86 87 88 87 86 83 80 78 74 72 71 71 72 74 77 80 82 85 89 94 97 101 104 105 111 115 115 112 112 112 110 110 109 106 100 98 94 94 90 89 88 82 80
87 85 81 76 72 69 66 66 66 66 67 68 71 72 74 76 78 80 83 85 87 88 90 93 97 100 107 113 111 110 113 113 113 112 112 109 106 104 100 96 91 90 85
77 72 68 65 63 63 64 65 66 68 70 72 73 73 72 72 73 74 75 76 76 77 80 82 85 86 87 91 97 100 101 101 103 104 112 114 110 108 109 106 103 98 93
64 62 62 61 61 62 63 65 68 69 70 71 72 71 71 71 70 71 73 73 73 72 73 74 75 75 77 80 83 87 91 93 94 96 101 105 108 108 108 108 111 109 103
59 60 61 61 62 62 64 65 67 70 70 68 68 68 65 65 65 65 65 62 59 56 55 56 59 64 68 73 80 83 83 86 90 92 94 96 99 103 107 109 110 112 109
59 60 60 61 61 62 64 66 66 66 67 65 61 59 57 53 53 51 47 41 38 41 45 49 53 56 60 66 70 73 77 82 86 91 93 94 95 97 100 104 107 110 109
57 58 59 60 63 64 65 66 67 67 65 60 56 48 41 45 50 44 43 43 43 43 44 47 53 55 57 60 63 66 71 78 84 87 88 90 93 94 94 96 101 108 111
55 57 60 62 64 65 65 66 66 66 60 55 47 37 38 42 43 44 40 40 41 42 42 43 43 44 48 52 58 65 69 72 75 79 84 86 86 87 92 95 95 96 101
57 59 61 62 63 63 64 65 62 61 56 46 38 37 39 39 38 34 36 40 43 46 48 48 48 47 50 54 60 64 66 67 68 68 72 76 81 82 80 83 90 93 96
59 60 60 60 61 61 62 59 58 58 50 40 36 37 37 36 36 35 36 37 37 37 39 42 46 48 50 54 56 56 56 58 60 61 61 65 70 74 75 72 74 83 93
61 60 60 60 60 60 56 51 53 53 43 36 36 37 37 37 37 37 39 40 41 42 42 42 43 45 48 52 55 54 53 51 50 50 53 55 59 64 66 66 66 70 79
59 60 60 60 57 53 54 54 50 48 41 36 35 36 38 38 39 41 42 43 45 45 46 45 44 44 46 49 53 52 47 47 46 44 42 44 48 55 61 61 61 61 61
60 58 55 52 52 54 54 53 51 44 34 36 36 35 35 37 39 41 43 46 47 48 48 47 45 44 43 43 48 47 43 41 39 33 31 33 38 44 55 58 56 54 57
54 52 52 52 53 55 56 54 50 39 33 33 33 36 35 37 40 42 44 46 49 51 50 49 46 41 39 39 42 43 40 36 33 28 24 25 27 32 40 45 49 51 53
51 51 51 55 57 58 58 54 45 33 31 31 30 30 35 37 40 43 45 47 48 49 47 45 41 36 34 34 37 39 36 32 30 25 21 18 23 27 30 34 39 42 47
51 53 55 57 58 57 55 47 38 29 29 29 29 30 32 35 38 41 42 43 44 44 42 39 34 31 29 30 33 35 32 30 26 25 23 21 18 20 23 27 32 36 41
55 58 61 59 55 52 46 40 28 26 25 26 28 30 31 33 36 38 38 41 41 40 37 34 29 26 25 27 29 29 28 28 28 24 22 21 24 25 26 28 32 35 39
61 61 60 53 47 46 40 27 24 22 23 24 26 27 29 31 33 33 35 37 36 33 35 33 26 23 23 25 26 25 23 27 25 23 20 20 22 23 25 28 30 31 33
63 60 55 46 41 37 28 24 20 20 21 22 24 25 26 28 30 30 32 33 33 30 30 32 27 23 22 23 25 24 23 25 25 23 20 17 16 18 21 22 24 27 29
59 54 46 40 34 29 25 21 19 18 19 21 21 23 24 26 27 28 30 31 30 29 28 27 28 26 22 21 22 22 22 22 22 24 20 16 16 14 12 13 16 20 23
46 43 38 33 29 27 24 20 17 17 18 18 19 21 23 25 27 28 29 29 28 28 27 26 25 24 25 22 20 19 19 19 20 19 20 14 9 10 13 13 17 17 17

GFSGL_500_spd_036.txt.gz
Wind_Speed
77 78 78 77 76 77 77 78 79 81 82 82 83 83 84 86 87 88 91 93 94 94 95 97 95 93 90 93 87 89 91 93 95 89 84 82 81 76 74 76 77 75 74
80 82 83 83 83 83 84 85 85 85 85 85 86 87 88 89 89 90 91 92 93 95 97 98 98 100 101 98 98 93 93 93 97 101 94 89 84 79 80 75 79 79 79
81 82 81 80 82 83 84 86 87 88 89 89 90 90 91 92 93 94 94 94 94 94 95 97 98 99 101 102 103 103 103 101 99 102 102 96 91 89 86 83 79 80 84
79 79 80 82 84 85 86 88 89 90 90 91 92 93 93 92 92 92 92 92 92 93 94 97 99 99 101 102 102 103 104 105 102 100 103 104 102 94 93 90 87 83 80
80 81 82 83 85 87 88 89 91 92 92 90 87 83 80 78 77 78 78 79 80 82 83 86 89 92 97 101 104 103 103 103 105 107 104 101 99 100 94 88 88 89 89
81 81 83 85 87 88 89 89 85 80 75 72 69 69 68 69 71 73 75 76 77 79 80 80 82 84 85 88 92 98 102 106 106 106 108 107 103 101 99 95 95 91 86
81 83 85 87 87 86 79 74 69 66 64 64 65 66 67 68 69 69 70 71 71 71 71 72 73 75 77 79 81 84 87 90 95 100 105 104 107 108 108 104 102 104 96
84 85 85 84 78 70 65 62 61 60 61 63 63 64 64 67 68 69 69 70 68 68 69 69 69 68 69 70 70 71 73 77 81 84 89 92 96 99 103 109 111 110 108
83 81 75 69 64 60 59 59 60 60 61 61 62 64 66 67 69 69 68 67 66 66 67 67 65 63 61 62 61 64 67 69 72 75 77 80 83 87 92 97 104 109 113
75 67 62 60 59 59 59 59 59 59 60 62 64 65 66 66 67 64 62 61 59 57 55 52 49 42 38 41 43 45 47 51 54 58 64 72 77 80 83 88 91 97 102
61 58 58 58 58 59 58 59 60 62 64 64 64 65 66 64 59 57 53 50 49 46 44 44 43 45 45 44 45 46 47 49 52 54 57 61 66 71 76 81 88 92 95
55 55 56 56 56 56 58 60 62 64 65 65 65 64 63 57 55 49 46 45 45 41 37 37 40 42 44 45 48 48 49 51 51 52 52 54 59 66 73 79 84 89 93
53 54 55 55 56 58 60 62 64 65 65 65 63 60 53 54 48 43 42 44 44 44 42 38 37 41 44 46 49 49 51 53 55 56 58 60 64 67 70 75 80 85 90
53 54 56 56 58 60 62 63 63 63 64 62 59 54 53 51 43 41 41 41 39 40 41 42 42 42 44 44 45 47 49 52 55 58 60 62 64 65 65 68 71 77 84
54 56 57 58 60 63 63 62 61 62 60 57 57 56 53 44 39 39 39 39 39 40 40 40 41 43 45 46 47 48 49 51 54 59 62 63 62 61 60 59 61 66 72
57 58 60 62 64 61 60 60 59 56 55 57 60 57 52 42 37 38 39 40 40 42 43 43 44 46 47 47 48 49 51 51 53 58 59 59 56 53 53 52 52 54 57
58 61 64 62 59 60 58 54 51 51 57 59 59 56 51 38 36 37 38 40 42 45 46 46 47 48 50 51 51 51 49 47 48 53 56 53 50 46 45 44 42 44 46
62 61 60 61 60 58 53 52 53 53 55 58 59 55 47 36 35 36 37 40 43 46 47 47 50 51 52 51 48 43 41 39 42 49 51 46 42 37 39 33 33 36 38
61 62 63 62 59 52 52 52 52 55 57 57 56 51 37 33 33 33 35 38 41 43 44 46 48 47 47 44 38 33 32 33 38 43 42 39 35 30 32 24 23 27 31
65 65 61 58 51 51 52 52 54 57 57 53 46 41 31 29 31 33 34 37 39 39 40 43 43 43 41 37 30 26 27 31 35 35 36 35 32 28 27 23 17 20 24
59 57 53 51 51 53 54 53 56 57 52 46 42 30 27 27 29 30 33 34 35 34 36 37 38 38 38 30 25 24 26 28 31 29 33 33 30 25 24 23 18 14 15
60 59 58 56 56 56 57 57 58 53 47 43 31 25 24 25 26 28 30 31 31 32 33 33 34 34 35 29 25 26 26 28 28 29 31 32 28 23 20 20 23 21 19
62 59 58 61 61 61 62 59 54 49 43 31 25 23 23 23 24 25 26 28 29 30 31 32 32 31 31 32 28 26 25 26 26 27 28 31 28 21 17 18 18 20 23
66 65 65 64 63 61 58 54 50 43 35 26 23 21 21 22 21 22 24 25 27 29 29 29 30 30 29 28 29 27 26 25 24 26 26 27 27 19 18 17 15 14 15
62 60 57 55 53 50 47 46 40 34 28 25 22 20 19 19 18 20 23 24 26 29 30 29 28 28 28 27 26 26 27 26 25 25 24 24 24 16 13 12 12 11 9
65 61 56 49 44 40 37 34 31 28 27 24 20 18 18 17 17 20 22 24 26 28 30 30 29 28 27 27 26 25 24 24 24 24 23 21 21 19 17 16 13 12 12

GFSGL_500_spd_042.txt.gz
Wind_Speed
62 65 67 68 72 75 77 80 82 84 85 85 83 82 80 80 80 81 82 82 82 82 84 84 84 85 86 87 87 88 89 91 91 87 93 93 93 93 87 85 87 87 91
66 66 69 73 76 80 83 84 85 84 83 82 81 82 82 83 83 83 84 86 86 86 86 88 88 88 89 91 91 92 93 94 96 94 89 92 93 95 95 91 86 88 90
69 71 74 78 82 85 87 85 83 82 82 82 83 84 85 84 85 86 87 88 90 91 90 89 89 89 88 87 87 87 88 90 92 95 93 97 98 97 96 96 93 89 88
73 76 80 84 87 87 86 84 83 82 83 84 84 85 85 86 88 90 91 91 91 88 85 81 77 75 74 74 74 75 75 77 80 83 85 86 90 95 100 100 98 96 92
79 81 84 86 85 85 83 82 83 84 85 85 85 87 88 88 88 86 84 81 77 74 71 69 67 67 68 68 69 68 69 70 71 72 72 73 75 81 88 95 98 98 97
82 82 81 80 82 82 82 83 84 84 86 86 87 86 83 79 75 72 70 67 66 65 64 64 66 68 68 69 69 70 70 69 69 69 68 68 67 71 73 78 86 90 94
80 78 78 79 79 81 83 84 85 86 86 83 80 73 69 67 64 63 62 62 62 63 65 67 69 71 71 71 69 66 64 64 65 65 64 65 65 67 68 68 71 77 80
75 74 76 79 81 83 86 87 85 81 77 72 67 63 61 60 60 60 61 62 64 66 69 70 71 71 70 65 60 57 57 54 54 57 56 53 55 58 60 62 65 66 67
73 75 79 82 86 85 82 79 76 71 66 63 60 59 58 59 60 62 64 66 67 69 70 69 68 66 61 57 55 51 45 45 49 49 46 42 39 39 40 42 47 56 60
76 81 83 80 75 75 74 70 66 63 60 59 58 58 60 61 63 65 66 68 69 68 66 63 59 57 57 55 50 45 41 41 41 44 42 43 44 43 42 42 42 42 45
79 74 70 70 70 69 66 63 60 58 58 58 59 60 61 62 63 65 66 66 64 61 57 55 57 57 54 49 45 43 41 39 37 39 40 40 42 44 45 47 48 48 47
67 67 66 67 66 63 60 59 59 60 59 59 60 60 61 62 62 62 60 59 58 56 56 55 55 54 51 45 42 42 42 40 39 38 39 41 42 43 46 48 50 51 50
64 64 64 63 62 61 59 59 59 59 59 59 60 60 60 60 60 59 58 57 58 57 54 54 55 53 49 42 42 43 43 43 42 41 41 42 44 45 47 50 51 53 53
61 61 61 61 61 60 60 60 61 61 61 61 60 60 59 59 60 60 59 56 57 58 56 55 53 51 45 41 43 44 43 43 43 43 43 45 47 48 50 52 53 55 55
59 59 59 59 59 60 61 61 61 59 58 58 59 61 62 62 61 60 57 55 57 58 57 53 49 44 39 40 41 41 42 43 44 45 46 47 48 49 50 53 54 56 58
57 57 57 57 57 57 57 56 55 57 57 60 61 62 63 62 59 55 54 55 56 57 55 51 45 37 36 37 38 40 42 43 44 44 46 47 48 48 48 48 50 50 51
56 56 55 55 55 54 55 57 59 60 60 63 66 67 65 62 57 52 53 55 55 54 52 46 38 33 34 35 37 38 38 40 41 43 44 44 43 40 35 33 34 38 43
55 55 54 53 56 60 63 63 63 64 65 70 73 70 66 62 55 52 53 56 55 54 48 42 32 32 33 34 34 34 36 38 39 39 39 37 34 29 30 33 35 40 43
55 55 55 58 60 63 65 65 65 68 69 77 78 70 64 60 55 52 53 55 54 53 46 33 31 31 31 31 31 32 34 35 35 35 34 32 31 30 32 34 36 39 40
56 59 61 63 64 67 68 67 70 76 79 82 73 65 60 56 53 53 55 55 51 49 35 31 31 29 28 28 29 31 33 34 34 33 33 30 30 32 33 33 37 35 40
63 63 64 65 69 70 70 74 79 84 88 76 64 61 61 59 54 50 52 50 47 40 29 29 29 27 25 26 28 31 32 32 32 31 31 31 28 28 29 32 32 36 30
64 67 67 69 69 72 79 85 88 90 77 66 64 63 62 60 57 51 44 41 39 33 28 28 27 25 25 26 28 30 31 31 31 31 30 29 28 28 28 29 30 29 28
68 67 68 70 74 80 84 91 79 69 68 67 65 62 57 51 50 49 45 41 37 30 27 25 25 24 24 25 27 28 29 29 30 29 29 28 27 26 25 25 26 28 28
67 71 75 76 80 87 86 75 73 70 72 68 63 57 52 47 43 40 36 34 30 27 25 22 22 21 22 24 26 28 28 28 28 27 27 27 27 26 25 24 23 25 25
72 77 75 79 86 87 73 71 70 66 59 50 45 42 41 39 36 33 31 28 26 24 21 19 18 18 20 23 25 27 28 28 27 26 26 26 25 25 25 24 23 23 22
69 74 77 83 82 69 66 63 57 48 39 34 29 30 30 29 28 28 26 24 22 21 18 16 15 17 19 22 25 26 27 28 26 24 25 25 24 24 24 23 23 22 22

GFSGL_500_spd_045.txt.gz
Wind_Speed
56 58 61 62 60 64 65 67 69 75 79 82 85 88 91 91 91 90 86 84 84 84 84 84 85 86 86 87 87 88 89 92 93 84 87 86 85 84 81 83 86 89 91
61 63 63 62 66 67 69 72 76 81 84 86 89 91 92 88 87 86 86 86 88 89 91 92 92 92 92 91 90 88 87 87 89 90 86 90 92 90 88 85 83 84 86
62 61 63 68 69 71 75 78 81 84 87 91 93 91 89 85 85 87 90 92 95 95 93 91 87 84 81 79 77 77 77 76 76 76 72 74 78 82 86 86 86 87 87
61 65 69 70 71 75 79 82 86 88 91 92 91 89 86 86 89 93 95 93 89 85 80 78 76 73 72 71 70 69 69 68 68 69 68 67 70 70 73 76 77 79 83
66 70 72 73 76 78 83 86 89 91 89 87 85 85 87 90 90 88 86 83 79 74 71 69 68 67 67 66 67 67 68 68 69 68 68 68 68 69 71 71 72 71 71
71 73 74 76 78 82 86 89 89 85 84 84 86 88 86 83 83 82 77 72 69 66 63 63 64 65 66 67 68 69 70 70 68 67 64 63 62 62 65 67 70 72 68
73 72 75 78 81 83 86 85 82 82 84 87 84 80 80 79 76 72 68 64 62 61 62 63 64 66 68 69 69 69 68 66 62 58 54 55 54 55 55 57 61 64 65
71 74 77 80 80 81 80 79 81 84 82 77 77 77 76 73 68 65 63 62 61 62 63 64 66 68 70 68 66 64 60 58 56 54 53 50 49 48 47 48 48 49 51
74 75 77 79 78 77 78 81 83 76 74 74 74 73 70 66 63 63 63 62 63 63 64 66 67 66 64 62 60 58 56 56 54 52 48 46 46 47 46 45 42 39 36
72 75 76 76 77 80 80 75 72 71 72 73 72 69 66 64 63 63 63 64 64 64 63 63 63 62 62 60 60 59 56 54 50 45 44 44 43 43 44 45 41 41 40
74 75 76 77 79 76 70 69 70 72 72 70 68 66 64 63 63 63 64 64 64 63 61 61 62 62 61 60 60 60 57 53 47 43 41 41 40 41 41 42 43 40 39
75 75 77 77 70 66 67 69 70 71 70 68 65 63 62 62 63 62 62 62 63 62 62 63 62 62 61 61 61 59 56 52 47 42 41 40 40 41 42 42 42 42 42
74 76 73 66 65 66 67 68 68 68 66 64 63 62 62 63 61 60 61 63 64 64 63 64 62 61 59 59 59 58 55 51 43 41 41 42 43 43 44 44 44 44 44
73 68 63 63 64 65 66 66 65 65 62 61 60 60 61 61 62 63 64 64 67 67 65 62 60 58 58 59 56 53 50 44 41 41 42 43 43 44 45 45 45 46 45
61 60 62 63 64 64 63 62 62 60 58 57 58 61 64 65 65 63 63 68 71 71 67 61 57 57 56 56 53 49 42 39 39 40 40 41 43 44 44 45 46 47 47
59 59 62 62 63 63 61 60 57 56 57 60 63 63 66 67 64 63 66 72 76 72 64 58 54 57 55 54 49 42 38 37 37 38 38 39 40 41 41 42 43 41 38
59 60 61 62 62 60 58 57 58 58 60 62 63 66 68 65 66 69 72 77 79 66 59 54 53 54 54 51 43 36 36 36 35 34 35 36 37 38 38 36 32 29 28
59 60 61 61 60 59 59 59 61 63 64 65 67 69 68 69 72 77 81 81 75 57 54 52 52 53 51 47 36 35 34 33 32 32 33 34 34 35 34 32 30 30 31
60 60 60 60 60 59 61 63 65 67 67 67 68 68 71 75 79 83 83 79 65 54 51 49 50 50 46 38 34 32 31 30 31 30 31 31 32 31 31 31 29 31 30
60 60 60 59 58 59 62 66 69 71 72 71 73 75 76 81 86 83 76 66 60 56 53 50 46 42 42 34 31 30 30 30 30 30 31 31 30 30 29 29 28 29 29
57 58 60 59 60 64 68 70 73 75 74 77 79 81 84 91 84 70 63 58 57 54 51 48 42 36 36 32 28 28 28 28 28 30 31 31 30 29 29 28 28 28 28
59 61 63 62 65 68 68 73 76 76 79 81 84 86 92 88 75 69 61 57 55 51 46 42 36 34 31 28 26 25 26 25 27 29 30 31 29 28 27 28 27 27 28
59 63 66 67 71 68 69 73 75 77 81 87 90 91 81 76 72 67 61 58 54 47 41 37 32 31 28 25 23 23 24 24 26 28 29 29 28 27 27 27 26 25 26
63 66 69 68 69 69 69 71 76 81 85 90 81 75 70 66 61 55 49 44 41 37 35 31 28 26 24 21 20 20 22 23 24 26 26 27 26 26 26 27 26 25 24
67 67 70 70 65 65 68 74 78 84 84 71 66 63 58 51 40 35 31 29 30 29 29 28 24 21 20 18 17 18 19 20 21 23 24 24 23 24 25 25 26 25 24
68 70 69 62 65 70 74 78 80 70 61 56 53 49 39 31 23 20 19 21 23 24 25 23 20 19 17 15 14 15 17 19 20 22 23 23 23 23 24 24 24 24 24

GFSGL_500_spd_051.txt.gz
Wind_Speed
41 45 48 50 53 56 58 60 64 65 64 65 66 68 69 71 74 78 80 80 82 87 88 89 90 91 91 91 92 88 86 89 89 87 86 83 78 75 72 71 68 67 69
47 51 54 56 58 58 60 62 63 63 66 69 70 71 73 74 76 78 80 82 87 88 90 91 90 91 90 90 84 85 87 89 88 85 78 74 71 70 69 67 66 65 64
52 54 56 59 60 61 62 63 62 64 69 71 72 74 76 76 77 80 84 86 88 88 89 89 90 89 88 82 83 84 86 85 82 78 72 70 67 67 64 63 63 64 64
54 57 58 59 61 62 62 61 64 68 70 71 75 77 76 78 81 84 86 88 88 88 88 87 87 82 79 82 83 85 83 79 75 73 70 67 67 66 66 65 62 62 61
57 60 59 62 63 61 60 64 67 70 72 75 76 77 78 80 83 83 86 87 87 85 85 85 82 79 80 82 83 80 76 74 72 72 70 67 66 66 65 62 59 55 51
58 59 61 63 62 60 65 69 70 72 74 75 75 78 80 83 84 86 86 86 85 84 81 78 77 78 80 81 79 76 73 72 71 71 68 68 66 66 65 62 58 53 49
61 60 63 64 63 65 68 70 72 74 74 75 77 80 82 83 84 84 84 84 82 80 77 77 77 78 79 77 73 70 68 68 69 69 67 66 66 64 64 60 55 52 49
60 61 64 65 66 68 70 71 75 75 75 77 79 81 82 82 82 82 82 80 77 75 77 77 77 77 74 72 69 68 68 67 67 65 66 66 65 64 62 58 52 48 45
59 62 64 65 68 69 71 70 71 75 78 79 80 80 79 80 81 79 80 75 74 76 77 76 75 71 71 69 69 68 66 66 64 66 68 68 65 61 62 57 51 48 44
61 62 65 66 66 68 67 71 75 76 77 77 76 76 77 78 79 78 75 74 75 76 76 73 70 68 68 68 69 69 66 64 65 68 67 67 61 58 57 55 50 44 42
64 65 64 63 65 70 73 73 75 75 75 74 74 76 78 78 75 74 74 74 74 74 72 68 66 66 67 68 68 68 67 69 70 72 71 67 57 53 52 49 46 41 37
62 64 67 69 71 71 72 72 73 73 74 74 75 77 75 73 72 72 72 73 73 70 67 65 65 65 66 65 66 68 70 71 73 78 74 63 54 50 48 43 40 37 37
65 66 68 70 69 70 71 72 72 72 73 74 75 72 69 69 70 71 72 72 69 68 67 64 65 66 64 65 65 69 71 72 75 79 71 58 52 48 44 37 36 35 34
67 67 68 69 70 70 69 71 73 74 75 74 70 69 69 68 69 70 71 70 68 67 65 65 66 66 65 67 67 71 72 71 73 76 66 54 50 45 40 37 33 31 29
66 68 70 71 69 70 72 74 76 75 71 68 68 69 68 69 70 71 71 68 67 68 68 69 70 68 67 71 71 73 71 70 73 76 62 52 46 38 37 34 31 28 29
68 69 70 70 70 72 75 74 70 67 68 68 69 69 69 70 71 71 70 67 68 70 72 73 73 72 72 74 75 74 72 74 74 70 58 50 44 36 33 31 30 30 30
69 70 71 72 74 74 70 68 68 69 69 68 68 69 69 71 72 71 69 69 70 73 77 79 79 78 76 76 77 75 76 77 74 63 52 46 40 36 32 30 29 29 30
70 72 73 72 71 71 70 69 70 70 69 69 70 70 70 71 72 72 71 73 75 78 81 83 83 82 80 79 80 81 80 76 64 52 47 44 37 34 31 30 29 28 29
68 69 70 71 71 70 70 70 68 67 67 69 69 70 70 71 72 73 75 78 80 83 85 85 84 81 83 86 85 80 70 57 48 46 42 40 35 32 30 28 27 28 27
71 70 70 69 69 69 68 67 66 67 69 70 71 71 73 73 73 76 79 82 86 87 87 86 85 88 88 80 68 60 57 51 46 40 37 35 32 29 27 27 27 26 26
69 69 70 69 68 67 67 67 67 69 70 71 72 74 74 74 76 79 83 85 86 86 84 88 88 79 72 71 66 57 48 44 39 34 33 31 29 26 25 25 25 25 24
69 69 67 66 65 65 66 68 70 70 71 71 73 74 75 77 79 82 84 84 83 84 85 74 69 69 70 63 53 43 39 35 32 30 29 28 25 22 23 23 22 22 21
64 62 62 63 64 65 66 67 68 69 71 73 74 76 77 79 80 81 81 81 81 75 64 61 62 63 53 44 34 29 31 30 28 26 26 23 20 19 20 19 18 18 19
61 62 63 62 63 64 66 67 69 70 73 74 76 78 78 79 77 77 81 76 65 59 54 54 55 48 38 29 23 24 26 25 25 23 21 19 17 15 15 15 16 16 17
60 62 62 62 63 65 67 69 72 74 74 75 76 76 73 75 78 76 61 52 53 47 45 44 39 31 21 16 17 20 21 23 22 20 17 16 13 12 12 13 14 15 16
64 65 64 65 67 68 70 73 74 73 74 74 69 70 74 71 58 53 46 48 43 41 37 32 25 17 11 11 14 17 20 20 19 16 15 13 11 9 9 10 12 13 14

GFSGL_500_spd_054.txt.gz
Wind_Speed
42 43 44 44 45 46 48 51 54 56 58 60 62 65 66 68 70 71 74 77 80 82 82 83 84 87 89 92 93 93 93 94 94 92 86 86 87 89 89 89 88 82 76
44 44 46 47 48 49 52 55 56 57 59 62 65 67 69 70 71 73 76 79 82 83 85 84 86 89 92 92 92 93 93 94 91 86 85 88 88 89 88 85 81 75 73
47 48 49 51 53 55 56 58 59 61 62 65 67 68 69 70 72 74 77 80 83 83 84 87 89 91 91 91 90 91 90 87 86 87 88 89 88 88 84 79 76 73 69
52 52 53 53 55 59 61 62 63 63 64 66 67 67 70 72 74 76 79 81 82 84 87 90 90 91 89 88 89 87 84 85 86 87 87 85 84 82 80 79 73 71 68
56 58 57 57 59 62 62 62 62 64 66 66 66 69 73 76 78 79 80 81 83 87 89 89 89 89 87 87 85 82 83 85 85 85 83 81 79 77 77 75 74 71 66
59 60 61 60 61 62 62 63 65 65 66 68 68 70 75 78 79 81 82 83 87 89 90 89 87 87 86 83 79 81 83 84 83 83 81 78 76 75 71 71 71 69 64
60 61 62 64 60 62 63 64 64 65 69 68 68 74 77 79 81 83 84 88 89 89 87 86 86 83 80 78 79 81 81 80 79 81 77 77 73 71 71 71 71 70 65
62 63 63 60 60 59 61 62 65 68 69 67 72 75 78 80 83 86 89 88 87 85 84 85 82 78 76 77 78 77 77 77 76 76 74 74 74 73 75 75 77 71 63
60 62 61 60 59 61 61 65 68 67 66 69 72 77 80 82 86 89 86 84 83 82 83 82 77 75 77 77 76 75 74 73 75 73 74 75 74 76 78 75 76 68 60
63 62 61 61 61 61 62 68 63 65 67 71 76 77 81 86 87 84 83 81 81 82 80 76 74 75 75 74 73 73 72 71 72 73 73 73 75 77 76 76 77 67 60
60 60 59 61 61 64 64 64 65 69 72 74 78 82 82 82 82 82 81 81 81 78 75 74 73 74 73 72 72 71 71 73 72 74 72 72 74 76 75 75 75 65 56
59 61 61 62 64 67 67 68 70 73 77 79 80 80 79 78 79 80 81 81 77 74 72 71 71 72 72 71 71 71 71 74 75 77 74 73 74 76 73 74 72 61 50
59 60 63 65 65 67 69 73 75 76 77 78 78 77 76 77 78 79 78 75 74 73 71 69 70 70 70 70 71 72 74 76 79 79 78 75 74 77 72 73 68 57 43
62 64 65 66 67 70 72 73 75 77 77 75 74 75 77 77 77 75 73 72 73 72 70 70 70 70 71 72 74 75 77 79 81 82 80 76 75 73 73 73 62 50 38
65 67 68 69 70 70 71 73 73 73 73 74 75 78 78 75 72 72 72 71 71 71 70 70 71 71 72 74 76 78 80 82 85 84 80 75 75 76 75 68 53 43 38
66 67 67 68 69 70 70 70 72 73 74 76 76 75 72 71 71 71 70 69 68 70 71 71 72 74 74 76 80 82 84 87 87 84 78 78 79 76 66 52 45 38 36
67 68 70 70 69 69 70 72 74 75 75 74 72 71 70 71 70 69 68 68 70 72 73 75 75 76 79 82 84 87 89 88 85 82 81 81 74 60 48 40 39 35 34
69 68 68 69 69 71 73 74 73 72 73 73 72 72 71 69 68 67 68 70 70 72 74 75 77 80 83 86 89 91 89 88 86 85 79 68 54 45 40 37 36 32 31
66 67 69 69 70 70 72 73 73 73 73 73 72 70 67 67 67 68 69 70 71 73 76 79 82 84 87 89 90 88 87 87 81 70 62 58 54 48 40 35 32 30 29
66 67 69 70 71 73 74 75 75 74 72 70 68 67 67 67 67 68 70 72 74 77 81 83 86 88 91 90 87 86 81 71 69 66 62 54 45 40 36 31 28 26 26
69 70 70 71 71 73 74 74 73 71 68 66 65 66 66 66 68 70 73 76 78 81 84 86 89 89 88 86 80 71 68 66 63 57 46 37 33 31 28 26 25 24 24
68 69 70 71 73 72 71 70 68 66 64 63 64 64 66 69 71 75 77 80 83 85 86 86 85 84 79 66 63 62 62 58 50 40 29 27 26 25 23 22 21 21 20
65 66 69 70 69 67 64 62 62 62 64 65 66 67 69 72 75 78 81 83 84 83 82 80 72 62 58 55 54 55 52 40 30 22 21 22 21 21 20 19 18 18 17
63 65 65 63 63 63 62 63 66 67 68 68 69 71 74 76 78 81 82 81 79 77 73 61 55 54 48 45 45 43 32 22 17 17 19 18 19 17 17 16 15 15 15
61 61 61 63 65 66 68 67 67 68 69 70 72 75 77 78 78 79 77 76 73 63 59 49 48 42 40 35 34 29 20 14 13 15 16 17 17 16 15 14 13 11 10
63 65 68 68 68 68 68 69 71 71 72 74 75 76 75 75 73 70 71 65 56 51 40 42 39 36 34 30 27 22 13 11 13 14 16 16 15 14 13 12 10 9 8

GFSGL_500_spd_057.txt.gz
Wind_Speed
43 44 46 47 48 48 49 49 50 50 52 54 56 57 60 61 64 66 68 69 70 72 75 77 78 80 83 86 86 88 89 92 93 95 94 96 97 93 91 92 94 96 95
45 47 49 50 49 49 51 52 53 55 56 58 60 62 63 65 66 67 69 71 73 76 77 79 81 84 86 86 87 90 94 94 96 94 94 94 88 89 91 92 93 93 94
49 51 51 51 51 52 54 56 58 58 60 62 64 65 67 68 68 69 70 74 77 78 79 81 83 85 86 88 89 92 96 97 96 95 92 88 88 90 90 91 91 90 87
51 52 53 55 55 56 58 60 61 63 64 65 67 69 70 69 68 68 72 76 78 80 81 83 86 86 87 89 92 95 95 95 94 91 86 86 86 88 90 91 89 85 78
55 58 59 60 60 62 65 66 65 66 68 66 67 69 68 68 68 68 73 77 79 82 84 84 85 88 90 91 94 93 92 92 89 84 85 84 85 87 88 90 88 81 74
53 56 59 61 63 65 66 67 70 71 68 63 65 67 67 69 67 71 75 77 81 84 84 86 88 90 92 94 92 90 89 87 82 82 82 83 84 85 86 86 84 81 77
56 56 58 59 60 63 66 69 71 70 65 59 64 67 68 68 70 74 76 80 83 85 87 89 90 93 92 91 89 88 86 80 80 81 80 81 82 83 84 82 79 81 79
55 56 58 61 63 64 66 69 67 62 59 63 66 65 69 70 72 75 77 80 83 86 89 91 93 90 89 88 87 84 79 77 77 79 79 79 80 79 81 81 81 82 80
56 57 58 60 62 63 63 62 64 64 60 65 64 68 69 71 73 76 80 82 85 89 90 92 89 86 87 88 85 78 75 73 75 76 76 77 79 79 81 82 82 85 82
59 59 60 62 62 61 62 62 64 64 63 64 66 68 71 72 76 79 83 84 87 91 92 88 86 86 86 83 79 77 73 72 73 73 74 76 77 78 80 82 83 84 84
58 57 57 58 62 63 65 69 67 65 65 69 69 71 72 74 78 83 85 87 90 88 84 84 85 85 81 78 77 74 73 73 72 72 74 75 77 79 81 82 84 84 81
56 55 57 60 61 64 65 63 63 65 65 68 71 72 75 78 81 86 88 87 84 83 82 83 82 78 77 75 74 73 73 75 74 73 74 76 79 80 81 83 83 80 78
54 55 56 58 60 62 64 64 64 67 71 74 76 78 80 83 84 84 83 82 83 83 82 79 75 75 74 73 72 73 73 74 75 76 77 79 81 82 83 84 81 79 76
57 59 60 62 64 67 69 72 75 77 78 79 79 80 80 80 80 80 80 82 83 81 78 76 74 73 72 71 71 72 73 76 78 79 80 82 84 84 85 84 80 78 76
57 58 60 63 66 69 72 74 76 76 76 77 77 76 77 76 78 79 80 80 78 76 75 73 71 71 71 71 71 72 75 78 80 81 83 85 86 86 83 81 80 77 66
56 59 63 66 69 71 72 73 73 73 73 72 73 74 75 76 78 77 76 76 75 73 71 70 70 71 71 72 73 75 78 80 82 84 86 88 88 86 81 79 73 62 48
59 63 66 68 68 69 71 71 70 70 69 71 73 75 76 75 75 75 76 75 73 70 70 69 70 71 71 73 76 79 82 85 87 89 91 91 88 84 80 68 58 48 43
64 66 67 68 69 69 69 69 70 71 72 73 74 74 75 75 75 76 74 72 69 68 68 70 70 72 75 78 81 84 86 89 91 92 91 88 84 77 64 58 56 50 46
65 66 66 65 65 67 69 70 71 72 73 75 77 77 77 77 75 73 70 67 67 68 69 71 73 76 78 81 84 87 91 91 90 89 84 76 68 62 59 56 54 46 38
63 64 64 66 67 68 70 72 73 74 74 75 76 76 76 73 71 67 66 66 67 69 70 72 75 78 82 85 87 89 88 88 84 74 68 65 63 60 56 48 39 31 28
62 63 65 67 69 70 70 70 70 71 72 73 74 74 69 65 64 65 66 68 70 71 73 75 79 83 85 87 88 86 82 75 67 65 61 61 59 52 39 31 24 22 21
64 65 66 67 67 68 70 71 72 73 73 72 68 64 65 65 66 69 69 70 72 73 75 78 81 84 86 86 83 75 67 63 59 55 56 52 39 28 20 18 17 17 17
64 65 65 66 68 71 73 73 72 71 69 65 64 65 68 69 70 69 69 72 73 76 79 81 83 83 81 76 66 58 54 53 49 49 43 31 21 14 13 14 14 14 14
66 67 70 73 73 71 71 72 71 69 67 67 71 73 72 71 71 72 73 74 75 78 79 81 78 75 68 58 51 49 44 43 40 38 28 19 12 12 13 13 12 12 12
71 73 75 75 73 72 72 72 71 70 72 72 68 68 69 71 73 75 75 74 75 75 74 72 68 59 53 46 45 43 38 35 31 25 17 12 11 12 12 11 11 11 11
77 78 77 76 76 75 73 72 72 71 70 71 74 75 77 76 76 75 74 71 69 67 65 61 52 50 41 39 41 36 32 28 23 18 16 15 13 12 11 11 12 11 10

GFSGL_500_spd_060.txt.gz
Wind_Speed
42 42 42 42 44 45 46 48 51 52 52 53 55 56 57 56 58 59 62 64 66 66 67 70 74 76 76 77 77 78 79 81 84 86 90 92 94 95 98 98 93 89 94
45 44 46 46 46 48 50 52 53 54 56 56 57 58 58 60 63 66 68 68 65 65 68 72 76 79 79 80 81 80 81 83 87 90 91 92 95 98 98 94 87 91 91
46 47 48 49 49 50 52 55 56 57 57 59 60 62 64 67 69 69 68 64 65 67 73 75 77 79 81 83 83 82 84 87 90 92 93 95 95 97 93 89 88 89 90
47 49 50 51 53 54 56 57 57 59 61 63 65 67 70 71 70 70 66 67 66 71 74 76 77 80 82 85 85 84 87 89 91 94 94 93 95 93 88 89 88 86 87
48 49 51 53 55 56 58 61 63 65 66 67 68 70 68 70 73 70 69 65 68 74 74 76 79 82 84 84 85 87 90 91 95 94 92 94 90 86 88 88 87 85 85
47 48 51 54 56 57 59 61 64 66 68 70 71 71 73 74 73 68 65 67 71 73 74 78 81 83 84 84 87 89 90 94 95 91 92 90 84 85 86 85 85 84 86
49 50 52 53 54 57 61 65 67 69 68 68 70 72 74 76 65 62 65 68 71 74 78 81 82 84 85 87 89 90 91 93 89 91 89 83 84 84 83 83 83 83 84
47 47 50 53 57 62 66 67 65 66 68 70 72 72 75 65 63 63 68 72 74 78 80 82 82 85 87 89 90 92 89 88 89 89 84 83 82 81 81 81 80 81 80
51 53 54 55 57 59 63 64 66 66 69 70 75 71 63 59 60 67 72 75 77 79 80 81 84 86 88 90 93 88 86 85 85 82 82 81 78 79 80 80 82 82 81
58 60 62 62 61 62 63 65 64 68 72 66 60 61 61 59 65 72 74 76 78 78 79 81 82 85 89 91 87 87 85 81 80 79 78 78 76 77 79 81 82 83 84
64 61 60 61 61 61 61 61 63 66 64 61 59 58 60 64 70 76 77 76 75 78 79 79 84 88 86 84 85 84 81 79 78 78 75 74 74 76 78 81 82 84 85
60 59 58 57 57 57 55 61 62 64 63 62 63 66 69 70 70 72 73 75 76 76 79 83 84 83 82 82 81 79 79 79 78 77 76 75 75 77 80 82 83 84 86
57 56 56 54 52 55 58 61 64 65 65 65 66 67 67 69 70 71 75 79 81 82 81 82 82 82 81 80 78 78 77 76 76 77 76 76 77 79 82 84 86 88 88
56 56 54 54 55 57 58 60 61 63 65 67 68 68 69 71 76 80 81 82 81 81 81 81 81 80 79 79 76 75 74 75 75 76 77 78 79 81 85 88 90 90 89
55 55 55 56 57 58 59 61 64 67 69 71 74 77 78 79 80 80 78 78 78 79 79 78 79 79 79 78 75 73 73 74 76 77 79 81 83 86 88 91 92 90 87
54 55 56 57 58 59 62 64 67 70 73 74 76 78 79 78 77 76 76 77 76 76 78 78 78 78 75 73 71 70 72 74 76 78 81 83 86 90 92 92 90 85 78
51 51 53 55 58 61 64 68 71 73 75 76 75 74 73 73 75 75 74 75 77 79 79 77 76 73 71 69 69 71 73 77 79 81 84 87 91 93 93 89 83 74 64
53 55 58 61 63 66 68 70 71 72 72 71 71 71 72 72 74 76 77 78 77 77 77 77 75 71 69 69 71 74 75 78 81 84 88 91 94 92 85 76 69 65 61
61 62 64 67 69 70 71 71 70 70 69 69 70 71 73 76 76 75 77 78 78 79 76 71 69 68 71 73 75 75 77 81 84 88 91 93 88 80 69 64 61 61 59
67 67 66 67 68 66 66 66 67 68 69 71 73 75 76 76 77 78 78 78 75 70 68 68 70 72 75 75 76 78 80 84 88 89 89 82 72 63 60 60 60 54 43
66 64 63 64 64 64 65 67 69 70 72 73 74 75 75 75 74 75 75 74 72 71 71 72 76 76 75 77 79 80 82 85 87 84 74 63 58 57 56 56 43 31 20
59 60 62 63 65 67 69 70 71 72 74 74 75 75 74 73 72 72 72 72 71 73 74 72 71 72 75 77 80 80 82 83 78 66 57 54 51 50 48 37 23 13 10
59 61 64 66 67 68 68 70 72 73 74 77 78 77 75 74 74 75 73 72 72 69 68 71 74 78 79 78 77 77 75 70 59 53 49 46 44 41 30 19 11 8 8
61 62 64 65 67 69 70 71 73 76 78 79 79 79 79 76 73 70 69 68 69 72 75 76 76 74 72 71 72 70 62 54 47 45 43 40 34 26 16 11 11 10 8
62 64 65 66 68 71 74 77 79 80 81 80 82 81 79 76 74 73 74 75 75 74 75 75 70 69 68 64 63 55 49 44 39 41 37 32 24 17 16 14 12 12 9
63 66 69 72 75 79 81 82 83 84 84 84 81 77 75 73 73 74 76 77 77 73 70 67 63 59 57 55 47 45 43 37 38 37 33 28 23 19 18 15 15 13 11

GFSGL_500_spd_063.txt.gz
Wind_Speed
43 43 42 40 39 40 41 42 44 45 45 46 48 51 53 55 56 58 59 61 62 64 66 67 68 61 64 69 72 75 76 77 78 79 80 81 83 86 90 92 94 96 97
45 45 45 44 43 42 42 43 44 46 47 49 52 54 55 57 59 61 62 64 66 70 71 70 63 62 67 70 72 74 75 78 80 81 82 83 85 89 92 95 96 98 96
45 44 46 46 45 45 45 45 46 48 50 52 54 56 58 60 62 64 67 68 70 73 72 68 65 67 69 70 71 74 76 79 81 83 83 84 87 91 94 96 95 95 93
45 46 47 47 47 48 48 49 50 51 53 55 56 58 60 62 65 67 69 71 74 72 71 69 69 69 70 71 72 74 77 80 83 85 85 86 90 93 95 96 94 93 89
47 47 49 49 49 50 50 51 51 53 54 56 59 61 64 66 69 71 74 75 73 70 70 68 69 71 72 72 75 77 80 83 86 85 86 89 91 94 94 94 93 88 90
48 47 46 46 49 49 51 51 52 54 56 57 60 63 67 70 74 76 76 75 72 70 66 68 70 72 73 75 77 80 83 85 86 86 88 90 93 93 93 91 89 90 92
52 48 47 45 45 47 49 50 51 54 57 59 62 66 71 75 76 74 74 76 73 63 69 72 72 74 77 78 78 82 84 83 85 87 90 92 90 90 88 87 88 89 89
51 49 47 47 47 49 50 51 52 55 58 60 63 66 73 71 72 74 77 76 67 65 72 72 74 76 78 79 82 81 81 81 83 90 92 90 89 87 88 89 90 89 84
54 54 53 53 54 55 56 57 57 58 60 62 64 68 73 73 75 78 67 48 60 68 72 74 75 76 79 81 80 78 79 82 87 88 88 86 85 85 87 88 87 84 82
58 59 59 60 60 60 62 64 65 65 63 62 65 69 72 74 63 55 47 58 66 70 72 74 75 75 76 76 76 80 82 84 86 85 82 82 83 84 84 83 82 83 83
67 68 67 66 64 62 62 64 63 62 60 62 64 65 66 60 56 49 56 64 68 70 71 70 70 71 74 77 80 83 85 85 84 81 81 83 84 83 80 78 79 81 83
63 64 64 64 65 64 63 63 63 62 62 61 63 65 63 59 56 60 63 64 66 66 67 68 71 73 75 81 85 83 82 81 82 84 84 84 81 77 77 78 80 83 85
62 63 64 64 63 62 61 60 59 61 59 60 63 62 60 59 60 62 62 61 64 69 70 70 72 79 81 78 77 78 80 82 84 84 82 79 76 76 77 79 82 85 86
62 61 61 59 58 56 55 54 55 56 57 59 59 59 60 59 58 61 64 66 68 70 75 78 77 77 77 76 78 80 82 82 82 80 78 75 75 76 79 83 83 86 88
59 57 54 52 51 51 52 53 54 54 55 55 57 60 62 64 68 71 75 79 80 77 78 78 77 77 78 80 81 82 82 83 81 78 77 76 77 81 84 84 86 89 92
46 47 50 52 53 54 56 57 58 58 59 60 62 64 68 72 75 78 78 76 75 76 77 76 76 78 80 80 81 81 82 81 78 78 77 80 83 84 84 87 89 90 92
51 51 53 55 55 55 54 54 54 57 59 62 65 68 71 75 76 75 74 75 75 75 74 76 78 79 79 80 80 78 77 75 75 76 79 83 82 84 86 87 89 89 85
52 51 51 53 54 55 56 58 60 63 65 67 69 71 72 73 73 71 70 71 73 75 76 77 78 79 79 78 76 75 73 74 76 79 81 78 81 85 87 85 85 78 68
51 51 52 54 57 60 62 64 65 67 68 68 68 68 67 66 68 70 72 74 76 78 79 80 81 79 76 76 75 73 75 76 76 74 77 83 85 84 82 80 71 62 60
56 57 57 58 59 59 61 64 66 66 66 66 66 66 66 67 70 73 75 76 78 79 80 79 79 77 77 76 75 75 74 71 74 78 81 82 77 79 74 62 56 55 55
52 52 55 58 61 62 63 65 66 66 66 66 67 69 70 71 73 75 76 77 79 81 80 80 79 76 75 74 70 70 71 76 79 79 77 73 75 67 56 50 49 49 42
57 56 56 57 59 60 61 62 63 65 67 68 69 70 71 74 75 76 78 81 82 80 78 78 76 74 73 72 73 73 73 74 74 71 70 69 61 52 45 43 42 36 26
54 55 55 56 59 61 62 64 65 66 67 68 70 71 71 74 77 80 81 82 82 81 78 74 71 70 69 70 72 72 73 70 68 68 63 56 49 42 40 36 32 23 17
54 56 56 59 61 62 63 65 66 68 70 70 72 74 78 81 82 83 82 80 78 75 72 70 70 71 71 72 72 69 65 66 63 59 52 46 42 38 34 30 23 21 16
55 56 58 60 62 64 66 67 68 69 72 75 78 79 81 81 81 79 78 77 75 73 72 71 70 69 68 66 65 64 61 59 56 49 43 41 37 35 30 27 23 20 16
55 59 62 63 64 66 69 72 75 77 79 79 79 83 84 83 81 79 77 75 74 72 69 68 67 67 66 64 62 60 56 50 46 40 39 37 34 33 28 26 23 20 17

GFSGL_500_spd_069.txt.gz
Wind_Speed
47 48 50 52 51 48 46 46 45 46 45 46 46 47 48 49 49 49 48 49 49 50 52 54 56 59 63 65 66 66 70 71 72 75 77 77 78 79 81 81 79 80 79
49 49 49 48 48 48 49 49 49 49 48 47 46 46 46 46 47 47 48 48 49 50 53 56 59 62 65 67 68 70 72 74 76 77 78 79 80 82 82 80 80 79 80
52 51 52 51 53 55 56 55 54 52 49 48 47 48 49 50 51 50 49 49 50 51 53 56 60 63 66 68 71 73 74 77 77 78 79 81 82 82 81 81 81 79 81
50 47 45 49 53 54 55 53 51 50 48 48 49 49 50 51 50 50 50 52 53 55 57 59 63 66 67 71 73 74 77 82 78 78 80 81 82 81 82 81 80 80 80
50 50 47 46 49 52 52 52 52 52 52 52 51 51 52 52 53 54 55 57 58 58 60 62 64 66 69 73 76 78 82 79 79 79 80 81 80 82 81 81 79 76 78
54 53 54 52 52 53 55 54 55 56 56 56 55 54 53 54 55 56 58 59 60 61 63 65 68 69 73 76 77 81 74 78 79 80 80 80 79 79 80 78 77 78 82
56 54 53 54 54 55 57 58 57 57 56 55 52 51 52 53 55 58 60 61 63 64 66 68 70 70 74 78 81 77 75 76 79 78 77 76 78 77 74 75 80 81 84
58 55 53 52 52 52 53 54 54 54 51 50 50 52 53 56 57 60 61 64 66 67 69 69 70 73 75 80 77 85 80 77 77 77 75 75 74 72 76 80 79 84 84
55 54 53 50 49 49 51 51 53 54 55 56 58 59 60 62 62 63 65 67 68 69 69 71 71 75 77 76 76 77 79 76 76 76 72 69 71 76 77 79 81 84 85
57 57 57 56 55 54 54 55 57 58 58 59 59 61 62 63 63 64 66 67 67 68 68 68 71 70 70 83 79 76 73 74 73 67 67 71 73 75 80 79 82 84 87
64 63 63 63 61 60 59 58 59 59 59 59 60 61 62 63 63 64 65 65 65 66 69 69 61 60 73 75 74 69 71 68 65 68 69 71 77 78 75 77 80 84 88
66 66 64 63 64 63 64 64 65 65 65 64 62 62 62 62 63 64 65 64 66 69 66 65 67 68 67 66 66 63 63 65 68 69 75 77 75 73 75 78 82 85 88
57 56 56 56 57 60 64 67 67 67 67 67 65 64 65 67 67 67 66 68 71 69 65 61 60 59 56 57 60 62 65 68 73 74 72 72 73 76 80 83 85 85 87
56 57 52 51 52 56 57 60 61 59 59 61 62 64 63 61 59 62 64 62 58 56 56 54 53 55 58 59 61 66 70 68 69 71 72 76 77 78 81 83 85 87 86
52 49 50 54 56 57 63 63 60 58 56 56 55 55 54 52 54 58 59 61 60 57 55 53 55 57 63 66 65 61 66 69 72 73 75 76 77 80 82 83 86 86 85
60 62 64 66 59 63 64 62 58 57 54 55 57 56 58 60 58 55 52 53 55 58 61 64 66 67 67 67 67 67 67 68 69 71 73 76 79 81 83 83 84 82 82
58 56 55 53 53 55 56 59 59 58 59 60 59 57 55 59 62 64 63 60 60 64 64 65 68 69 68 67 67 68 69 70 71 74 77 80 82 83 84 81 79 78 77
57 57 55 56 53 54 55 59 60 60 62 66 65 61 60 61 62 60 61 58 57 60 61 61 64 65 66 67 68 70 72 73 75 79 81 82 82 82 80 77 76 74 74
54 56 57 58 56 59 64 67 69 68 66 60 56 52 49 52 53 54 55 55 56 57 58 59 60 63 66 67 69 72 75 77 80 83 83 82 80 77 77 75 74 73 73
52 57 54 56 61 61 64 64 59 53 49 47 48 48 50 52 53 54 55 56 58 59 61 61 62 64 66 69 73 75 78 81 83 82 81 78 77 76 74 73 72 71 69
54 54 54 57 57 51 50 48 48 50 50 52 53 53 55 54 53 53 55 56 57 58 60 62 65 69 72 74 76 78 80 81 82 82 79 77 76 75 73 71 70 68 66
49 51 51 49 47 47 49 51 52 52 54 53 53 51 51 52 53 54 55 57 59 61 65 68 70 72 74 77 78 80 81 81 81 80 77 76 74 73 71 69 67 65 63
43 45 46 48 49 53 56 54 52 50 49 49 50 51 52 54 55 57 59 61 64 67 69 72 76 78 80 81 82 82 83 83 80 77 75 73 71 69 67 65 63 62 58
45 50 53 58 59 52 49 47 47 48 49 50 51 53 54 56 60 63 66 68 70 72 76 79 81 84 85 85 85 84 84 81 77 75 73 69 66 64 62 60 58 55 52
58 56 53 50 47 46 46 46 47 49 50 53 56 59 62 66 70 72 74 75 78 81 83 86 89 91 90 88 85 82 78 75 72 69 67 65 63 61 59 55 52 49 44
43 43 43 43 44 45 47 48 51 53 57 61 65 69 71 74 77 79 81 84 87 89 91 93 92 88 84 80 78 76 73 70 67 65 63 59 57 55 52 50 46 42 40

GFSGL_500_spd_072.txt.gz
Wind_Speed
55 52 51 51 48 47 47 49 46 44 45 45 46 47 48 49 49 49 49 49 50 51 51 52 52 52 53 54 55 56 58 60 63 65 67 70 70 72 76 77 77 78 80
56 56 54 54 52 48 50 52 54 54 53 53 53 52 51 50 51 51 50 51 52 52 52 52 53 54 54 55 57 58 60 62 66 69 70 72 72 76 79 77 77 79 80
59 61 59 55 51 46 48 50 54 57 59 56 54 52 51 50 50 51 52 53 53 54 53 53 53 53 54 56 59 61 62 65 68 70 72 74 77 77 75 75 76 77 79
63 58 55 53 54 51 49 52 55 54 56 55 52 51 51 51 52 52 53 54 54 54 53 53 54 55 57 60 61 63 66 68 70 72 74 75 80 78 77 74 74 76 75
61 58 55 54 55 55 53 53 54 54 53 53 52 52 52 53 53 54 54 54 53 53 54 54 56 60 60 61 62 65 68 73 74 76 76 76 76 82 86 74 72 72 72
61 58 55 55 55 54 54 54 54 55 56 55 54 54 55 55 56 56 55 54 53 53 53 55 60 61 63 64 66 68 70 73 74 73 78 75 73 76 80 72 72 71 66
58 58 56 55 54 54 53 50 49 50 51 54 54 53 53 53 53 52 51 52 53 54 58 60 61 63 64 69 69 72 71 73 74 76 81 83 80 76 78 72 68 64 68
58 57 57 56 56 54 52 48 46 47 48 50 52 53 51 50 51 53 55 57 59 60 62 64 65 67 68 68 69 70 74 76 81 75 77 83 80 74 71 66 62 67 74
62 60 59 58 57 57 55 52 49 49 50 51 52 54 55 58 60 59 58 61 64 65 66 67 68 67 67 68 70 72 71 75 78 78 77 72 69 66 63 63 68 73 75
69 68 66 64 61 60 60 60 60 59 58 57 57 57 57 59 60 61 62 64 66 66 66 66 66 66 66 68 70 72 76 77 75 73 68 61 61 60 65 69 73 74 75
73 75 73 70 67 66 65 65 64 64 62 60 58 59 61 63 65 65 65 65 65 65 65 66 68 71 72 73 75 77 74 74 70 62 59 56 59 64 68 72 74 74 74
75 72 71 70 69 66 66 65 64 62 59 57 57 57 60 59 59 61 62 64 65 66 67 69 70 73 76 75 71 68 66 65 61 55 56 59 62 67 68 69 69 71 73
64 63 62 60 59 59 59 58 58 59 55 58 59 57 54 58 63 58 61 64 66 67 65 68 73 73 68 63 60 57 56 54 54 57 61 63 66 67 66 67 70 73 76
61 60 60 59 58 55 56 59 59 52 53 54 55 61 63 62 63 64 63 63 62 63 69 71 65 62 58 54 51 51 53 55 56 60 63 63 62 64 68 72 75 77 79
61 51 54 54 56 57 55 58 61 59 62 62 62 63 64 64 64 61 62 63 63 64 65 63 62 60 57 56 56 53 54 58 58 57 59 61 64 69 71 73 76 78 80
54 56 56 58 58 63 65 67 68 65 61 58 58 63 66 62 62 64 63 68 67 66 65 57 55 54 54 55 54 56 51 53 57 59 61 65 69 72 73 74 77 80 82
55 58 59 56 54 55 55 55 59 59 58 59 58 60 61 62 61 60 64 68 65 59 58 59 59 57 55 53 52 53 54 57 60 62 64 67 69 71 76 79 81 83 83
69 69 70 68 59 60 60 62 58 56 56 55 56 56 61 64 62 63 62 61 61 62 57 53 49 51 53 53 55 57 58 60 62 64 67 69 73 77 79 82 83 83 80
73 79 74 65 65 66 66 67 59 53 54 56 58 60 61 63 65 63 56 54 54 54 54 54 54 54 57 58 60 60 61 63 65 68 72 75 78 81 82 83 82 79 77
69 71 64 66 63 60 58 54 53 56 58 60 59 54 54 53 51 51 52 54 56 57 55 55 55 56 56 57 59 61 64 68 71 74 77 79 81 82 82 81 80 78 75
54 53 53 53 52 52 54 55 58 61 55 49 47 46 48 52 54 54 58 57 56 54 54 54 54 55 57 59 63 66 69 72 75 77 80 82 83 85 83 80 78 75 71
48 53 54 52 53 54 56 53 48 45 44 47 49 51 53 55 56 54 54 54 53 54 54 56 58 61 65 68 71 73 75 77 80 84 86 87 87 83 80 77 73 70 68
45 47 47 43 42 42 42 44 46 49 52 53 55 56 54 51 50 51 52 52 53 55 58 61 65 69 73 76 78 79 82 86 88 89 89 87 82 78 74 70 68 65 62
37 34 35 37 39 44 50 55 57 58 52 49 49 50 51 51 51 51 53 55 58 62 66 70 73 76 79 81 84 88 91 93 93 91 86 80 77 75 71 67 64 61 58
37 40 45 48 48 48 49 51 49 48 47 47 48 49 51 52 55 57 61 64 68 71 74 77 80 82 86 89 93 95 96 92 87 82 80 77 74 70 67 62 58 55 52
39 39 41 41 42 42 43 43 44 46 47 49 51 54 57 60 63 66 70 73 76 78 80 84 88 92 96 98 96 91 86 83 81 78 74 70 67 64 61 57 52 49 47

GFSGL_500_spd_075.txt.gz
Wind_Speed
58 58 59 57 54 50 48 47 49 50 48 51 55 56 57 55 55 54 54 54 55 55 56 55 55 55 55 54 55 56 57 57 58 56 59 61 63 65 66 68 70 70 70
60 59 56 54 53 51 51 53 53 51 51 53 55 58 60 59 59 58 57 55 55 55 56 56 55 58 59 58 58 58 59 60 59 60 62 63 64 67 68 70 72 72 69
58 57 56 56 57 57 58 55 52 53 56 56 59 60 58 56 56 55 55 53 52 53 55 55 57 58 59 59 59 60 60 59 59 62 64 66 67 67 69 69 72 70 71
58 58 57 57 57 58 58 58 56 58 58 57 59 59 59 57 55 54 54 54 54 54 55 57 57 57 57 59 58 58 59 57 61 63 64 65 67 68 69 71 68 69 73
55 54 54 56 57 58 57 57 57 55 54 53 55 58 58 57 56 55 55 56 56 57 57 58 58 57 56 57 59 59 59 61 61 62 65 69 69 70 72 76 77 73 72
60 59 57 56 55 54 55 55 54 54 52 52 53 54 54 54 53 53 53 53 53 52 53 53 52 53 54 56 58 62 60 61 64 65 69 74 76 73 77 73 79 78 75
62 61 59 57 56 55 53 53 54 54 53 52 52 52 53 54 54 53 53 53 52 51 52 53 54 55 56 58 59 60 62 63 65 68 71 76 75 78 77 77 74 76 71
65 65 64 62 60 59 57 56 56 56 55 54 53 51 50 52 53 54 55 55 55 56 57 58 56 56 59 62 63 62 63 65 66 67 71 76 79 80 78 74 71 66 62
70 69 66 67 67 65 65 63 61 61 61 62 60 58 56 57 58 60 60 60 61 61 62 61 62 62 64 65 63 63 64 67 68 74 77 78 80 78 75 70 62 60 57
65 66 71 70 68 64 63 62 62 66 71 70 66 65 63 62 61 60 61 61 61 62 64 64 65 64 65 65 67 70 72 72 74 76 79 81 75 71 67 60 57 58 59
67 63 61 65 67 66 66 68 65 64 66 71 71 69 66 62 59 58 55 51 51 50 50 53 57 60 61 63 65 69 72 75 78 81 80 70 66 62 59 56 56 59 62
70 72 68 60 60 63 63 64 62 61 65 65 64 62 56 54 49 47 49 51 52 56 58 59 60 62 63 67 71 73 75 78 81 74 66 61 60 53 54 55 57 62 64
76 78 73 67 65 61 58 59 55 55 64 62 58 56 56 57 56 53 52 56 58 61 61 63 66 66 66 67 67 73 79 78 69 60 58 54 51 53 55 58 60 60 63
69 68 65 66 71 69 61 62 61 57 59 57 56 57 54 53 57 61 62 60 61 64 66 68 69 69 68 70 76 76 69 63 58 51 50 53 54 57 59 58 58 60 63
65 63 59 59 59 60 61 62 54 48 47 51 55 58 59 61 64 67 63 60 58 62 66 67 66 63 66 66 69 63 55 52 52 51 52 54 55 56 57 59 62 64 67
67 65 63 63 58 59 55 48 45 47 49 52 53 54 55 59 61 62 61 61 64 64 64 64 63 63 65 62 55 56 53 53 55 52 53 56 57 58 60 62 65 68 70
68 69 68 61 64 62 61 52 49 53 56 58 64 64 58 61 63 59 57 60 64 58 55 57 59 57 56 54 52 52 52 54 56 54 55 56 57 59 62 65 69 72 75
82 74 64 61 66 68 67 67 66 59 58 59 64 66 61 62 63 61 59 55 54 55 55 55 53 53 55 56 56 56 55 54 53 53 54 57 60 63 66 70 72 76 79
69 70 73 67 76 77 71 68 56 54 52 52 53 58 55 53 54 55 57 58 57 57 56 55 54 52 50 52 55 54 52 53 54 56 58 61 65 68 71 75 78 80 82
47 50 50 52 54 52 49 44 46 48 50 51 54 55 55 57 55 55 56 52 47 47 49 50 52 53 54 53 53 54 55 57 58 60 64 68 71 75 78 81 82 85 88
48 45 47 47 40 43 43 49 47 50 54 54 56 54 47 44 44 43 44 46 48 53 56 56 56 53 52 52 53 55 57 61 64 68 71 75 78 80 82 85 88 90 89
47 47 39 40 43 48 44 44 47 48 46 44 41 39 38 40 44 48 50 51 52 53 52 52 53 53 55 56 59 61 65 69 72 75 77 80 82 85 88 89 89 87 83
35 36 37 37 37 39 38 39 39 38 36 36 39 43 45 46 47 47 46 46 48 51 53 54 55 57 59 62 66 69 73 76 79 81 84 88 92 94 94 89 85 80 76
32 32 35 37 35 33 32 33 35 39 45 46 43 41 42 42 43 44 46 49 51 52 54 58 61 64 68 71 74 77 80 84 88 91 95 97 97 94 87 81 78 75 71
33 34 34 32 32 34 37 39 40 41 42 42 43 43 43 45 47 49 51 53 56 58 62 65 69 73 76 78 82 86 89 93 97 100 99 95 88 81 75 70 65 61 57
32 31 33 36 37 38 39 42 44 44 44 44 45 45 47 49 51 54 58 61 64 67 71 74 77 80 84 87 91 95 99 99 96 89 80 72 66 60 53 47 44 43 43

GFSGL_500_spd_078.txt.gz
Wind_Speed
57 58 59 58 55 54 53 49 48 49 50 51 53 56 57 59 62 64 64 64 61 58 58 60 59 60 61 61 60 60 59 61 63 62 62 62 63 63 62 65 64 67 67
57 57 58 58 57 55 54 53 52 52 51 57 59 58 59 61 63 65 65 65 61 60 57 56 57 59 60 58 58 58 60 62 63 64 63 63 64 63 63 65 67 69 69
57 57 58 59 59 58 58 59 56 55 55 61 63 62 63 64 65 66 66 65 63 61 59 58 57 58 57 58 58 59 61 60 63 63 66 65 65 65 64 64 66 70 74
51 50 52 53 54 54 53 52 52 54 57 61 63 62 62 64 65 62 62 61 62 61 61 60 58 58 59 60 61 60 59 60 63 69 68 67 65 69 69 69 72 71 75
59 57 55 55 54 54 55 57 58 59 59 60 61 61 59 60 60 58 58 58 59 58 57 58 57 57 59 59 58 54 53 55 54 58 62 64 69 77 73 73 78 79 75
64 63 63 64 65 63 59 58 58 59 60 59 58 57 56 56 56 56 56 56 58 58 57 56 55 54 56 55 55 54 56 58 56 56 61 65 69 70 75 76 75 75 76
68 67 68 68 68 67 67 66 64 64 63 61 60 58 58 58 59 58 57 57 58 59 58 56 54 55 57 58 58 56 57 58 58 58 64 67 68 72 78 73 82 85 81
74 73 72 73 73 74 74 73 71 70 70 68 66 64 61 61 61 60 60 60 59 60 60 59 60 62 62 62 63 62 61 56 58 64 69 70 72 72 73 76 80 82 80
79 77 72 66 66 66 67 70 72 72 69 66 65 66 65 64 63 61 62 64 65 66 66 66 65 62 64 65 64 64 62 61 62 65 69 73 73 75 75 75 77 78 77
70 70 68 66 65 67 64 60 61 66 66 59 60 61 60 58 58 62 62 63 65 67 67 69 64 64 62 53 48 51 54 59 61 63 66 68 72 76 80 81 81 79 77
71 71 72 75 73 74 71 69 66 66 63 62 61 60 59 55 56 59 64 65 66 66 66 60 59 53 52 53 55 57 61 63 65 68 70 72 74 77 79 80 77 73 68
77 76 68 66 64 61 63 64 65 66 63 62 64 62 56 51 54 56 60 68 65 60 57 55 53 54 53 57 61 62 66 69 70 72 73 73 75 74 77 78 74 67 61
73 72 69 68 70 71 69 71 69 66 64 62 62 62 60 58 57 58 62 64 64 64 63 58 52 57 61 63 65 67 71 70 71 71 72 73 74 74 73 72 66 57 55
78 77 71 70 71 73 70 67 64 59 53 57 60 59 58 57 55 54 59 58 56 55 56 57 58 61 64 65 63 64 63 64 63 62 66 67 69 65 59 54 54 55 58
77 75 73 74 79 79 81 69 64 57 54 58 60 62 60 55 52 48 48 49 51 52 54 57 59 62 65 65 64 64 69 69 61 58 59 57 53 50 51 53 57 60 59
74 74 75 77 82 78 73 68 64 60 64 58 64 66 53 44 46 48 51 54 55 56 59 61 64 64 63 60 61 64 64 57 56 54 54 53 53 55 57 59 59 59 60
66 68 71 75 77 78 75 72 72 63 62 64 63 62 61 53 56 55 55 56 60 58 58 62 63 61 59 54 54 55 55 55 56 55 53 51 54 56 58 59 60 62 63
58 58 59 60 60 62 60 62 69 74 75 74 64 66 63 61 61 51 50 58 54 51 54 55 55 55 50 49 49 47 45 47 50 54 57 57 58 58 59 59 61 64 68
49 46 41 42 44 44 47 50 50 50 49 50 48 48 46 49 51 53 50 49 49 51 54 51 48 48 45 39 42 44 48 52 55 56 57 59 59 59 62 65 68 71 74
53 51 50 51 49 47 49 48 48 45 40 41 43 46 47 47 49 52 52 50 50 49 48 45 42 41 45 44 45 45 48 51 54 55 57 59 60 63 67 70 74 78 81
49 49 51 52 47 49 47 47 43 41 42 44 45 44 42 44 46 45 44 43 41 38 40 42 43 43 43 45 46 48 51 54 56 58 60 63 65 69 73 78 82 85 87
50 52 50 50 49 49 47 40 35 36 36 38 41 41 39 38 38 37 37 38 42 43 43 42 42 43 46 48 50 53 56 58 61 64 67 70 74 77 80 84 88 92 96
42 37 38 38 38 35 29 29 31 32 33 33 33 33 35 35 35 42 43 43 43 42 43 43 45 47 50 52 55 58 61 64 67 71 74 77 81 85 88 91 95 99 101
36 35 34 32 34 33 31 29 28 28 29 31 34 37 41 44 43 41 42 43 43 43 45 47 49 52 55 59 62 66 69 72 76 79 82 86 90 93 96 98 97 88 77
32 30 30 31 31 31 29 27 28 31 35 38 40 41 42 43 43 44 44 45 45 48 50 53 56 60 64 68 71 75 77 80 85 89 92 95 94 86 77 68 60 54 50
34 32 31 32 32 29 29 33 36 38 41 42 42 42 42 43 43 45 47 50 53 56 59 62 66 69 73 76 78 82 86 90 92 89 81 73 63 57 56 55 52 48 45

GFSGL_500_spd_081.txt.gz
Wind_Speed
56 57 56 56 56 56 55 55 56 55 55 54 53 53 53 54 57 62 64 66 68 69 71 73 72 70 68 66 60 60 62 63 61 63 62 60 59 59 66 69 67 67 67
58 58 58 60 61 62 63 61 59 57 57 56 56 55 55 55 59 64 69 72 68 66 69 71 71 71 68 65 63 61 61 62 62 61 57 58 61 63 63 68 73 77 72
55 57 58 59 60 62 64 66 65 65 63 62 61 57 57 58 60 63 67 69 69 69 67 66 66 65 62 62 62 62 62 63 63 63 61 63 61 62 64 68 72 70 71
57 57 57 57 57 57 57 58 59 59 59 59 59 59 59 61 64 66 67 68 68 66 64 63 63 62 59 58 60 61 61 61 62 61 61 60 58 60 67 69 63 68 74
62 62 63 64 64 63 61 61 61 62 63 64 65 66 66 67 67 68 70 71 69 66 63 61 61 62 62 61 59 58 59 61 60 58 57 56 58 59 59 63 66 68 68
69 69 69 67 67 69 70 71 71 70 69 68 68 68 66 66 68 68 67 67 68 69 68 64 62 62 63 63 61 60 60 60 59 59 57 57 61 58 60 64 68 73 73
76 78 79 78 77 77 77 78 77 77 76 76 77 76 74 73 73 72 72 72 72 72 71 67 63 62 64 64 64 63 62 62 62 62 61 62 63 65 67 66 67 71 73
81 80 79 79 79 79 78 76 75 73 74 75 75 77 76 73 72 69 71 74 74 73 72 73 71 66 65 67 68 70 71 69 65 62 62 64 67 65 62 64 68 69 71
80 78 76 74 72 70 70 70 68 65 64 65 65 66 68 68 69 66 65 65 67 68 68 70 69 65 66 67 67 69 70 70 71 68 67 63 61 60 62 64 66 70 71
79 77 76 75 73 71 68 67 69 70 69 71 73 74 71 69 69 66 67 61 61 63 62 64 65 67 66 66 68 70 71 65 68 67 59 62 59 61 65 68 73 75 74
75 75 75 74 73 73 71 70 69 69 73 70 68 65 66 72 74 73 69 65 62 59 62 60 61 65 64 64 67 56 54 53 55 59 61 62 61 64 68 70 73 73 72
80 80 80 80 80 78 76 76 75 72 67 70 66 66 67 65 65 69 70 71 69 63 65 63 64 63 64 64 64 63 64 62 59 59 61 64 65 67 70 70 70 70 69
87 86 86 85 84 83 83 81 80 78 72 69 72 72 72 77 72 66 62 61 61 62 65 70 64 54 60 57 52 49 50 52 56 58 60 62 63 64 64 63 65 65 65
79 79 78 78 77 78 78 77 76 76 73 72 68 69 75 72 73 62 59 64 57 59 62 62 56 49 48 48 51 53 55 57 58 61 63 66 64 62 62 59 58 58 58
76 76 76 75 74 72 71 70 69 69 70 71 69 72 75 73 62 57 56 62 60 65 66 52 48 49 51 53 55 55 57 60 64 65 61 58 55 55 55 54 54 53 53
69 68 70 70 69 68 66 66 65 65 64 63 62 65 58 58 57 59 58 66 61 66 53 50 52 53 55 58 60 61 63 60 59 60 59 54 52 51 50 48 49 50 53
67 65 64 63 63 63 62 60 60 58 56 55 52 49 48 48 49 59 63 63 57 60 57 59 57 55 57 62 60 56 53 53 52 52 50 48 46 44 44 48 54 54 56
61 61 61 60 59 57 56 53 49 47 47 45 42 43 44 46 49 49 47 51 55 53 49 49 50 49 46 45 48 50 52 50 47 43 42 44 46 48 49 51 53 56 58
59 58 58 57 56 55 53 52 51 51 51 50 48 46 45 41 40 39 38 43 41 39 41 39 43 45 43 44 46 46 45 41 43 44 46 48 48 50 52 54 57 60 64
56 55 52 52 51 51 51 50 50 52 53 52 49 45 44 42 41 41 38 36 36 38 39 41 42 42 40 40 40 41 45 46 46 48 48 49 51 53 56 59 62 66 69
54 52 49 48 44 45 48 48 46 45 44 45 47 45 42 41 37 34 33 34 35 35 35 35 35 35 38 41 45 47 48 48 49 50 52 53 55 57 60 63 67 71 75
50 47 45 42 41 44 44 39 37 35 35 38 38 36 32 30 28 28 29 30 33 34 34 35 40 42 43 45 47 48 48 49 52 54 55 57 60 64 67 71 74 78 82
46 45 42 39 38 38 38 33 35 33 31 32 29 26 25 26 28 29 30 31 35 40 41 41 41 43 45 47 48 49 51 53 56 59 62 65 69 72 75 79 83 87 90
40 37 36 36 34 32 29 27 26 27 26 25 24 25 27 30 33 36 38 40 40 41 42 44 45 46 47 48 50 54 57 61 64 68 72 75 78 80 84 88 88 86 83
25 24 31 33 33 32 30 28 28 27 26 25 27 31 34 36 38 40 41 41 42 44 45 46 47 50 53 56 59 62 66 69 73 75 78 82 84 83 82 79 68 61 62
25 29 33 33 31 31 30 29 27 27 28 31 35 37 39 40 40 41 43 44 46 47 50 52 56 59 62 64 67 70 73 77 80 82 80 78 72 64 61 61 57 54 54

GFSGL_500_spd_084.txt.gz
Wind_Speed
55 55 56 58 60 60 59 59 59 60 61 61 60 61 61 61 62 62 61 62 64 65 67 69 70 71 71 71 73 71 71 70 67 63 62 61 59 59 58 59 60 61 58
55 55 55 56 57 57 57 58 58 60 60 59 59 60 61 63 64 64 65 65 66 66 67 67 67 70 70 73 72 71 69 67 66 63 64 62 61 60 60 59 60 59 65
53 53 54 55 56 57 58 59 60 60 59 58 59 60 60 60 61 63 64 65 66 67 68 69 71 73 74 74 73 73 71 68 66 65 65 63 62 60 59 59 58 59 59
54 56 59 61 62 63 63 64 65 65 66 66 67 67 67 66 66 67 67 68 69 71 73 74 74 76 76 76 75 72 72 71 70 69 66 64 62 61 61 59 58 59 60
62 63 64 65 66 67 68 69 70 72 74 75 75 75 75 75 75 76 76 76 76 76 78 78 76 75 76 77 78 76 75 71 71 69 67 65 63 61 60 60 60 62 62
68 66 67 68 70 71 72 75 77 78 78 78 77 77 77 77 76 76 77 77 78 79 80 81 83 82 82 81 82 81 77 73 70 69 67 65 64 65 65 66 66 65 67
74 76 78 78 78 79 80 80 80 80 79 78 78 78 76 74 74 75 75 76 77 78 76 73 75 78 80 79 76 78 80 78 78 74 73 72 70 70 69 68 68 69 70
81 83 82 80 79 78 78 79 79 79 79 76 74 74 74 73 72 71 71 71 70 67 70 71 70 69 70 73 73 74 74 73 72 72 70 69 64 65 63 66 74 72 74
85 85 86 86 85 83 83 81 79 79 78 77 76 75 73 72 72 73 75 74 73 73 75 75 74 73 70 69 67 65 63 66 67 66 67 67 65 68 68 72 73 68 70
85 85 85 86 88 88 89 89 87 84 81 78 76 76 76 74 73 72 75 77 78 75 73 76 75 74 73 71 69 68 66 67 65 68 72 64 63 70 61 55 57 59 55
85 85 86 87 88 89 89 89 88 89 89 87 85 83 82 80 80 79 76 76 74 74 71 72 74 72 70 73 72 72 68 67 65 67 67 63 63 63 58 59 62 59 60
84 86 88 89 90 91 91 89 88 86 84 82 80 79 79 79 79 77 76 74 78 76 71 74 77 81 67 67 65 65 70 66 71 67 62 56 61 57 53 56 58 59 62
89 90 90 90 88 86 85 84 83 82 80 78 75 73 71 70 69 71 72 71 76 80 77 72 71 65 65 62 63 65 61 58 52 48 49 51 55 56 56 55 60 62 63
88 87 86 85 84 83 81 78 77 75 73 71 70 69 67 67 66 64 63 65 65 67 69 67 60 58 60 60 57 56 63 58 51 51 53 52 54 56 56 59 64 66 60
81 80 80 79 78 77 76 76 74 73 72 69 67 65 62 60 58 57 56 55 54 59 61 53 56 60 59 59 60 59 58 54 53 53 54 55 58 59 56 55 55 54 52
77 76 76 76 77 76 74 71 69 67 63 61 59 57 55 53 49 47 48 51 52 54 55 57 56 52 49 51 52 49 50 50 50 51 53 54 55 52 53 53 52 50 49
76 75 74 73 72 71 68 67 63 61 59 57 55 53 48 46 43 41 42 42 46 51 54 50 50 56 52 47 44 42 45 45 45 42 45 46 47 49 49 48 45 46 48
73 71 69 68 66 65 63 61 59 57 55 54 54 52 49 48 47 46 43 42 41 40 41 45 44 37 32 33 34 34 35 41 41 42 42 42 43 44 43 44 46 49 52
68 66 65 63 62 60 58 57 55 54 52 51 50 48 48 47 46 44 41 40 40 39 37 36 32 33 33 33 34 36 38 40 41 40 42 42 42 45 48 50 50 51 53
64 63 62 61 60 58 57 54 51 49 49 48 46 42 39 35 34 37 38 38 39 39 33 29 29 30 32 33 34 33 34 36 38 39 42 46 47 49 51 53 53 55 57
59 59 58 57 54 53 51 47 45 45 42 42 43 38 36 37 37 37 36 33 29 26 25 26 27 28 29 31 32 33 36 40 41 45 46 48 50 52 53 55 58 61 63
53 52 51 47 46 46 44 45 42 37 38 39 34 32 33 32 27 24 22 21 21 22 24 25 26 29 32 34 36 37 39 42 44 46 49 51 54 56 59 62 65 68 71
49 48 48 46 44 40 35 33 32 32 33 30 27 26 25 24 23 22 21 23 25 27 30 32 34 35 36 38 40 42 45 48 51 53 56 58 61 64 67 70 73 76 79
48 49 48 44 36 29 25 23 29 31 29 29 26 25 25 24 22 24 27 29 31 33 36 37 37 38 40 42 45 48 51 53 56 59 62 65 68 70 74 78 80 80 80
46 44 40 30 24 22 23 28 30 29 29 28 27 27 26 26 27 30 32 33 35 36 37 39 40 42 44 47 51 54 58 61 63 65 69 73 75 74 73 72 66 61 62
38 28 25 21 21 23 27 28 29 30 30 29 27 28 31 32 32 34 36 37 40 42 43 45 46 48 51 55 57 59 62 67 71 71 70 67 63 62 62 62 61 60 59

GFSGL_500_spd_087.txt.gz
Wind_Speed
52 53 54 55 55 57 59 59 60 62 63 63 62 63 63 63 64 62 61 61 60 60 60 61 62 67 69 71 73 74 75 75 75 72 75 74 72 71 69 68 66 62 61
54 55 55 54 55 56 56 55 56 56 58 58 59 60 60 60 62 63 63 64 65 66 67 68 67 68 69 71 73 74 76 77 80 80 79 78 74 72 72 72 70 68 66
54 53 53 52 51 52 53 55 57 59 61 64 65 67 68 70 71 71 72 72 73 74 75 76 77 79 80 81 81 82 83 83 84 85 81 80 76 75 76 74 72 69 68
55 55 54 54 55 56 59 61 63 65 66 66 68 70 71 72 74 76 78 78 79 79 79 80 81 83 85 86 88 88 89 88 87 87 86 84 81 80 78 75 74 71 68
56 56 59 61 63 65 66 68 70 71 73 74 75 76 76 77 78 78 79 79 77 77 76 77 80 82 84 87 89 89 91 91 91 91 91 89 86 81 76 74 75 73 71
65 67 68 70 72 73 75 76 78 78 78 79 80 81 82 83 83 83 83 82 78 77 75 74 77 81 82 84 86 87 87 87 86 85 81 80 76 75 71 71 73 69 68
67 69 72 74 76 77 78 79 79 80 81 80 81 82 83 84 86 85 83 83 81 79 77 75 74 75 76 76 77 75 74 75 76 76 75 77 74 74 69 67 63 66 70
72 74 76 76 78 78 79 79 80 81 81 83 84 84 84 84 85 85 85 84 82 81 79 78 76 75 77 78 79 78 78 79 78 77 74 71 72 66 62 63 67 65 65
78 80 81 82 82 82 84 86 88 89 90 89 89 89 88 87 88 87 87 86 85 84 83 82 81 78 78 78 77 78 77 75 74 72 72 69 68 67 66 66 67 61 63
81 83 84 85 90 92 93 94 95 95 94 94 93 93 93 93 89 85 82 80 79 78 78 80 81 81 80 79 78 78 75 71 70 73 76 69 70 69 73 65 65 66 65
82 84 86 88 90 93 94 95 97 97 97 95 93 89 87 86 84 82 80 77 75 73 73 73 74 76 76 75 75 76 70 75 76 70 62 60 53 61 64 65 67 64 63
82 85 86 87 89 90 91 91 91 90 89 87 86 85 83 80 78 75 74 73 71 70 69 69 68 67 69 71 74 78 74 76 66 59 57 60 61 63 58 56 55 56 52
81 83 86 88 89 89 89 89 89 88 87 85 83 80 77 76 74 72 71 69 68 67 65 63 62 63 63 63 65 67 62 56 56 57 53 53 52 50 53 53 56 60 55
85 87 88 88 87 86 86 86 85 83 81 79 77 74 71 69 66 65 63 62 58 55 55 54 55 56 58 56 55 56 56 53 54 53 55 54 56 58 54 54 54 55 53
87 87 86 85 84 84 83 82 81 79 78 75 72 67 64 61 58 56 54 53 51 48 46 46 48 49 51 53 54 54 51 44 46 51 52 49 49 49 50 51 51 49 47
85 83 82 82 81 82 81 79 78 75 71 68 65 62 59 56 53 51 50 49 48 45 43 43 43 43 44 44 47 44 43 43 37 37 37 39 40 39 37 40 42 42 42
82 81 81 81 81 79 77 75 70 68 65 61 59 57 56 53 52 51 49 47 46 46 45 43 42 41 41 39 39 37 34 38 36 31 33 36 35 35 35 37 38 39 40
81 81 81 78 77 74 72 70 67 63 60 58 56 55 54 53 52 49 45 42 40 37 38 39 37 33 31 33 33 30 31 28 29 29 31 32 33 35 37 37 37 38 39
77 75 74 73 70 67 65 62 60 58 56 54 53 52 49 47 47 44 41 38 36 34 35 37 37 34 34 32 28 26 27 27 29 30 32 32 33 34 36 38 41 44 47
73 72 70 66 62 59 57 54 53 51 50 48 47 43 40 37 39 41 35 33 35 37 36 34 32 31 28 25 25 25 26 27 28 29 31 34 37 39 41 43 45 48 50
68 65 62 58 54 52 50 49 48 47 45 42 38 37 34 37 37 31 30 31 31 31 30 28 23 21 21 21 21 23 27 28 31 32 35 37 38 41 44 46 50 53 57
62 59 56 53 50 49 48 46 43 41 39 36 32 30 33 33 29 26 26 27 26 24 21 20 19 21 23 25 27 29 31 33 34 36 37 40 43 46 50 54 58 61 64
57 55 51 49 48 48 47 45 42 36 32 26 23 28 30 29 27 25 26 26 24 22 22 23 23 26 28 29 31 32 34 36 39 41 44 47 50 54 58 61 63 67 71
54 51 49 48 49 49 46 42 36 29 24 22 27 30 30 30 29 27 27 27 25 25 26 27 28 31 32 34 36 37 39 42 44 48 51 54 57 60 64 66 67 66 63
52 49 50 51 49 43 40 34 27 25 25 24 27 29 30 31 31 30 30 31 29 29 30 31 34 37 38 39 41 42 44 48 51 53 55 60 64 64 62 59 53 47 44
46 46 48 41 31 27 25 22 23 25 27 27 30 31 33 34 33 34 35 34 33 33 35 37 40 41 42 42 44 47 50 53 55 59 63 62 58 52 47 42 42 44 45

GFSGL_500_spd_093.txt.gz
Wind_Speed
47 48 49 50 51 53 54 54 55 56 57 56 58 59 61 62 62 61 61 61 62 64 67 72 74 75 76 75 76 78 80 83 86 81 84 84 84 82 80 82 83 83 83
51 52 53 54 54 54 54 54 54 55 58 61 62 62 63 63 65 67 67 71 73 75 78 78 79 79 80 82 85 86 88 90 92 94 88 88 87 84 83 83 85 88 90
54 54 54 55 54 53 55 57 59 59 58 58 59 60 63 65 67 68 69 70 72 75 79 81 83 86 87 88 89 91 93 94 93 94 94 90 87 85 84 85 87 89 89
53 54 53 53 56 58 58 56 54 54 55 57 60 62 64 67 70 72 75 77 80 83 84 85 87 89 90 92 93 93 93 93 92 92 91 87 86 85 84 83 84 86 85
54 55 56 57 55 53 52 54 56 58 61 63 65 68 71 73 75 77 79 83 86 88 89 90 91 92 92 94 94 93 93 92 90 88 87 86 83 84 83 84 83 83 81
56 56 56 53 52 53 56 59 62 64 67 70 72 74 76 78 81 85 89 89 90 92 93 94 94 93 94 95 94 94 92 90 89 87 85 84 81 84 83 82 82 83 83
57 56 54 54 57 60 62 65 68 70 74 77 79 80 82 85 88 91 90 91 91 92 93 94 95 96 97 96 94 91 88 87 87 87 86 82 82 82 82 80 76 69 63
56 56 58 60 63 65 68 71 74 78 79 81 83 86 88 89 91 89 90 91 91 92 94 96 98 99 96 92 86 81 79 79 81 83 83 81 80 78 78 76 73 70 67
59 62 64 67 68 70 73 76 80 81 83 85 87 90 91 88 90 91 92 92 94 95 97 100 96 90 85 81 79 76 73 73 76 78 80 79 76 74 73 70 66 63 60
65 67 69 71 74 75 77 80 83 85 87 87 88 87 87 88 91 92 93 94 96 97 98 94 88 84 81 80 77 74 73 72 70 67 68 67 66 65 64 63 61 59 58
70 73 75 76 76 78 81 82 85 85 84 83 83 84 85 88 90 92 93 95 95 93 89 86 84 82 80 76 73 71 69 65 64 61 58 58 56 55 54 54 54 54 54
74 75 73 76 78 80 81 82 80 80 80 81 83 83 85 88 90 92 93 93 92 91 88 85 81 76 72 68 66 64 63 61 55 52 50 50 50 45 40 44 44 42 45
74 74 76 76 76 77 78 78 79 81 81 82 85 87 88 90 91 92 93 92 90 87 83 77 71 67 63 60 59 59 57 54 51 49 47 46 43 38 37 38 42 41 41
71 72 73 74 76 77 78 80 81 83 85 87 89 90 91 91 91 91 89 87 83 78 73 68 64 61 57 55 54 53 52 50 47 46 47 45 39 34 35 38 38 37 36
70 72 74 75 76 77 79 81 83 85 88 90 91 93 92 90 89 88 82 77 73 68 64 60 57 55 52 51 49 46 45 44 44 43 44 43 35 33 31 29 27 26 27
70 73 74 76 78 80 81 81 85 88 90 92 93 93 89 87 83 78 75 69 64 61 58 55 52 49 46 44 43 42 41 41 40 36 33 29 28 26 24 20 22 22 21
73 75 77 78 79 80 82 84 86 86 89 90 91 89 85 80 74 71 66 60 58 55 52 49 44 42 41 42 39 36 35 33 31 27 27 25 22 18 18 19 21 22 23
74 75 76 77 79 81 83 86 87 88 88 87 86 82 75 72 68 64 61 57 52 49 46 42 37 37 40 36 32 30 29 27 28 27 23 20 20 21 22 23 23 24 26
72 73 76 78 80 81 83 85 87 87 86 83 80 74 71 67 62 59 57 53 48 45 41 36 35 37 34 30 28 27 26 25 25 23 21 20 21 21 22 24 26 28 29
72 74 76 77 77 79 80 83 84 83 81 79 75 70 65 61 57 54 52 49 46 41 35 33 34 33 31 30 30 27 25 22 20 21 21 22 24 25 27 28 29 30 31
72 73 74 73 74 75 76 77 80 80 79 74 69 63 58 56 53 51 49 46 43 37 32 32 32 30 29 30 31 27 25 23 23 24 25 25 26 27 29 31 33 36 38
69 69 70 70 71 71 74 77 80 80 76 72 64 58 54 53 52 48 45 43 38 31 30 31 31 30 30 31 30 28 28 28 27 28 28 30 32 33 35 36 38 40 43
66 65 66 68 68 71 74 76 77 79 74 64 55 52 52 51 44 40 39 34 31 29 29 31 31 32 33 33 32 30 30 31 31 32 34 35 35 37 38 40 43 46 47
62 64 66 66 69 73 76 78 80 76 63 53 47 47 42 40 34 34 29 29 29 30 30 31 32 34 36 36 36 34 34 34 35 35 36 37 39 40 42 44 46 48 52
61 63 63 65 70 74 77 81 77 63 53 47 42 39 41 35 30 29 29 29 29 30 31 33 34 35 37 38 38 38 39 39 39 39 40 41 42 44 45 47 50 55 59
62 62 65 71 75 80 79 81 66 55 49 44 40 39 35 32 28 27 27 28 30 33 35 36 37 38 39 40 41 41 42 42 43 44 44 45 46 46 49 53 56 60 58

GFSGL_500_spd_096.txt.gz
Wind_Speed
42 43 44 46 47 49 50 51 52 53 53 52 52 54 58 60 60 58 57 57 59 61 64 66 69 72 74 77 79 81 84 87 89 77 83 85 86 87 87 88 89 88 88
45 45 47 49 49 50 51 53 53 53 53 55 59 58 57 54 53 54 57 60 63 65 67 69 71 74 79 81 83 84 86 88 91 91 85 89 92 92 92 90 89 88 89
45 47 49 50 52 54 54 52 52 55 58 58 56 52 51 53 56 59 62 65 68 71 73 75 79 82 84 85 87 88 89 90 92 94 93 92 93 93 92 90 87 86 85
50 51 52 52 53 52 52 55 56 57 57 54 52 53 56 59 61 64 68 70 71 73 77 80 84 88 90 90 91 92 92 92 93 95 95 95 95 93 92 89 86 85 85
56 55 53 54 54 54 55 56 56 55 53 54 56 59 62 65 69 72 72 73 75 80 84 87 89 89 90 92 93 93 92 94 95 96 95 94 90 85 82 81 82 81 80
55 54 54 54 54 54 55 55 54 55 56 59 62 65 69 73 76 77 78 80 83 87 88 88 89 90 90 91 91 92 94 95 95 94 91 86 80 76 73 73 73 75 76
54 54 55 54 54 55 56 57 57 59 62 65 69 73 75 79 80 82 85 87 88 87 88 89 90 90 90 91 91 92 93 93 92 89 84 81 78 74 72 69 70 71 69
55 53 52 55 56 57 58 60 62 64 67 71 75 77 80 82 85 88 90 90 89 88 90 90 91 92 93 94 94 95 95 93 91 87 82 77 73 69 68 66 65 64 63
52 55 57 57 58 59 61 64 66 69 73 76 79 82 84 87 90 92 90 89 88 89 89 92 94 94 95 96 97 96 92 89 86 79 75 69 66 65 64 62 59 56 54
56 58 57 58 60 62 65 69 72 75 78 79 81 84 87 90 89 88 87 89 89 91 92 94 95 96 96 97 96 92 87 81 75 70 65 62 59 58 56 54 52 49 43
57 57 59 60 63 68 71 76 78 79 79 81 83 85 87 85 85 86 88 90 92 93 93 93 95 95 95 92 87 83 78 73 67 63 60 56 53 50 47 46 46 43 41
59 60 62 68 70 75 76 78 80 82 83 83 83 82 82 84 85 86 89 92 95 94 93 94 94 91 86 81 77 72 68 64 60 56 54 51 48 46 43 41 39 38 37
63 67 69 74 75 76 77 80 81 81 81 80 81 82 82 84 87 90 92 93 93 94 93 92 88 83 77 71 67 63 59 56 54 50 48 47 45 41 38 37 32 31 30
70 71 72 73 74 75 75 76 77 78 79 82 82 82 83 85 89 91 91 91 92 92 90 85 79 73 66 62 58 55 52 49 47 45 43 42 39 35 32 30 29 28 25
71 72 72 71 70 71 72 74 76 79 81 81 83 84 86 86 88 90 91 91 90 88 83 76 71 65 59 56 52 48 44 42 41 38 37 34 31 28 25 21 20 19 18
67 67 68 68 69 70 73 76 78 78 80 82 84 85 85 87 89 90 90 88 85 80 75 68 63 58 53 50 45 41 39 39 35 32 29 25 23 22 19 18 16 15 15
66 66 66 68 71 73 75 75 75 77 79 81 84 85 88 89 91 90 87 83 78 73 66 60 56 52 48 43 38 37 37 33 30 28 26 23 22 21 19 17 19 19 19
65 66 69 71 72 73 74 76 78 78 78 79 83 85 87 89 89 87 84 79 73 66 60 54 50 46 42 38 35 34 32 29 27 26 25 25 22 20 20 20 20 20 21
68 70 71 71 72 73 74 75 76 78 80 81 82 84 86 87 86 83 79 73 67 59 54 50 46 42 38 34 34 31 27 25 26 25 24 22 21 20 21 22 22 23 24
70 72 71 71 72 73 74 75 77 79 80 80 81 83 86 85 83 79 73 65 59 54 52 49 45 39 33 31 31 28 26 27 28 27 26 25 24 23 24 24 25 26 27
69 70 70 70 71 72 74 76 77 76 76 77 78 81 84 82 81 75 65 56 53 53 48 42 39 35 30 29 28 28 27 28 29 29 28 28 28 27 28 29 30 31 33
68 68 68 69 70 72 74 73 72 73 74 74 76 81 83 86 78 63 55 51 48 44 37 35 32 29 28 28 28 29 29 29 30 30 30 32 33 33 33 33 34 36 36
66 66 67 68 70 70 70 70 69 71 71 73 78 84 86 82 65 54 48 44 44 36 34 27 29 29 27 28 29 31 32 33 33 33 33 33 35 36 36 37 38 38 39
65 66 67 68 67 68 68 67 68 69 71 76 80 84 84 72 56 48 42 41 36 33 31 31 31 29 29 30 30 32 34 35 34 35 36 38 39 39 40 41 41 41 42
64 65 67 66 66 66 66 66 68 68 72 76 80 84 77 60 52 45 39 38 35 32 31 32 32 31 30 31 33 34 35 36 38 39 39 39 40 41 42 43 42 44 45
64 65 65 65 65 65 65 65 67 69 72 78 81 80 65 56 50 43 38 36 36 33 30 29 30 32 33 35 36 38 39 39 40 41 41 42 42 43 44 44 45 47 50

GFSGL_500_spd_102.txt.gz
Wind_Speed
40 40 42 43 43 42 41 42 44 44 46 47 49 52 54 55 55 55 55 56 57 54 52 54 57 60 64 69 74 75 75 79 80 76 85 85 89 91 92 95 97 97 94
41 43 44 44 42 42 42 43 44 45 49 52 55 56 55 55 55 54 57 56 54 54 55 58 61 65 69 74 72 77 83 87 90 90 88 91 95 96 97 96 94 91 89
42 44 43 42 42 41 44 46 48 52 56 56 55 56 55 53 54 56 56 54 54 55 58 62 66 71 75 71 79 86 88 92 94 95 96 98 97 97 95 91 87 86 88
43 43 42 43 42 45 48 52 58 56 56 56 55 55 54 56 56 55 56 55 56 59 63 67 72 74 73 79 86 89 91 94 97 99 99 98 96 92 91 90 85 90 89
45 45 44 46 52 56 56 56 57 56 56 56 55 56 58 55 56 57 57 58 60 64 68 72 73 75 83 86 88 91 94 97 98 97 96 95 93 91 93 93 93 89 86
44 46 54 59 55 55 55 55 55 56 56 57 58 59 53 56 58 57 59 60 63 68 71 73 76 82 86 87 90 95 97 97 97 95 94 94 92 95 94 94 91 86 78
55 58 57 56 56 55 56 56 57 58 59 59 61 55 56 57 58 60 62 64 68 72 74 76 82 87 89 90 94 95 95 94 95 95 93 94 94 95 93 88 82 76 70
61 63 60 60 59 58 58 58 58 60 59 56 56 58 59 60 63 65 66 69 75 76 78 83 86 89 92 93 94 93 92 92 93 93 94 95 94 91 88 80 73 65 60
61 60 58 57 58 59 58 59 58 57 56 59 59 61 62 65 67 67 70 77 78 79 83 86 89 90 91 92 91 89 89 90 91 93 93 91 89 85 78 69 61 55 50
59 58 58 58 58 60 59 58 56 56 60 61 62 63 65 66 68 72 77 78 80 84 86 87 88 89 91 89 89 89 88 89 90 91 90 86 81 74 65 58 52 47 39
57 57 56 59 59 57 56 55 56 60 63 62 64 64 66 68 74 78 78 81 85 86 87 86 88 90 88 90 90 89 90 90 90 89 84 79 70 61 55 49 44 34 30
58 57 56 53 54 54 56 56 59 62 63 64 66 67 71 75 78 81 83 86 87 88 87 88 88 88 89 88 88 89 90 90 89 83 76 67 57 51 47 42 35 30 29
53 53 54 54 53 55 56 59 61 63 65 66 69 75 77 80 84 84 85 86 86 85 86 87 86 87 87 87 87 88 88 88 84 76 66 55 48 44 40 34 29 29 28
51 54 53 53 54 58 61 62 63 65 67 71 75 77 80 83 84 84 85 84 83 84 86 85 86 86 86 87 88 89 87 84 76 67 56 48 43 38 34 28 27 29 27
52 53 54 56 58 59 60 63 67 71 73 75 79 82 83 84 83 83 82 82 83 85 85 85 84 85 86 87 89 87 84 77 67 56 48 42 38 33 28 25 26 27 27
52 52 55 56 58 62 65 67 69 73 77 82 84 82 81 81 80 82 83 84 84 83 83 83 83 84 86 87 86 82 76 69 59 51 44 38 32 28 26 24 23 23 23
54 56 58 61 63 65 68 72 74 78 83 85 82 81 80 80 81 83 83 81 81 81 81 82 83 84 85 84 80 76 68 61 53 44 38 31 28 26 24 22 20 20 21
60 63 64 65 66 69 73 77 80 81 81 79 78 78 79 80 81 80 78 78 78 79 80 81 81 82 81 78 75 68 61 56 48 37 33 26 26 25 22 20 20 22 24
64 66 67 67 70 72 74 76 76 75 76 76 77 78 79 78 76 74 74 75 76 76 77 78 79 77 75 74 71 63 57 52 41 35 28 26 24 23 21 20 22 24 25
66 68 70 71 73 73 73 73 74 74 74 76 77 77 77 74 73 73 73 74 74 75 76 75 74 74 73 72 71 60 52 46 42 34 28 29 26 24 24 23 24 26 27
71 72 72 72 72 72 72 73 73 74 75 75 74 74 73 72 72 72 73 72 73 72 72 71 72 72 73 75 71 55 45 42 37 31 30 30 30 29 28 27 27 28 30
69 69 69 70 72 72 73 74 74 74 74 72 71 69 69 70 71 72 72 72 72 71 71 70 70 72 76 79 64 50 41 40 34 32 31 31 32 31 29 29 30 31 33
69 70 72 73 73 73 73 73 72 71 69 67 66 67 67 69 69 69 69 68 68 68 69 70 72 75 78 77 55 46 41 37 33 33 34 34 33 32 31 32 33 36 38
72 72 72 72 73 72 72 70 67 64 62 62 64 65 66 66 67 67 65 65 66 69 69 70 73 78 83 62 47 43 41 38 35 36 36 36 34 34 35 37 39 41 42
68 68 68 68 68 68 67 64 61 60 61 62 62 62 64 66 65 63 63 65 66 67 70 72 77 80 63 50 45 43 42 41 38 37 36 37 37 38 39 40 41 42 42
69 69 67 66 65 64 62 61 60 59 59 60 61 64 64 62 63 63 64 65 65 69 71 75 78 69 58 52 45 42 42 42 40 40 39 40 41 42 42 44 44 44 43

GFSGL_500_spd_105.txt.gz
Wind_Speed
44 45 44 43 44 45 46 47 46 44 42 43 44 46 49 52 57 59 61 61 59 57 58 60 56 56 57 59 62 66 69 68 67 71 76 78 84 89 92 97 100 101 99
46 46 45 46 45 48 48 46 43 42 44 44 47 52 54 57 59 61 60 60 58 59 59 58 58 59 59 63 66 69 69 72 77 79 85 90 93 96 99 99 99 97 92
47 47 47 48 49 51 48 45 43 43 45 48 53 58 58 59 60 59 60 59 60 59 59 59 59 59 63 66 69 71 73 79 85 89 91 95 98 100 100 98 96 91 89
47 48 49 50 51 49 45 44 44 46 52 55 56 58 59 59 59 60 61 61 61 59 61 60 60 64 67 70 74 75 79 84 88 92 96 98 101 100 100 96 88 87 88
47 49 49 49 48 46 44 45 50 54 54 56 59 60 60 61 63 62 62 64 60 60 62 63 65 68 71 75 76 81 85 89 93 96 100 101 101 98 95 91 91 91 91
49 48 49 49 46 44 48 53 56 58 61 61 63 64 61 63 63 64 63 59 61 63 64 67 69 71 75 79 81 87 91 94 98 101 101 99 97 95 92 93 94 95 91
48 45 43 44 47 52 57 61 62 64 64 66 64 62 63 63 63 60 59 61 64 65 65 67 70 75 78 80 85 90 95 98 100 100 97 96 94 92 92 93 94 92 86
48 49 52 57 60 62 64 65 63 65 65 63 63 64 64 63 60 59 61 63 65 65 67 69 73 79 83 85 89 94 95 98 97 95 95 94 92 92 93 94 91 84 73
58 58 61 63 65 66 66 69 68 65 65 64 65 66 62 62 61 61 63 65 66 69 71 76 79 83 87 90 92 95 95 94 94 95 95 92 91 92 92 89 81 68 55
59 63 67 67 68 68 64 63 65 66 65 64 62 62 64 64 62 63 65 66 70 71 77 80 83 86 89 90 92 92 91 91 92 93 91 90 91 91 88 81 67 55 48
67 68 69 67 64 62 61 64 66 66 63 57 63 63 63 62 63 66 68 70 72 77 80 85 88 89 88 88 88 88 89 90 91 91 88 88 90 88 81 70 55 47 42
65 66 64 63 64 66 68 68 64 59 56 63 62 61 60 62 66 68 70 74 78 80 84 88 87 88 87 87 87 89 91 92 90 87 88 87 85 80 71 56 47 40 35
62 64 66 68 68 68 63 59 58 56 63 59 58 60 64 67 68 71 75 78 82 87 89 86 85 85 85 86 87 89 89 87 86 86 87 83 76 69 57 48 42 36 32
60 60 61 59 56 53 53 54 55 61 56 57 61 64 67 69 73 76 78 83 86 86 85 82 83 84 85 86 87 86 85 84 84 85 83 76 69 60 50 43 37 33 31
50 50 50 51 52 51 51 55 54 57 59 62 65 67 70 74 77 81 84 84 85 85 81 80 82 84 84 84 83 82 82 82 82 83 78 69 64 54 45 38 34 32 29
50 51 51 51 51 51 51 55 58 61 64 66 69 71 74 78 83 85 85 83 82 80 79 81 82 81 80 79 78 78 78 80 79 77 72 66 60 51 40 33 31 29 26
52 52 52 52 52 52 54 59 62 65 67 69 71 75 80 83 86 86 84 81 80 80 81 80 78 76 76 75 74 75 74 75 75 71 71 65 57 47 37 29 28 26 23
53 54 54 55 57 58 63 65 66 69 71 74 77 80 83 85 86 82 80 79 80 80 78 75 74 72 71 71 72 72 72 72 72 70 73 61 52 44 34 29 28 26 24
59 59 60 60 62 64 67 68 70 73 77 78 81 84 85 83 79 78 78 78 77 75 72 71 70 69 70 69 68 69 70 70 70 71 72 55 49 45 34 31 29 27 27
60 61 61 63 64 65 68 71 74 77 80 83 81 78 76 75 76 76 75 74 71 69 68 66 66 67 67 65 67 69 68 70 71 76 67 48 45 43 35 33 32 29 26
63 64 65 67 69 71 72 74 76 76 75 74 75 75 75 76 75 73 70 66 65 65 65 65 66 65 63 64 67 69 69 70 75 74 56 42 42 40 37 35 34 32 32
69 70 71 72 73 73 73 73 73 73 74 74 75 75 74 74 71 66 62 62 62 64 63 63 64 63 62 63 67 68 69 71 77 65 50 40 39 37 35 36 37 36 34
73 73 73 72 72 72 71 72 73 73 73 72 72 71 69 65 61 59 60 61 62 62 62 62 60 61 62 64 67 68 69 75 70 59 52 42 38 40 39 38 38 38 37
78 76 73 74 73 71 72 72 70 68 68 67 66 63 62 59 59 59 60 60 60 60 63 61 60 59 60 63 65 69 69 73 64 56 49 43 40 40 41 43 42 41 41
76 75 74 73 73 71 71 71 71 69 67 66 65 64 58 56 58 58 58 58 59 60 62 60 59 60 62 65 66 69 72 66 58 52 46 42 40 41 41 42 43 43 43
73 74 73 72 70 71 71 71 71 70 70 69 66 60 58 57 58 57 58 60 62 61 60 57 58 61 63 67 67 73 71 61 56 50 45 42 40 42 43 43 43 43 44

GFSGL_500_spd_108.txt.gz
Wind_Speed
47 47 45 44 44 44 45 46 48 50 51 52 51 47 45 45 47 50 53 56 60 62 63 63 63 64 64 64 60 60 60 63 66 69 70 69 73 76 83 90 95 99 102
49 47 46 46 45 47 48 50 51 52 53 51 46 44 46 46 49 54 56 59 62 64 64 63 66 65 65 61 59 59 61 66 69 70 72 76 79 84 90 94 99 103 104
48 49 49 49 49 50 51 52 53 54 50 46 45 46 45 50 53 58 61 62 65 66 65 66 66 65 59 60 60 61 64 66 71 74 77 80 84 90 92 97 101 102 101
50 51 51 51 51 52 53 54 53 50 46 46 46 46 51 55 59 61 64 66 68 64 66 66 65 60 60 62 61 63 66 70 75 78 80 85 90 95 100 101 98 99 97
50 51 51 53 54 54 53 51 49 48 48 47 48 52 56 61 64 64 66 67 65 67 66 66 61 60 62 63 63 66 70 74 77 81 87 91 97 99 102 102 101 97 92
50 51 52 52 54 54 53 51 50 48 47 51 55 59 64 67 66 68 66 65 67 66 66 65 61 61 63 65 67 71 75 78 82 86 92 96 100 102 98 98 97 94 89
49 50 52 52 51 51 49 49 48 50 53 57 60 65 67 67 73 69 67 66 67 68 65 63 61 62 64 67 71 76 80 85 87 92 97 99 99 97 97 95 95 93 94
51 51 52 53 50 50 51 52 55 58 61 64 67 66 69 73 71 68 66 67 68 64 65 62 62 65 68 70 75 79 85 89 94 98 100 98 95 95 95 95 91 92 92
55 50 48 50 54 55 55 60 62 63 66 69 68 73 72 70 69 67 68 66 63 62 61 61 65 68 71 76 79 84 89 95 96 96 93 93 93 95 94 90 90 88 80
55 56 58 60 63 64 66 68 68 70 72 72 72 70 69 69 69 67 66 59 61 61 62 66 68 72 76 80 83 88 93 96 93 91 90 91 93 93 91 89 88 81 72
62 63 62 62 65 67 68 69 72 73 73 70 69 70 69 66 64 63 60 60 60 62 66 70 73 77 80 84 89 93 94 93 89 88 88 90 91 89 87 86 82 74 65
63 65 67 67 65 65 66 68 68 68 69 70 73 69 58 62 61 59 58 59 61 66 70 73 77 80 85 89 92 92 89 86 84 85 87 88 86 86 84 82 75 66 57
64 64 65 65 65 66 66 66 68 70 73 73 60 54 59 58 58 57 58 61 66 69 74 77 81 85 88 90 90 86 83 83 82 83 84 82 82 81 79 76 71 63 54
57 60 64 66 67 68 69 70 70 66 59 54 52 58 58 56 54 57 63 67 69 74 76 80 85 87 88 85 80 81 81 80 81 82 79 78 79 77 75 73 70 60 52
53 55 56 56 57 59 59 56 55 55 55 53 53 55 56 57 62 65 68 72 75 77 80 84 86 85 80 77 79 80 78 78 77 76 74 74 73 72 69 70 65 53 48
52 52 53 54 55 55 56 55 54 52 54 54 55 60 62 65 67 70 73 75 77 81 83 84 82 78 75 77 76 73 74 74 71 71 71 72 70 69 68 70 62 49 44
54 53 54 55 56 56 56 56 55 56 54 56 61 64 67 69 71 74 75 78 82 83 83 82 77 75 75 74 71 71 69 68 67 67 69 69 68 68 68 70 57 45 44
52 51 52 54 56 56 56 57 58 57 58 63 66 67 70 73 75 78 81 82 83 83 82 77 76 75 73 70 67 67 67 66 65 66 65 66 68 67 70 67 51 41 41
59 59 59 58 59 61 61 60 60 60 64 67 68 70 72 77 81 82 83 83 83 79 75 74 73 73 69 66 65 64 63 62 64 64 63 65 66 66 71 61 48 38 38
61 60 59 59 60 61 61 62 63 65 67 69 71 75 78 81 82 83 86 82 77 75 75 73 71 68 64 62 62 62 60 60 62 61 64 63 65 68 70 59 49 39 36
67 64 63 64 65 65 66 68 70 72 73 74 75 77 78 81 83 80 78 76 75 75 73 70 66 64 62 61 60 59 58 60 60 61 63 63 66 71 66 58 48 40 37
72 72 72 71 71 72 72 74 76 76 75 75 77 78 78 78 79 77 76 76 75 70 65 65 64 62 60 59 57 56 58 59 61 61 64 63 66 71 62 56 49 42 40
76 76 77 77 77 75 74 74 75 75 75 75 76 76 77 76 75 74 71 69 67 66 65 66 63 61 59 58 58 60 60 59 61 63 64 65 70 69 59 55 49 43 42
83 82 80 80 78 77 76 74 74 74 74 74 74 76 75 73 71 69 67 66 66 66 65 60 59 59 58 57 56 60 60 60 61 65 63 67 71 67 57 54 48 43 43
81 80 80 79 75 73 74 74 73 71 71 71 71 69 72 69 70 71 68 67 65 63 60 59 58 57 58 59 60 60 60 61 62 63 65 70 72 62 57 53 46 42 41
78 78 76 75 76 74 69 67 67 66 68 70 69 71 73 70 75 74 71 63 61 59 59 58 57 57 59 60 61 61 62 61 62 63 66 70 69 59 57 50 44 41 41

GFSGL_500_spd_111.txt.gz
Wind_Speed
50 49 50 49 48 47 47 46 45 46 48 50 51 52 54 54 52 48 47 48 47 50 53 57 60 64 67 68 67 63 62 56 56 57 59 60 65 68 70 76 80 85 91
50 50 50 49 48 48 48 49 49 50 52 52 54 54 55 52 50 48 48 47 51 53 56 59 63 65 71 69 66 62 61 58 57 58 59 63 66 69 74 79 85 91 97
52 50 49 48 48 49 50 51 52 52 54 55 55 55 53 50 48 48 47 50 54 57 59 61 67 74 71 66 63 61 60 57 57 59 63 64 68 73 77 84 91 97 102
50 51 51 50 50 51 52 53 54 54 56 55 55 53 52 50 48 48 50 55 61 61 61 67 74 69 64 64 61 60 58 56 59 62 64 68 72 77 82 86 93 100 103
52 51 51 51 52 53 54 54 54 55 55 55 53 52 50 48 49 52 59 59 61 63 66 73 70 64 63 62 60 58 56 61 62 65 68 72 77 82 87 92 98 101 104
47 48 50 51 52 51 53 53 53 51 51 53 50 47 49 51 57 59 59 64 67 66 73 72 65 65 61 61 58 58 60 63 66 70 74 78 83 86 93 98 100 102 101
49 49 50 51 52 54 56 55 52 51 48 48 49 50 52 56 58 63 66 69 68 72 71 66 64 61 59 58 60 61 64 67 72 75 79 84 87 92 97 99 100 100 94
52 51 50 49 48 49 48 47 50 53 53 54 54 59 63 65 66 68 70 71 74 73 67 63 58 60 57 59 62 64 67 72 75 80 83 87 92 95 95 95 94 92 91
49 50 51 49 47 47 48 48 50 52 53 55 60 63 66 68 72 74 74 73 71 68 63 56 59 56 59 61 65 67 71 75 79 84 88 91 94 94 92 92 90 88 87
52 53 56 55 54 56 56 54 58 63 67 67 66 70 71 73 74 73 70 68 69 62 56 55 59 59 62 65 67 69 74 78 82 87 91 92 91 88 87 85 84 84 85
55 53 54 55 57 59 60 61 64 67 67 66 69 70 72 71 70 67 67 68 63 54 55 59 58 61 64 68 69 73 77 81 86 89 91 87 85 85 84 81 80 79 80
61 63 64 63 65 67 66 66 67 67 66 66 68 68 67 67 68 69 66 61 54 56 58 59 60 64 67 69 73 77 80 85 88 88 85 82 81 79 78 77 78 77 77
58 59 60 60 60 62 64 66 66 67 68 68 69 70 68 66 63 55 56 53 55 57 58 60 63 67 69 74 77 81 84 86 85 81 79 78 76 73 74 74 73 72 70
51 52 52 53 54 57 59 62 64 65 67 68 66 66 62 54 53 51 53 55 56 59 61 64 67 69 74 77 80 83 83 81 77 77 76 74 72 72 72 69 68 68 65
52 52 53 54 56 58 59 59 57 58 58 58 58 57 55 53 53 52 56 60 63 64 66 69 72 74 77 80 82 81 80 77 76 77 73 70 69 68 66 65 65 64 62
52 53 53 52 53 55 57 58 57 57 57 58 59 57 56 58 58 61 63 64 65 66 68 72 75 78 81 81 82 82 77 75 76 71 67 67 67 65 63 63 64 62 63
50 50 51 54 57 57 56 57 57 57 58 59 59 60 61 59 62 64 66 67 68 71 73 75 77 81 82 82 81 74 74 75 71 67 65 64 62 58 59 60 62 60 63
54 54 54 54 56 57 57 56 55 56 57 59 61 61 61 64 66 68 69 70 71 73 75 79 80 83 82 79 75 74 77 71 66 66 64 61 58 57 59 58 60 59 62
57 58 58 57 57 57 57 58 58 57 57 58 60 62 64 66 68 69 69 71 73 76 79 81 82 82 80 75 74 75 69 64 64 64 61 58 56 56 57 58 60 58 63
60 59 60 61 61 62 62 63 62 59 59 60 63 63 66 68 69 71 74 77 79 80 82 81 82 78 75 75 72 66 62 64 63 59 57 56 55 57 59 59 59 58 62
63 62 63 63 65 66 67 66 64 63 63 65 67 68 71 72 74 76 78 79 79 79 81 80 77 73 74 66 62 64 63 61 59 58 58 54 54 57 60 60 60 60 63
68 68 68 68 69 69 69 69 69 69 69 70 71 73 75 75 75 75 76 78 80 79 77 74 74 70 62 62 63 63 60 59 58 57 55 53 54 57 59 60 60 61 63
73 74 75 75 75 75 75 75 75 75 74 72 73 77 74 73 74 76 77 77 77 76 74 72 69 66 65 64 62 61 60 60 58 56 54 54 56 59 59 60 58 61 65
83 84 84 84 84 84 83 81 78 76 74 71 70 74 75 74 73 72 71 71 72 72 70 68 69 67 66 66 59 58 57 57 56 55 55 56 56 60 60 57 58 61 65
89 89 88 87 85 83 81 77 72 74 77 75 73 72 74 71 67 64 62 68 71 67 66 68 69 65 63 58 58 57 59 56 56 59 56 56 58 60 59 57 57 62 64
84 83 82 82 81 80 79 78 76 74 71 71 72 72 73 72 69 67 69 71 69 65 66 67 62 62 58 58 56 56 56 58 59 57 57 56 57 58 59 57 58 61 62

GFSGL_500_spd_114.txt.gz
Wind_Speed
55 56 56 54 52 52 53 52 52 52 49 50 50 53 53 54 56 56 57 57 56 53 52 52 50 50 53 57 61 64 68 72 62 58 57 55 54 57 60 63 66 71 76
57 57 57 57 56 55 54 54 54 53 52 53 53 54 56 57 58 58 58 56 53 52 52 51 51 54 59 62 63 67 70 65 58 56 54 51 54 58 62 66 70 76 80
61 59 58 59 58 56 56 56 55 55 55 54 55 56 58 58 58 57 56 54 52 52 52 52 55 60 62 65 66 69 67 61 56 55 53 53 57 60 65 71 75 80 85
61 60 61 61 60 57 55 55 57 56 56 56 56 59 59 58 56 56 54 52 52 52 54 55 59 65 66 68 67 67 60 55 55 56 54 57 61 66 69 72 79 84 89
59 58 59 59 57 56 56 56 57 58 58 58 57 57 57 56 52 53 51 51 52 56 56 61 66 67 72 69 67 61 56 55 57 58 56 60 64 70 72 76 81 87 92
59 58 57 57 58 57 56 56 57 57 57 55 54 51 54 57 52 48 50 53 54 58 64 68 70 74 71 64 59 57 54 58 57 59 60 64 68 73 74 79 84 89 93
55 53 55 57 56 55 54 53 53 52 51 52 54 53 50 46 55 57 59 59 62 65 69 73 77 68 62 60 58 55 57 59 60 61 65 66 71 75 78 82 87 92 95
57 57 55 52 51 50 47 49 50 49 49 50 50 49 51 52 50 52 57 63 68 72 74 75 68 62 60 59 57 57 59 61 61 63 68 69 73 77 81 85 90 94 95
51 49 50 51 53 54 52 53 53 54 51 51 48 50 51 53 59 65 68 71 69 70 70 65 60 61 59 58 57 59 62 62 64 67 68 71 74 79 83 88 91 93 89
54 58 61 60 57 53 52 52 53 52 50 53 56 57 59 64 65 69 69 67 68 67 64 63 63 60 55 58 59 62 63 65 67 69 70 73 77 81 84 87 88 84 80
58 60 60 60 59 59 59 59 60 58 58 60 62 66 68 70 70 69 69 68 67 66 63 63 59 55 58 59 61 62 65 67 69 70 72 76 79 81 83 83 82 78 77
54 56 57 58 59 59 59 60 60 61 65 68 67 65 66 67 68 69 68 67 64 60 56 53 54 57 59 61 62 65 66 68 70 73 75 77 80 78 79 79 75 73 74
46 47 48 49 51 55 59 63 65 65 65 65 65 64 64 66 67 67 65 63 59 55 54 53 58 59 60 62 64 66 67 68 71 74 77 80 78 77 76 74 72 71 70
53 53 54 55 55 56 56 56 56 57 59 62 64 65 66 66 62 59 58 56 54 55 55 59 60 60 62 64 65 66 68 71 73 75 79 79 76 74 71 69 68 69 66
53 53 53 54 55 55 56 58 59 61 63 63 64 63 58 57 57 58 57 57 59 55 58 60 62 63 65 65 67 69 70 73 76 79 78 75 71 70 67 66 67 66 63
53 53 53 54 54 54 56 58 60 61 62 62 61 62 61 60 61 61 62 61 57 59 62 63 65 66 66 67 69 71 74 78 79 77 73 71 70 67 66 65 62 63 60
50 48 48 49 50 50 52 53 55 57 57 59 62 63 62 63 64 63 63 59 60 63 63 67 67 67 68 69 71 75 78 79 76 73 71 69 65 63 62 62 59 60 58
51 49 49 50 51 52 55 56 57 57 58 60 62 63 63 62 60 61 62 64 66 66 67 67 68 69 71 75 77 78 77 75 70 68 68 64 61 60 60 60 59 59 57
54 55 56 56 57 58 58 58 58 58 57 60 62 63 62 61 61 62 65 67 67 68 69 69 71 74 77 78 78 77 74 70 68 66 63 59 61 60 59 59 59 57 56
56 57 57 58 60 62 64 62 62 63 64 65 64 64 65 65 62 62 64 66 67 69 70 72 77 78 77 76 74 75 73 67 65 62 60 59 60 60 59 60 58 54 55
59 61 62 63 65 66 66 66 66 66 64 64 64 65 66 67 67 67 68 69 70 73 76 78 77 76 74 74 78 73 67 64 60 60 60 59 62 61 59 59 55 55 53
66 66 67 68 68 68 69 69 70 70 70 70 70 71 71 73 75 75 75 75 76 77 76 76 74 74 77 75 71 68 66 63 60 61 60 59 60 57 56 55 56 54 53
72 73 74 74 75 75 76 76 76 76 76 77 78 77 77 76 74 73 74 75 77 77 74 73 74 73 69 67 68 67 65 64 61 61 58 57 55 53 53 55 58 54 54
81 80 80 81 81 83 84 84 84 83 81 80 80 78 76 75 74 72 72 72 75 76 72 72 68 64 62 66 66 67 65 65 62 59 57 56 53 52 53 57 57 53 55
86 86 87 86 85 85 84 83 82 82 82 81 79 77 76 74 74 71 70 70 73 74 73 70 70 66 67 70 69 65 65 63 61 58 55 57 55 54 56 59 56 57 58
85 86 86 85 84 83 83 83 83 83 83 83 83 82 80 76 70 70 72 74 75 74 74 73 68 70 71 71 67 65 67 61 61 57 59 60 59 60 60 60 59 58 57

GFSGL_500_spd_117.txt.gz
Wind_Speed
60 60 60 59 57 58 60 59 57 57 56 56 55 55 54 55 56 58 58 59 60 59 58 58 57 56 54 53 53 53 57 63 69 67 65 61 58 54 53 50 52 57 62
57 58 60 60 60 59 59 59 59 60 60 60 59 58 56 56 58 61 61 60 60 59 58 57 55 53 52 51 55 56 60 69 68 65 61 58 54 54 54 53 56 60 65
57 63 61 62 63 61 61 60 61 61 61 61 60 59 59 60 61 61 60 60 59 58 57 55 53 52 53 53 58 61 66 70 65 60 59 57 53 54 57 57 60 64 68
51 58 65 65 66 66 64 62 63 61 60 60 60 60 63 61 61 59 59 58 57 55 52 52 50 51 59 58 61 68 73 63 61 59 58 55 55 57 58 61 63 66 70
49 57 66 67 64 64 62 64 65 65 63 62 60 60 60 61 59 58 56 54 50 49 50 48 53 60 61 62 64 71 63 59 59 59 58 56 57 60 60 61 64 66 70
46 51 63 74 66 59 60 63 64 62 62 63 61 60 54 52 52 53 51 49 53 46 49 60 56 59 62 67 69 62 57 58 60 59 58 58 59 62 63 64 66 66 73
49 49 53 59 59 59 60 60 61 60 58 54 53 56 55 53 47 48 51 52 47 55 53 52 57 64 68 64 60 56 55 57 60 57 60 60 61 63 65 66 67 70 75
52 51 51 51 56 61 62 62 62 60 58 54 53 51 54 62 54 54 54 48 50 55 58 61 63 64 64 62 61 56 55 60 58 59 61 61 61 63 64 66 67 71 77
52 53 53 55 56 56 54 50 47 47 50 49 48 53 52 50 53 52 52 54 56 57 64 66 64 66 64 61 55 52 56 55 58 60 61 61 63 64 64 65 67 72 76
53 55 55 54 54 53 53 52 51 48 51 54 51 52 54 57 55 53 53 55 62 65 65 64 66 64 61 55 52 52 55 57 59 61 62 63 63 62 64 66 70 75 78
51 52 55 56 57 59 59 58 58 60 60 58 57 56 54 53 55 57 59 61 67 65 66 65 64 63 58 54 50 58 58 59 61 62 63 63 62 63 65 68 72 75 76
47 46 49 51 54 57 58 58 58 59 60 60 60 59 60 62 62 63 63 65 65 67 67 66 61 57 55 54 52 57 59 61 62 63 62 61 62 63 66 71 72 73 70
50 49 47 46 47 49 50 53 56 59 61 62 63 63 62 62 62 62 64 65 67 67 63 58 55 56 55 52 58 60 60 62 63 62 61 62 62 65 69 71 69 68 64
52 50 51 53 53 54 56 57 59 59 59 58 57 57 59 61 62 63 63 63 61 59 57 56 56 58 56 58 61 61 63 63 63 62 62 63 64 69 71 69 68 64 60
54 55 55 55 55 56 54 55 56 56 58 59 60 60 61 60 59 59 60 60 61 60 59 60 60 57 57 61 63 64 64 63 62 64 63 65 69 72 70 66 63 59 57
54 54 55 55 56 54 53 52 52 54 55 56 57 57 55 56 56 58 60 62 63 64 64 62 59 59 63 65 66 66 65 65 65 65 67 70 74 72 68 64 61 56 56
53 52 52 52 51 51 51 50 49 49 49 50 51 53 54 56 58 61 62 61 62 65 63 61 63 66 68 68 67 67 66 67 67 69 72 74 73 69 66 61 55 54 55
52 52 51 52 52 53 53 53 53 52 52 53 54 55 56 57 58 58 62 64 62 61 61 63 67 67 68 67 67 68 69 70 72 72 73 73 70 66 60 57 53 54 55
54 54 54 54 55 57 58 59 59 58 58 58 58 59 60 61 62 63 66 68 71 72 69 66 64 65 66 67 68 70 72 72 72 74 73 69 66 62 58 55 52 54 56
53 54 55 56 58 59 62 63 64 65 66 66 65 64 65 66 68 68 68 69 69 70 71 69 69 70 71 71 71 73 70 73 73 73 70 69 64 59 56 54 54 55 54
61 62 64 65 65 65 66 68 71 70 69 70 71 71 70 70 70 70 70 70 69 71 74 75 75 74 73 73 74 73 75 75 73 69 68 62 60 57 55 57 57 56 53
65 67 69 71 73 74 74 74 74 75 77 77 78 78 76 75 76 76 76 75 76 76 76 76 76 75 77 77 75 75 73 70 69 69 65 59 58 57 59 58 57 55 54
76 77 78 79 81 82 83 84 85 86 87 85 81 80 79 79 80 80 79 79 77 77 77 77 77 77 77 77 76 75 72 69 68 67 61 61 63 57 59 57 56 56 53
81 82 84 85 86 86 87 87 87 87 86 85 84 84 84 83 81 80 79 79 78 77 77 76 77 76 76 76 75 74 73 68 70 72 67 64 63 63 60 57 58 58 57
86 86 88 89 89 89 88 87 85 85 85 85 85 85 85 84 84 84 84 83 82 81 78 75 74 74 77 79 77 78 78 68 68 68 71 68 67 62 62 57 57 57 57
88 89 89 90 90 90 89 88 88 87 87 87 87 87 87 87 87 87 87 86 85 83 82 79 77 76 83 83 81 77 78 77 75 74 73 73 66 62 59 58 61 61 60

GFSGL_500_spd_123.txt.gz
Wind_Speed
40 41 40 39 37 35 34 36 40 47 52 54 54 55 56 58 60 57 54 58 57 54 60 59 57 55 56 53 55 53 53 50 46 44 49 53 54 53 55 55 55 57 53
41 42 42 42 43 45 48 49 47 49 52 54 56 59 57 55 58 60 57 57 61 60 57 60 61 58 52 55 56 53 55 47 43 47 51 51 53 55 50 53 54 57 57
46 45 45 45 47 47 47 48 50 53 55 58 61 62 63 61 62 61 62 61 61 62 61 60 61 54 57 52 56 50 48 43 48 53 49 54 53 46 48 56 58 56 56
50 50 51 52 51 50 49 51 52 54 57 60 63 65 64 61 58 58 56 54 53 54 55 54 56 54 52 48 50 54 50 56 55 47 51 51 53 49 50 56 56 55 55
54 56 57 56 55 53 52 52 55 57 58 60 60 59 59 60 62 58 53 50 52 51 53 54 51 52 47 53 49 47 53 48 45 47 55 56 53 54 51 53 55 54 56
52 51 51 52 53 56 56 56 57 58 58 58 58 57 53 51 51 48 49 46 46 44 49 46 44 48 50 47 51 60 57 46 49 51 56 53 55 54 50 49 56 56 56
48 48 48 48 48 49 51 51 53 55 57 57 56 56 55 52 50 46 45 50 50 54 52 54 52 53 53 50 48 48 48 50 52 57 53 56 56 41 53 54 51 55 59
49 48 49 48 49 51 53 54 53 54 54 53 52 51 52 52 52 50 47 48 47 48 52 54 53 49 46 53 53 48 50 54 56 56 54 56 53 49 53 53 53 57 60
47 49 48 48 51 53 56 56 56 55 50 48 48 48 47 48 48 48 48 48 46 47 52 54 47 47 50 54 54 58 58 57 55 53 54 54 53 49 54 55 57 60 60
45 45 46 46 48 51 53 56 58 56 54 48 46 46 48 48 48 47 48 50 50 53 54 53 52 52 49 52 56 59 52 54 54 52 54 56 57 48 55 59 61 60 60
41 42 43 45 48 51 53 56 58 60 57 55 52 48 44 42 43 47 49 51 51 48 45 45 44 51 52 53 53 52 56 50 48 54 57 54 48 54 58 60 60 62 61
36 38 39 40 44 49 51 51 53 56 57 57 54 53 48 45 45 46 49 50 49 50 50 50 49 51 53 51 51 47 52 53 51 51 52 53 50 57 61 61 62 62 62
37 38 37 39 42 44 45 47 48 47 48 51 52 54 57 59 54 49 52 52 51 51 49 49 50 51 50 48 48 54 63 51 50 54 52 48 58 62 64 63 64 63 62
39 38 36 38 41 44 45 48 50 50 50 50 50 50 50 50 50 50 49 49 49 48 47 47 47 46 46 47 47 50 55 52 53 54 55 63 66 67 65 65 68 66 62
39 39 38 41 43 43 44 46 47 49 49 48 48 47 47 47 46 45 45 45 46 46 46 46 46 47 48 50 52 55 56 57 58 60 65 67 67 68 69 69 69 65 62
42 43 44 44 44 45 45 44 44 45 46 46 46 46 47 48 48 48 47 47 47 47 47 48 49 51 52 55 57 59 61 62 62 64 70 71 71 73 72 68 66 65 65
46 46 48 49 50 47 48 49 47 46 47 48 49 50 50 49 48 48 48 48 49 50 49 51 54 55 57 60 61 63 65 65 64 71 75 77 76 77 74 69 69 69 69
51 51 51 53 53 54 54 53 53 52 52 53 52 51 52 53 52 52 54 54 54 56 58 59 60 62 65 67 68 69 70 71 73 75 77 78 79 80 77 74 73 71 68
53 54 58 59 58 58 57 60 63 61 61 59 58 58 57 57 57 57 57 59 62 64 65 67 69 69 70 71 72 74 75 75 75 77 77 78 80 81 78 76 75 71 70
64 56 63 65 64 63 63 66 65 66 68 66 66 65 63 63 64 66 67 69 70 70 72 73 75 75 76 77 78 79 78 78 78 79 79 80 80 80 79 78 76 71 67
69 63 66 70 69 68 68 69 67 68 70 72 70 67 68 71 72 73 75 75 76 78 79 79 79 80 81 80 79 77 77 77 78 79 79 79 81 81 79 76 74 70 66
70 70 71 71 72 72 72 73 75 73 73 73 75 77 76 78 80 80 82 84 85 85 83 84 84 82 82 83 82 82 81 81 80 80 81 82 82 82 80 78 76 73 67
72 73 74 75 76 77 77 78 79 79 80 80 82 83 85 87 87 88 89 90 88 85 85 84 85 84 84 83 83 82 83 82 83 84 84 84 84 82 79 78 77 74 69
77 78 79 81 81 81 81 82 84 84 86 87 88 89 90 91 91 91 91 92 91 90 90 90 87 87 87 87 88 89 89 88 85 85 82 80 80 76 73 73 74 75 76
84 85 85 86 86 86 86 86 87 90 91 92 93 93 93 92 91 92 92 90 89 89 89 90 92 93 92 91 88 84 81 80 80 77 77 77 75 76 75 75 74 77 79
87 88 88 87 88 88 90 89 88 88 87 88 89 90 91 91 89 90 91 91 92 93 92 92 91 88 86 83 80 77 74 73 72 69 70 71 72 72 73 73 76 75 71

GFSGL_500_spd_129.txt.gz
Wind_Speed
32 33 33 35 38 40 41 42 43 43 44 45 47 48 50 52 55 59 61 63 63 62 64 64 62 59 59 58 59 59 57 60 66 66 65 66 63 63 53 55 53 54 47
36 36 38 41 42 44 44 44 45 45 46 47 49 51 51 52 54 54 54 55 57 59 59 61 62 62 59 58 55 57 55 50 51 54 64 51 63 64 52 56 53 48 47
40 42 44 46 47 47 48 49 50 50 50 52 54 55 55 53 54 54 55 55 56 57 57 58 56 56 58 60 52 50 53 50 51 56 55 63 56 64 55 61 55 52 48
46 47 48 49 49 49 49 51 50 50 51 52 51 51 50 52 53 55 57 57 57 58 57 55 54 54 54 54 54 55 55 53 54 60 52 57 55 62 56 57 46 45 47
51 52 51 51 50 50 50 52 52 54 52 49 49 50 52 53 56 58 58 58 57 56 56 56 57 55 52 51 52 50 53 59 62 56 59 59 58 57 54 51 48 50 47
55 54 52 50 50 51 51 52 54 51 51 51 51 54 55 56 58 58 59 58 58 57 55 52 52 54 54 54 56 54 54 57 58 59 63 59 51 55 56 55 54 51 50
52 50 49 48 50 50 52 51 52 52 53 55 55 56 57 57 55 54 54 56 58 60 58 54 51 52 53 54 56 57 59 60 60 59 57 53 54 57 53 48 51 51 46
47 46 47 48 48 49 50 52 52 53 55 56 55 54 53 51 52 52 52 54 54 54 56 57 56 53 53 53 54 57 55 56 57 55 57 53 55 56 46 58 55 53 53
45 46 44 46 48 52 55 53 52 54 56 54 51 47 45 45 44 44 45 45 46 48 48 48 47 46 48 50 50 50 51 52 53 53 47 48 53 53 55 56 59 48 55
41 41 43 44 47 49 51 53 55 56 51 50 47 45 44 40 37 36 34 33 34 37 42 45 48 49 51 52 54 54 57 56 54 44 52 47 61 59 59 61 56 55 52
43 45 47 48 50 52 54 56 54 51 51 45 44 45 40 37 30 30 32 32 32 34 34 38 39 40 41 42 43 44 46 49 49 51 50 49 52 56 59 60 59 57 58
47 50 50 51 52 55 54 54 53 51 49 50 47 44 41 37 37 38 35 36 35 33 37 39 41 41 41 43 44 46 47 46 46 48 51 52 56 59 61 62 62 63 65
50 52 53 54 57 55 52 52 49 50 54 53 51 44 42 40 39 38 39 38 37 37 40 43 41 44 46 48 49 49 49 51 52 52 54 56 59 61 62 63 65 67 67
51 52 53 55 56 54 51 51 51 54 52 52 51 51 48 45 43 43 43 43 41 41 41 44 46 47 49 52 53 54 57 57 56 57 59 61 63 63 64 66 68 71 72
49 51 52 54 54 53 53 52 54 54 55 56 54 54 52 51 49 48 48 49 49 47 48 48 50 51 53 55 56 57 58 60 62 64 65 64 65 66 69 72 73 74 74
50 51 52 52 53 54 55 55 55 55 55 56 56 56 56 53 53 52 53 53 54 56 56 57 58 57 58 61 63 63 63 64 64 68 69 69 70 72 73 75 76 78 77
52 54 56 56 56 55 55 56 58 59 60 61 60 59 58 56 56 58 60 60 60 61 62 63 64 65 66 67 68 68 70 70 70 69 72 73 75 76 78 77 76 74 74
57 58 58 56 54 53 55 57 58 59 59 60 60 60 62 60 61 63 66 64 65 65 66 67 68 69 70 71 72 73 72 72 74 76 78 79 81 82 80 79 80 79 79
58 59 60 60 63 60 58 60 61 63 64 66 66 65 65 66 66 67 67 68 70 70 70 70 71 73 73 74 75 77 77 77 79 80 81 83 84 85 85 84 84 82 78
61 62 63 64 65 65 64 66 68 68 69 67 69 70 69 70 71 72 73 74 74 75 76 74 75 77 78 80 79 79 79 80 82 84 86 86 86 86 86 84 83 81 80
64 64 67 68 69 70 69 69 71 74 75 76 76 77 77 75 76 77 77 76 76 76 76 76 77 79 82 82 84 84 84 85 86 86 86 87 87 87 85 83 84 83 83
68 68 70 72 73 74 74 75 76 78 80 81 82 82 82 81 80 80 79 78 79 80 80 80 82 85 84 85 85 85 85 86 86 88 87 85 84 83 85 85 85 85 85
73 74 76 78 79 79 80 81 82 82 83 84 84 83 83 83 83 83 83 84 85 85 86 87 87 87 87 88 88 89 89 88 88 88 86 86 86 85 86 85 84 80 79
80 81 82 83 83 82 83 84 85 85 84 85 86 88 88 88 88 88 88 87 87 87 87 87 88 88 90 91 90 90 88 87 87 88 87 87 87 84 80 77 73 69 68
83 83 84 84 84 86 87 89 89 90 91 92 94 95 95 95 92 89 87 88 88 86 87 89 90 91 90 88 86 86 87 88 88 87 84 82 76 70 66 62 58 58 57
85 87 89 90 91 92 93 93 93 93 94 94 94 92 89 88 88 86 85 86 86 86 87 87 86 85 84 85 85 85 86 85 83 79 74 66 60 55 51 50 51 49 44

GFSGL_500_spd_132.txt.gz
Wind_Speed
31 30 28 28 32 34 35 38 41 44 46 48 49 48 49 50 51 52 53 54 52 51 51 54 57 59 59 58 58 60 61 61 59 53 56 53 54 56 50 44 46 59 55
35 34 34 35 37 39 41 43 45 46 49 50 50 51 50 50 50 50 50 48 49 50 53 56 58 58 57 57 54 51 54 56 57 56 56 55 54 57 65 66 58 58 56
37 37 39 40 42 44 47 48 48 48 49 50 49 48 48 48 47 47 47 50 51 54 55 57 58 59 57 55 53 53 51 52 54 56 57 54 55 59 61 51 56 58 62
41 42 43 46 47 49 50 49 49 49 49 48 48 48 47 46 47 48 50 52 55 56 56 54 50 52 50 49 50 51 52 52 54 55 58 56 55 58 58 58 58 59 59
44 46 48 50 51 52 51 51 50 49 48 48 46 44 44 46 48 50 52 54 53 49 47 49 50 49 48 49 50 52 51 52 52 54 56 58 58 58 56 57 60 62 65
49 51 53 54 54 54 53 54 54 49 47 46 44 44 44 48 51 53 54 53 47 43 46 44 44 44 45 45 45 46 45 46 48 50 51 52 54 53 51 53 51 48 46
54 56 56 56 55 55 54 51 49 48 46 43 42 44 48 51 54 56 54 49 46 45 42 40 38 37 37 38 41 42 44 46 47 49 50 51 53 53 56 51 56 49 48
57 56 56 56 56 53 49 47 45 41 40 40 44 47 49 53 56 54 49 47 45 44 40 37 31 31 31 31 33 34 34 35 38 40 43 44 47 48 46 46 57 56 55
55 55 53 51 48 47 45 42 40 40 42 44 46 49 52 54 56 50 48 48 45 37 32 31 31 31 31 32 30 30 32 33 34 37 41 45 48 48 47 50 52 54 56
53 52 50 49 47 44 41 41 42 43 45 46 48 50 53 55 53 49 47 48 44 38 37 36 36 35 35 35 34 35 35 35 35 36 39 41 42 45 47 51 56 56 58
50 50 48 46 45 43 42 43 44 45 47 49 52 53 53 53 52 50 51 49 48 47 48 43 42 41 40 39 39 40 41 41 40 41 42 46 49 50 53 55 56 58 59
46 47 48 47 45 44 44 44 44 46 49 51 51 52 51 50 51 55 53 52 53 53 51 50 49 46 45 46 46 48 49 52 51 51 53 54 56 58 59 61 63 64 65
50 49 49 47 46 46 45 43 45 47 49 49 50 49 49 51 54 52 50 50 50 53 52 53 53 51 51 51 50 50 51 53 55 56 58 60 61 62 64 66 68 70 71
49 50 47 47 45 44 42 43 44 46 47 47 48 49 51 54 55 52 51 55 56 54 54 54 55 54 53 54 56 57 59 60 60 62 62 62 64 65 67 69 71 73 72
49 48 46 44 43 41 42 44 46 48 49 49 49 50 51 54 55 55 54 53 57 58 58 56 57 58 59 62 62 62 65 67 66 68 68 66 65 66 66 68 69 70 72
49 47 45 44 44 43 46 49 50 52 53 55 54 55 55 56 57 57 58 58 59 60 61 61 63 63 64 66 67 70 71 73 70 70 69 67 66 67 69 70 71 73 75
49 48 47 46 47 48 51 53 54 54 56 55 57 57 56 57 59 58 59 60 61 62 64 64 67 70 73 74 73 73 73 74 73 72 71 71 70 69 70 72 74 75 77
51 50 50 51 53 54 55 56 58 58 58 59 59 63 66 65 64 64 63 64 66 66 68 70 73 76 78 77 76 75 77 75 72 70 71 73 74 74 75 76 77 78 78
53 55 55 56 57 59 60 61 61 62 62 64 64 66 69 70 70 68 67 68 69 69 72 75 78 80 79 78 77 77 76 75 75 75 76 77 78 78 81 83 83 83 82
58 58 59 60 61 63 65 66 66 67 68 69 71 71 71 72 74 75 74 74 77 77 78 79 81 81 80 81 81 79 78 78 78 79 79 79 81 85 86 86 84 83 82
61 61 63 64 65 66 67 69 69 70 71 73 74 76 76 77 79 80 82 83 82 82 84 85 84 84 83 83 85 85 84 83 84 83 83 84 86 85 83 84 85 84 85
67 66 66 66 67 70 71 72 72 73 74 77 77 78 80 81 83 86 88 87 87 86 85 85 86 87 89 89 88 86 85 84 83 84 87 87 86 85 86 86 86 86 85
71 70 69 70 71 73 74 75 76 77 79 80 80 82 85 87 89 91 90 91 91 91 91 92 93 92 91 90 89 86 85 85 85 86 86 86 86 86 86 84 85 84 81
73 74 74 74 75 76 77 78 80 82 84 85 88 89 90 92 93 94 94 95 96 97 96 94 90 88 85 83 84 86 87 87 86 89 88 86 85 83 81 78 77 75 71
77 77 78 78 79 81 83 83 84 85 87 90 91 92 93 95 96 97 98 98 97 92 89 86 86 84 84 86 88 88 86 86 87 86 83 80 78 79 78 76 72 64 56
82 83 83 84 86 88 89 90 91 93 93 94 95 95 96 97 96 93 89 88 86 83 83 83 84 86 87 88 86 84 86 86 82 80 78 78 77 76 74 68 61 53 49

GFSGL_500_spd_135.txt.gz
Wind_Speed
27 29 29 29 28 27 26 29 33 35 37 39 42 44 47 50 52 50 48 48 49 47 43 45 47 50 51 53 52 48 48 49 46 43 43 47 49 51 52 53 55 52 52
30 32 33 34 34 32 32 35 38 41 43 43 45 47 49 49 49 48 49 49 44 42 44 47 49 52 52 49 47 48 46 45 47 47 47 47 47 48 48 49 50 48 51
37 38 39 40 39 37 39 42 43 45 46 48 49 49 48 48 48 48 47 41 41 43 46 48 51 50 48 46 46 45 44 46 47 46 44 43 43 43 46 48 50 50 49
44 43 43 42 42 43 45 46 48 49 50 51 50 49 48 47 47 46 39 39 41 44 48 50 49 45 44 43 43 43 41 42 42 42 43 42 42 43 43 44 45 44 45
48 46 46 47 47 48 50 51 52 51 52 51 51 51 50 47 44 39 39 40 43 46 48 46 43 42 41 43 42 39 37 40 38 37 31 29 31 33 37 36 36 38 36
46 48 50 49 50 51 53 54 55 53 53 51 51 48 45 42 39 38 41 43 45 46 45 42 43 42 43 39 35 33 31 30 31 31 30 28 28 34 37 38 37 37 37
51 50 50 52 54 55 56 55 54 53 52 53 48 46 42 40 40 40 43 44 45 46 42 43 43 43 43 39 34 33 35 32 31 31 30 31 34 35 34 37 41 40 41
53 52 53 55 56 56 55 55 55 54 53 49 47 45 42 41 42 44 45 47 46 44 43 44 45 45 42 38 37 38 39 37 37 38 38 39 41 42 41 41 43 44 46
56 55 57 56 56 55 54 54 54 54 51 49 47 44 45 45 47 46 46 46 46 44 45 44 47 45 45 45 42 44 45 46 46 46 47 47 48 49 49 48 50 49 49
57 56 57 57 56 54 55 56 55 54 52 48 47 46 47 48 48 46 45 45 46 45 44 45 49 50 49 49 51 52 51 51 51 52 50 50 50 51 54 57 57 58 56
62 59 59 58 58 58 57 58 58 54 51 50 50 50 51 49 48 47 46 45 45 45 46 49 50 50 49 50 53 52 53 53 54 53 53 53 56 57 59 59 61 63 64
59 61 61 61 59 58 59 58 56 53 53 52 53 53 52 50 46 44 44 44 45 47 50 51 48 48 48 51 52 53 54 54 56 57 59 60 62 64 66 67 69 69 68
64 64 65 63 60 60 58 55 55 55 54 54 53 52 49 46 43 42 42 45 48 49 52 53 52 52 52 52 57 57 57 57 58 60 62 65 67 70 72 73 72 72 71
64 66 66 62 59 58 57 56 56 55 54 55 53 50 48 46 43 42 44 47 50 51 53 55 57 57 59 58 57 56 59 60 61 63 65 68 72 74 75 75 74 73 69
62 62 60 59 60 60 59 56 54 55 55 56 53 50 47 45 44 45 47 51 52 54 56 57 58 59 60 60 61 62 62 63 64 67 69 73 75 76 76 74 71 68 67
66 64 61 64 65 62 57 53 55 57 58 57 53 51 49 46 47 48 50 53 55 57 59 61 62 63 63 65 65 66 67 68 69 72 75 76 77 75 74 72 71 70 71
69 68 69 66 60 54 53 56 58 60 58 57 56 54 51 51 51 52 55 56 57 59 62 63 64 64 66 68 69 70 71 76 79 80 81 80 76 75 73 75 75 77 78
63 62 60 58 54 54 57 57 59 59 59 59 58 57 54 55 56 57 59 60 62 64 65 66 66 68 71 71 72 75 78 80 81 82 83 79 79 80 81 83 81 80 79
63 63 61 58 56 57 60 61 60 60 61 60 60 59 58 59 60 61 63 65 67 68 69 71 72 73 74 76 78 81 83 84 83 82 83 83 84 85 84 82 82 80 83
63 59 57 53 54 59 62 64 63 63 62 62 62 63 64 63 61 64 67 70 72 73 75 75 76 78 79 82 85 86 87 88 87 87 89 90 90 87 85 83 83 84 86
59 55 55 58 62 65 66 64 65 63 63 65 66 66 66 66 66 68 71 72 75 77 80 81 81 83 86 88 90 91 92 90 90 93 93 90 88 82 83 86 86 87 91
59 60 61 61 62 65 66 68 67 65 66 67 67 68 68 68 71 73 75 78 80 81 83 86 87 89 91 93 91 91 92 94 95 93 87 82 82 83 87 88 89 91 91
60 60 62 63 66 68 68 67 66 66 67 67 68 70 72 75 78 80 81 83 84 86 86 87 89 91 93 94 94 93 92 89 86 83 81 83 86 89 89 90 91 90 84
67 67 66 66 66 66 66 66 67 68 69 71 73 75 78 79 81 83 85 86 87 88 89 91 93 95 97 95 92 88 85 82 81 83 86 87 88 88 89 88 86 78 76
65 66 65 65 64 65 67 68 69 71 74 77 77 79 81 81 83 84 86 88 89 92 93 95 96 94 91 87 83 83 82 83 86 87 87 87 87 87 84 79 74 70 69
64 66 67 69 70 72 74 75 77 77 78 79 80 81 83 84 86 88 90 92 94 95 94 91 89 86 81 80 81 82 85 87 86 85 87 85 80 76 74 70 69 69 67

GFSGL_500_spd_138.txt.gz
Wind_Speed
31 31 31 31 38 40 38 34 33 34 32 33 34 35 36 38 41 43 44 47 48 49 49 49 44 39 40 44 46 45 45 45 40 37 41 39 39 40 42 41 40 40 43
33 32 30 32 36 37 36 35 35 35 36 36 37 37 39 42 45 46 48 48 48 49 49 46 39 39 44 45 45 44 42 42 41 41 35 35 36 38 38 31 29 31 32
39 37 35 36 36 37 38 39 39 40 40 40 40 40 43 45 47 49 50 49 50 50 47 41 39 41 44 46 44 43 41 40 41 40 34 34 35 37 32 29 31 27 29
42 43 41 39 41 43 45 45 45 45 46 45 44 46 47 49 50 49 49 51 50 48 42 40 39 44 46 47 46 45 43 43 41 39 35 36 34 33 32 34 36 35 42
49 49 48 47 47 48 49 50 51 51 50 49 50 51 53 53 51 49 50 50 48 46 42 42 44 47 48 48 46 45 43 43 41 38 37 38 35 34 36 38 40 43 45
50 52 53 51 51 52 53 53 53 53 53 53 55 57 56 55 51 51 51 49 47 44 44 46 49 50 49 46 44 43 45 45 42 41 41 41 40 39 40 44 47 49 50
54 55 54 53 55 57 58 58 58 58 57 57 59 59 57 53 52 51 50 48 47 48 49 50 51 50 48 45 43 42 41 44 44 43 45 46 47 48 50 52 53 54 55
56 57 56 56 57 58 58 59 59 59 59 60 59 58 55 52 52 50 50 50 51 52 52 52 52 50 47 43 42 42 42 44 45 47 49 52 53 53 54 55 55 55 57
62 63 63 63 61 62 63 61 61 60 60 60 59 56 53 51 51 51 53 54 53 53 54 54 53 49 47 44 43 45 46 47 48 49 52 54 55 56 56 57 57 58 59
64 65 64 66 65 65 63 61 59 59 58 58 57 54 52 54 54 55 57 56 55 55 56 54 52 48 45 45 44 45 45 44 47 49 52 55 57 58 57 59 60 59 61
67 68 68 67 67 65 63 60 60 60 57 57 56 57 58 58 57 58 58 56 56 56 55 53 50 47 46 45 46 47 46 47 51 53 55 58 61 61 62 63 64 64 66
72 72 70 67 66 63 62 60 61 60 59 59 59 61 61 59 59 58 58 56 57 58 55 50 49 49 45 45 46 47 48 50 52 55 58 59 60 62 64 64 65 68 71
71 68 67 68 65 62 62 64 64 63 62 61 63 64 64 60 57 56 54 56 58 56 52 51 50 47 46 47 48 51 53 54 56 56 59 61 63 62 63 65 67 72 76
68 68 68 67 67 66 63 65 64 66 64 64 67 66 61 58 57 52 56 60 59 55 55 53 51 49 48 48 49 50 53 57 59 60 61 62 63 64 66 70 75 76 78
66 67 68 68 67 65 65 67 68 68 67 67 64 61 59 58 54 55 60 59 58 57 56 57 55 52 51 50 51 54 57 59 61 62 64 66 67 69 73 76 78 79 79
60 65 67 69 68 67 65 65 67 65 64 62 62 61 59 55 55 61 60 59 58 59 60 60 58 55 55 54 55 58 61 62 63 65 67 69 71 74 77 79 81 81 79
61 67 70 71 70 68 67 67 65 63 67 65 64 61 55 56 60 60 60 61 59 61 62 62 61 60 59 57 58 61 63 65 67 68 70 72 74 78 80 82 82 81 81
61 63 67 70 69 70 70 71 66 65 66 70 66 57 54 56 59 59 61 62 62 62 63 64 64 64 64 63 63 64 66 68 70 72 74 77 79 80 83 83 83 83 85
61 64 67 70 72 71 69 69 70 71 74 70 60 56 53 56 58 61 62 63 63 63 65 66 67 67 67 67 68 68 69 70 73 76 79 81 83 83 84 85 86 87 82
59 63 67 67 69 71 67 64 69 71 70 65 60 54 55 57 59 62 62 63 64 64 67 69 71 70 70 69 69 71 72 74 77 79 81 83 84 85 87 89 88 87 84
61 62 60 62 63 62 65 70 74 71 67 62 57 57 60 59 61 63 63 66 67 68 69 71 72 72 72 73 73 73 74 77 79 81 82 84 87 89 90 88 86 85 83
61 66 65 62 63 69 72 71 69 65 62 60 61 61 61 62 64 67 68 68 68 69 71 73 74 73 74 75 75 77 78 79 81 83 86 88 90 88 85 84 82 83 85
65 67 68 64 63 64 64 64 63 62 62 62 63 64 65 67 69 69 68 68 68 71 73 74 73 76 76 77 78 80 82 83 85 88 89 88 86 85 84 83 83 84 87
67 68 66 65 64 64 63 62 63 64 65 66 67 68 69 69 69 68 68 70 73 75 76 77 78 79 80 80 82 84 86 87 89 88 88 86 83 82 83 82 82 84 84
63 62 61 60 61 62 64 66 67 69 70 70 69 67 67 68 70 72 74 77 78 77 78 81 82 83 84 85 86 87 88 89 89 86 84 82 83 83 82 84 85 83 79
61 60 61 62 64 66 67 69 70 70 69 69 70 72 74 75 76 77 79 81 81 82 83 84 86 87 87 87 88 88 87 86 85 83 83 83 82 81 81 81 83 77 74

GFSGL_500_spd_141.txt.gz
Wind_Speed
43 38 40 41 41 42 42 43 48 50 47 43 40 39 34 33 35 35 35 36 37 38 41 44 44 47 49 49 44 44 44 46 45 45 44 38 34 33 30 30 32 32 31
39 42 41 41 39 38 37 37 41 45 49 42 41 38 36 37 37 36 37 38 40 41 44 46 47 51 50 47 44 44 46 48 49 45 44 41 38 36 34 34 34 33 33
43 42 41 42 40 38 35 34 36 45 42 41 41 40 40 39 39 40 40 42 43 45 46 48 50 52 51 47 46 47 49 51 51 47 44 42 41 39 37 37 38 37 37
47 48 46 45 44 42 40 39 41 42 43 43 43 43 43 43 44 44 45 46 47 48 50 49 51 52 50 48 49 50 52 52 52 49 45 43 43 42 41 40 43 43 45
53 53 52 49 48 47 46 46 45 45 45 47 47 47 48 49 48 49 50 51 52 52 50 51 51 51 49 50 51 52 54 54 53 50 47 45 44 44 44 45 45 46 49
57 55 56 57 57 54 54 53 52 53 52 54 55 56 56 55 54 54 54 55 55 54 51 51 51 50 51 52 52 54 53 54 51 50 47 44 44 44 46 48 50 52 51
61 61 61 62 62 61 59 59 58 57 57 57 58 59 58 59 58 58 58 58 57 54 53 51 51 52 53 53 53 54 55 52 51 49 46 47 44 44 45 47 48 48 51
62 63 63 62 63 63 62 61 60 60 59 60 62 63 63 62 61 60 58 58 55 54 52 52 53 54 55 55 54 54 57 53 53 48 46 45 44 44 43 44 45 47 50
66 64 65 65 63 62 62 62 61 61 61 61 62 62 62 62 61 58 58 57 57 54 54 54 55 56 57 55 54 57 57 54 54 50 50 47 45 46 47 47 49 51 52
69 70 71 71 71 70 68 67 65 65 64 63 63 63 61 60 60 58 59 58 56 54 56 56 58 61 55 53 57 56 54 54 54 52 49 46 46 47 49 51 53 53 53
71 71 72 73 73 73 73 72 69 66 67 65 62 60 57 57 59 60 58 57 56 57 58 60 62 61 52 55 56 56 54 54 56 54 51 50 51 50 50 52 54 54 55
68 68 70 73 75 74 73 74 72 70 67 64 63 62 61 59 60 60 59 60 61 61 64 65 61 56 51 55 55 56 54 55 57 56 56 55 52 51 52 54 55 56 59
74 71 70 69 70 76 79 78 77 75 76 76 70 69 66 64 64 65 67 69 68 70 69 61 57 50 54 56 56 55 56 57 59 59 58 57 54 53 55 55 56 58 60
71 74 74 70 65 69 73 77 76 74 72 70 70 67 66 67 68 70 72 75 71 70 64 57 54 51 54 57 56 55 57 59 59 60 62 60 60 61 57 57 58 59 62
67 72 70 69 67 66 68 71 73 73 73 71 72 72 72 73 72 74 73 65 66 64 60 56 56 52 54 56 56 56 58 60 62 62 63 63 63 63 61 61 60 62 66
64 65 66 68 69 68 68 70 71 74 75 72 73 72 72 69 70 66 63 68 66 62 61 58 56 51 55 57 56 54 58 60 61 63 65 65 65 67 65 63 63 66 70
60 63 66 65 64 64 65 69 72 73 69 67 62 58 65 66 62 62 66 63 63 63 61 58 52 54 56 56 58 56 58 60 62 64 65 67 69 69 67 66 68 70 72
67 63 61 61 63 63 62 63 64 66 71 73 73 77 76 70 66 68 65 64 66 63 60 55 54 56 59 58 57 56 59 61 63 65 67 69 71 70 70 70 71 71 72
61 64 61 61 61 61 63 67 69 72 74 76 73 72 70 60 64 67 72 70 68 64 60 57 57 59 57 57 57 58 62 65 67 68 70 71 71 71 72 72 72 74 76
58 59 59 60 62 64 65 66 68 69 70 71 72 72 68 64 68 71 72 68 67 66 60 58 59 59 58 58 58 60 64 67 69 70 72 71 71 73 73 74 75 77 78
51 52 54 57 60 63 64 65 65 67 67 67 67 66 61 65 70 73 72 68 65 62 59 61 62 60 60 60 60 64 65 68 71 71 70 71 73 74 75 76 78 79 80
52 51 53 55 56 56 58 58 59 63 63 62 63 66 68 72 75 72 68 64 61 61 63 63 61 61 61 62 66 67 68 70 72 71 72 74 76 78 79 80 81 82 83
50 53 55 56 57 58 59 59 60 61 63 66 69 72 73 71 67 64 62 62 63 63 63 64 64 64 68 70 71 70 72 73 75 76 76 78 81 82 82 82 82 82 80
64 61 58 57 57 63 64 64 65 66 67 69 70 70 66 64 63 63 62 62 64 65 66 65 69 74 75 74 74 76 77 79 81 81 83 85 86 84 84 82 81 80 78
64 63 61 60 60 62 64 66 66 66 64 63 63 64 64 63 63 65 66 68 68 66 69 73 76 77 76 77 80 81 81 83 85 86 88 88 86 85 83 81 80 78 77
63 63 61 61 62 64 64 64 65 65 66 65 65 66 66 67 68 69 70 71 72 75 76 76 76 79 81 83 84 85 86 87 88 88 87 85 84 82 80 78 77 75 75

GFSGL_500_spd_144.txt.gz
Wind_Speed
45 43 43 44 48 49 50 46 38 42 45 47 48 48 49 49 49 36 38 39 38 36 36 37 38 39 39 40 41 43 45 47 46 45 45 48 49 49 48 46 41 38 38
49 43 44 46 47 49 34 35 38 41 41 42 45 50 50 47 46 40 39 36 36 37 39 40 40 41 42 43 43 44 46 46 47 46 47 50 51 49 48 46 43 41 41
50 49 48 49 50 37 38 41 41 39 39 40 39 39 42 45 45 38 38 37 39 41 41 43 44 44 45 45 44 45 46 47 47 47 49 51 52 50 48 46 44 44 44
50 51 50 50 47 40 44 45 44 42 41 41 40 39 38 40 40 39 40 42 44 44 45 47 48 49 47 46 45 46 47 48 48 49 51 52 53 51 48 47 44 44 45
61 55 52 52 53 50 48 48 46 46 47 44 43 42 41 42 43 45 48 51 52 51 52 52 51 50 48 47 48 48 48 48 50 52 52 52 55 52 50 48 46 47 46
65 63 60 59 55 56 56 57 54 51 51 49 46 47 47 48 50 54 57 57 57 56 54 53 52 50 50 49 50 50 49 50 51 53 51 51 56 51 49 48 47 45 44
64 65 64 65 64 61 60 62 61 58 57 57 57 57 55 54 55 57 58 58 57 56 56 55 53 52 52 51 51 50 50 52 53 53 50 52 54 53 51 51 50 47 46
63 64 68 69 67 65 64 64 64 67 67 65 63 62 60 59 59 60 60 60 60 60 58 56 55 53 54 53 51 51 52 54 55 52 49 54 55 54 51 51 53 50 48
64 65 67 70 72 72 69 68 68 68 68 67 66 65 63 60 60 61 62 61 59 58 57 56 55 55 54 52 53 54 55 59 62 51 50 53 53 53 51 51 53 53 52
68 67 68 68 68 71 73 74 72 71 69 68 66 64 63 62 60 58 56 57 56 54 52 54 56 56 55 55 56 59 65 66 63 52 50 51 52 52 53 53 54 55 55
70 67 66 66 66 68 68 69 73 73 73 72 69 66 66 66 64 62 58 57 56 55 55 56 58 59 59 60 66 68 69 67 62 50 50 51 53 53 54 55 55 54 53
74 72 66 64 64 64 64 67 72 70 71 72 72 71 69 66 66 65 63 62 64 65 63 62 61 63 64 67 69 71 69 67 58 50 52 53 54 55 55 55 52 52 55
68 67 67 65 62 63 67 67 64 66 69 72 71 70 70 68 67 67 67 68 67 64 62 64 65 66 68 71 71 68 67 61 59 54 51 54 54 56 56 54 52 52 55
66 67 67 69 71 68 68 70 70 70 69 67 67 66 67 69 70 72 69 68 67 69 71 71 70 71 73 70 66 67 63 60 59 52 51 55 56 56 55 52 51 53 56
64 66 69 71 72 69 71 70 67 64 65 64 63 63 65 70 73 72 71 72 72 72 71 71 72 73 70 66 67 65 63 62 58 51 53 55 57 55 54 51 52 55 56
64 68 72 72 70 69 68 68 70 69 66 64 64 65 66 69 70 73 74 74 73 69 71 70 68 65 62 64 68 63 62 62 57 53 55 55 57 57 55 53 55 57 58
64 66 69 68 64 64 67 68 68 69 69 68 66 65 69 69 70 70 72 74 68 70 67 66 62 61 63 64 60 63 65 65 58 57 56 58 57 57 57 57 58 58 59
61 64 67 69 69 69 70 72 72 71 69 67 66 66 70 72 75 72 69 69 63 65 67 70 66 65 64 63 64 68 68 64 60 58 58 57 57 60 60 61 60 60 60
62 67 71 71 72 77 77 77 75 71 67 70 73 69 70 75 68 61 64 69 70 70 67 59 62 60 63 67 69 68 68 64 58 58 57 56 60 62 63 63 62 62 61
65 71 74 76 77 76 81 81 84 83 74 65 62 62 61 61 62 62 67 68 66 67 59 62 66 67 67 70 69 67 64 58 57 57 57 60 62 63 64 64 64 64 65
73 74 72 67 65 72 62 62 62 63 69 64 57 58 60 63 63 63 62 62 59 63 67 66 69 66 69 68 66 62 57 57 56 58 62 64 65 66 67 67 68 69 71
67 61 65 51 53 46 53 59 61 63 58 57 57 60 61 63 64 68 66 60 57 65 69 68 66 66 65 64 61 58 57 56 60 65 66 67 69 70 71 72 73 74 75
67 64 56 55 55 54 55 56 57 56 55 55 56 57 59 61 61 64 66 68 71 69 69 66 63 63 63 61 59 56 57 63 68 68 69 71 73 74 73 75 77 79 80
66 64 60 56 55 55 56 59 61 59 58 57 59 61 63 65 67 67 67 66 65 64 61 62 62 62 62 61 58 61 67 70 70 72 73 75 77 76 77 78 81 82 81
70 64 62 60 59 58 58 58 58 58 57 58 63 63 65 66 67 65 64 64 64 64 64 62 62 62 62 63 68 72 73 74 75 76 78 79 80 80 81 82 82 80 79
60 62 59 60 60 60 61 62 62 61 60 61 64 67 71 71 70 69 67 66 65 64 64 65 65 67 70 73 75 77 78 78 79 80 81 81 82 82 81 80 78 76 75